<?xml version="1.0" encoding="UTF-8" standalone="no" ?>
<gpx xmlns="http://www.topografix.com/GPX/1/1" xmlns:xsi="http://www.w3.org/2001/XMLSchema-instance" xsi:schemaLocation="http://www.topografix.com/GPX/1/1 http://www.topografix.com/GPX/1/1/gpx.xsd" version="1.1" creator="VisuGPX - https://www.visugpx.com">
  <metadata>
    <name>CCFM 327</name>
    <desc><![CDATA[⛳️/CS.Mons, Lexhy, Oudoumont, Verlaine, Chapon-Seraing, Vaux & Borset, Celles, Omal, Ligney, Hollogne-sur-Geer, Petit-Axhe, Bettincourt, [b]OLEYE[/b], Lantremange, Hodeige, Fexhe,Velroux, Lexhy, Mons.]]></desc>
  </metadata>
  <wpt lat="50.71029" lon="5.27847">
    <ele>109</ele>
    <type><![CDATA[bar]]></type>
  </wpt>
  <trk>
    <name><![CDATA[CCFM 327]]></name>
    <extensions>
      <line xmlns="http://www.topografix.com/GPX/gpx_style/0/2">
        <color>0000FF</color>
        <width>4</width>
          <extensions>
            <sens>1</sens>
          </extensions>
      </line>
    </extensions>
    <trkseg>
      <trkpt lat="50.62339" lon="5.44764">
        <ele>191</ele>
        <time>2021-08-08T06:59:47.000Z</time>
        <extensions>
          <visugpx:TrkExtension xmlns:visugpx="https://www.visugpx.com/editgpx/">
            <visugpx:node>11</visugpx:node>
            </visugpx:TrkExtension>
        </extensions>
      </trkpt>
      <trkpt lat="50.62341" lon="5.4475">
        <ele>186.19999694824</ele>
        <time>2021-08-08T06:59:49.000Z</time>
      </trkpt>
      <trkpt lat="50.62341" lon="5.44743">
        <ele>186.19999694824</ele>
        <time>2021-08-08T06:59:50.000Z</time>
      </trkpt>
      <trkpt lat="50.6235" lon="5.44667">
        <ele>187.19999694824</ele>
        <time>2021-08-08T07:00:00.000Z</time>
      </trkpt>
      <trkpt lat="50.62355" lon="5.44628">
        <ele>187.80000305176</ele>
        <time>2021-08-08T07:00:05.000Z</time>
      </trkpt>
      <trkpt lat="50.62356" lon="5.44612">
        <ele>187.80000305176</ele>
        <time>2021-08-08T07:00:07.000Z</time>
      </trkpt>
      <trkpt lat="50.62356" lon="5.44604">
        <ele>187.80000305176</ele>
        <time>2021-08-08T07:00:08.000Z</time>
      </trkpt>
      <trkpt lat="50.62358" lon="5.44507">
        <ele>187</ele>
        <time>2021-08-08T07:00:20.000Z</time>
      </trkpt>
      <trkpt lat="50.62355" lon="5.44449">
        <ele>187</ele>
        <time>2021-08-08T07:00:27.000Z</time>
      </trkpt>
      <trkpt lat="50.62351" lon="5.44404">
        <ele>186.60000610352</ele>
        <time>2021-08-08T07:00:32.000Z</time>
      </trkpt>
      <trkpt lat="50.62347" lon="5.44377">
        <ele>186.60000610352</ele>
        <time>2021-08-08T07:00:35.000Z</time>
      </trkpt>
      <trkpt lat="50.6234" lon="5.44332">
        <ele>186.39999389648</ele>
        <time>2021-08-08T07:00:40.000Z</time>
      </trkpt>
      <trkpt lat="50.62331" lon="5.44286">
        <ele>185.39999389648</ele>
        <time>2021-08-08T07:00:45.000Z</time>
      </trkpt>
      <trkpt lat="50.62327" lon="5.44269">
        <ele>185</ele>
        <time>2021-08-08T07:00:47.000Z</time>
      </trkpt>
      <trkpt lat="50.62314" lon="5.44217">
        <ele>183.80000305176</ele>
        <time>2021-08-08T07:00:53.000Z</time>
      </trkpt>
      <trkpt lat="50.62309" lon="5.44182">
        <ele>182.80000305176</ele>
        <time>2021-08-08T07:00:57.000Z</time>
      </trkpt>
      <trkpt lat="50.62313" lon="5.44135">
        <ele>182.80000305176</ele>
        <time>2021-08-08T07:01:02.000Z</time>
      </trkpt>
      <trkpt lat="50.62315" lon="5.44126">
        <ele>182.60000610352</ele>
        <time>2021-08-08T07:01:03.000Z</time>
      </trkpt>
      <trkpt lat="50.62335" lon="5.44085">
        <ele>182.60000610352</ele>
        <time>2021-08-08T07:01:08.000Z</time>
      </trkpt>
      <trkpt lat="50.62367" lon="5.44026">
        <ele>182.19999694824</ele>
        <time>2021-08-08T07:01:16.000Z</time>
      </trkpt>
      <trkpt lat="50.6237" lon="5.44019">
        <ele>182</ele>
        <time>2021-08-08T07:01:17.000Z</time>
      </trkpt>
      <trkpt lat="50.62376" lon="5.43996">
        <ele>181.80000305176</ele>
        <time>2021-08-08T07:01:20.000Z</time>
      </trkpt>
      <trkpt lat="50.62375" lon="5.43978">
        <ele>181.39999389648</ele>
        <time>2021-08-08T07:01:22.000Z</time>
      </trkpt>
      <trkpt lat="50.62368" lon="5.43933">
        <ele>180.80000305176</ele>
        <time>2021-08-08T07:01:27.000Z</time>
      </trkpt>
      <trkpt lat="50.6236" lon="5.43898">
        <ele>180.60000610352</ele>
        <time>2021-08-08T07:01:31.000Z</time>
      </trkpt>
      <trkpt lat="50.62351" lon="5.43851">
        <ele>180.60000610352</ele>
        <time>2021-08-08T07:01:36.000Z</time>
      </trkpt>
      <trkpt lat="50.62337" lon="5.43793">
        <ele>179.80000305176</ele>
        <time>2021-08-08T07:01:42.000Z</time>
      </trkpt>
      <trkpt lat="50.62313" lon="5.43723">
        <ele>179.19999694824</ele>
        <time>2021-08-08T07:01:50.000Z</time>
      </trkpt>
      <trkpt lat="50.62305" lon="5.43701">
        <ele>179.19999694824</ele>
        <time>2021-08-08T07:01:53.000Z</time>
      </trkpt>
      <trkpt lat="50.62277" lon="5.43629">
        <ele>181</ele>
        <time>2021-08-08T07:02:04.000Z</time>
      </trkpt>
      <trkpt lat="50.62257" lon="5.43577">
        <ele>182.19999694824</ele>
        <time>2021-08-08T07:02:13.000Z</time>
      </trkpt>
      <trkpt lat="50.62254" lon="5.43572">
        <ele>182.19999694824</ele>
        <time>2021-08-08T07:02:14.000Z</time>
      </trkpt>
      <trkpt lat="50.62249" lon="5.43555">
        <ele>182.60000610352</ele>
        <time>2021-08-08T07:02:17.000Z</time>
      </trkpt>
      <trkpt lat="50.6224" lon="5.43526">
        <ele>183</ele>
        <time>2021-08-08T07:02:22.000Z</time>
      </trkpt>
      <trkpt lat="50.62233" lon="5.43484">
        <ele>185</ele>
        <time>2021-08-08T07:02:29.000Z</time>
      </trkpt>
      <trkpt lat="50.62229" lon="5.43475">
        <ele>185.19999694824</ele>
        <time>2021-08-08T07:02:31.000Z</time>
      </trkpt>
      <trkpt lat="50.62215" lon="5.43462">
        <ele>185.60000610352</ele>
        <time>2021-08-08T07:02:35.000Z</time>
      </trkpt>
      <trkpt lat="50.62211" lon="5.43457">
        <ele>185.39999389648</ele>
        <time>2021-08-08T07:02:36.000Z</time>
      </trkpt>
      <trkpt lat="50.62196" lon="5.43415">
        <ele>186</ele>
        <time>2021-08-08T07:02:42.000Z</time>
      </trkpt>
      <trkpt lat="50.62181" lon="5.43376">
        <ele>186.19999694824</ele>
        <time>2021-08-08T07:02:48.000Z</time>
      </trkpt>
      <trkpt lat="50.62161" lon="5.43323">
        <ele>187</ele>
        <time>2021-08-08T07:02:56.000Z</time>
      </trkpt>
      <trkpt lat="50.62151" lon="5.43301">
        <ele>188</ele>
        <time>2021-08-08T07:03:00.000Z</time>
      </trkpt>
      <trkpt lat="50.62128" lon="5.43275">
        <ele>189.19999694824</ele>
        <time>2021-08-08T07:03:06.000Z</time>
      </trkpt>
      <trkpt lat="50.62088" lon="5.43236">
        <ele>189.60000610352</ele>
        <time>2021-08-08T07:03:15.000Z</time>
      </trkpt>
      <trkpt lat="50.62058" lon="5.432">
        <ele>189.60000610352</ele>
        <time>2021-08-08T07:03:21.000Z</time>
      </trkpt>
      <trkpt lat="50.62033" lon="5.43177">
        <ele>187.60000610352</ele>
        <time>2021-08-08T07:03:26.000Z</time>
      </trkpt>
      <trkpt lat="50.62029" lon="5.43173">
        <ele>187.39999389648</ele>
        <time>2021-08-08T07:03:27.000Z</time>
      </trkpt>
      <trkpt lat="50.61999" lon="5.43156">
        <ele>187.39999389648</ele>
        <time>2021-08-08T07:03:33.000Z</time>
      </trkpt>
      <trkpt lat="50.61989" lon="5.4315">
        <ele>187.39999389648</ele>
        <time>2021-08-08T07:03:35.000Z</time>
      </trkpt>
      <trkpt lat="50.61943" lon="5.43098">
        <ele>188</ele>
        <time>2021-08-08T07:03:45.000Z</time>
      </trkpt>
      <trkpt lat="50.61929" lon="5.43078">
        <ele>188</ele>
        <time>2021-08-08T07:03:48.000Z</time>
      </trkpt>
      <trkpt lat="50.61884" lon="5.43016">
        <ele>187</ele>
        <time>2021-08-08T07:03:58.000Z</time>
      </trkpt>
      <trkpt lat="50.6188" lon="5.43011">
        <ele>187</ele>
        <time>2021-08-08T07:03:59.000Z</time>
      </trkpt>
      <trkpt lat="50.61833" lon="5.42949">
        <ele>187.19999694824</ele>
        <time>2021-08-08T07:04:10.000Z</time>
      </trkpt>
      <trkpt lat="50.61807" lon="5.42923">
        <ele>187.19999694824</ele>
        <time>2021-08-08T07:04:15.000Z</time>
      </trkpt>
      <trkpt lat="50.61802" lon="5.42918">
        <ele>187.19999694824</ele>
        <time>2021-08-08T07:04:16.000Z</time>
      </trkpt>
      <trkpt lat="50.61777" lon="5.42886">
        <ele>187</ele>
        <time>2021-08-08T07:04:21.000Z</time>
      </trkpt>
      <trkpt lat="50.61775" lon="5.42878">
        <ele>186.80000305176</ele>
        <time>2021-08-08T07:04:22.000Z</time>
      </trkpt>
      <trkpt lat="50.61778" lon="5.42837">
        <ele>186.19999694824</ele>
        <time>2021-08-08T07:04:26.000Z</time>
      </trkpt>
      <trkpt lat="50.61782" lon="5.42828">
        <ele>186.19999694824</ele>
        <time>2021-08-08T07:04:27.000Z</time>
      </trkpt>
      <trkpt lat="50.61805" lon="5.42764">
        <ele>184.19999694824</ele>
        <time>2021-08-08T07:04:33.000Z</time>
      </trkpt>
      <trkpt lat="50.61812" lon="5.42729">
        <ele>182.60000610352</ele>
        <time>2021-08-08T07:04:36.000Z</time>
      </trkpt>
      <trkpt lat="50.6182" lon="5.42678">
        <ele>181.80000305176</ele>
        <time>2021-08-08T07:04:41.000Z</time>
      </trkpt>
      <trkpt lat="50.61823" lon="5.42651">
        <ele>181.60000610352</ele>
        <time>2021-08-08T07:04:44.000Z</time>
      </trkpt>
      <trkpt lat="50.6182" lon="5.42608">
        <ele>181.80000305176</ele>
        <time>2021-08-08T07:04:49.000Z</time>
      </trkpt>
      <trkpt lat="50.61814" lon="5.42569">
        <ele>183</ele>
        <time>2021-08-08T07:04:54.000Z</time>
      </trkpt>
      <trkpt lat="50.61813" lon="5.42553">
        <ele>183.19999694824</ele>
        <time>2021-08-08T07:04:56.000Z</time>
      </trkpt>
      <trkpt lat="50.6182" lon="5.42498">
        <ele>184.80000305176</ele>
        <time>2021-08-08T07:05:03.000Z</time>
      </trkpt>
      <trkpt lat="50.61826" lon="5.4247">
        <ele>185.60000610352</ele>
        <time>2021-08-08T07:05:07.000Z</time>
      </trkpt>
      <trkpt lat="50.61834" lon="5.42449">
        <ele>186.19999694824</ele>
        <time>2021-08-08T07:05:10.000Z</time>
      </trkpt>
      <trkpt lat="50.6186" lon="5.42385">
        <ele>187.39999389648</ele>
        <time>2021-08-08T07:05:19.000Z</time>
      </trkpt>
      <trkpt lat="50.6189" lon="5.42311">
        <ele>187.39999389648</ele>
        <time>2021-08-08T07:05:28.000Z</time>
      </trkpt>
      <trkpt lat="50.61901" lon="5.42286">
        <ele>186.60000610352</ele>
        <time>2021-08-08T07:05:31.000Z</time>
      </trkpt>
      <trkpt lat="50.61907" lon="5.42259">
        <ele>186</ele>
        <time>2021-08-08T07:05:34.000Z</time>
      </trkpt>
      <trkpt lat="50.61908" lon="5.42209">
        <ele>185.19999694824</ele>
        <time>2021-08-08T07:05:39.000Z</time>
      </trkpt>
      <trkpt lat="50.61905" lon="5.4211">
        <ele>183</ele>
        <time>2021-08-08T07:05:49.000Z</time>
      </trkpt>
      <trkpt lat="50.61898" lon="5.4203">
        <ele>182.39999389648</ele>
        <time>2021-08-08T07:05:58.000Z</time>
      </trkpt>
      <trkpt lat="50.61897" lon="5.42021">
        <ele>182.19999694824</ele>
        <time>2021-08-08T07:05:59.000Z</time>
      </trkpt>
      <trkpt lat="50.61895" lon="5.41922">
        <ele>182.39999389648</ele>
        <time>2021-08-08T07:06:10.000Z</time>
      </trkpt>
      <trkpt lat="50.61898" lon="5.41868">
        <ele>183</ele>
        <time>2021-08-08T07:06:16.000Z</time>
      </trkpt>
      <trkpt lat="50.61905" lon="5.41776">
        <ele>183.19999694824</ele>
        <time>2021-08-08T07:06:26.000Z</time>
      </trkpt>
      <trkpt lat="50.6191" lon="5.41732">
        <ele>182.80000305176</ele>
        <time>2021-08-08T07:06:31.000Z</time>
      </trkpt>
      <trkpt lat="50.61925" lon="5.41692">
        <ele>182.39999389648</ele>
        <time>2021-08-08T07:06:36.000Z</time>
        <extensions>
          <visugpx:TrkExtension xmlns:visugpx="https://www.visugpx.com/editgpx/">
            <visugpx:node>1</visugpx:node>
            </visugpx:TrkExtension>
        </extensions>
      </trkpt>
      <trkpt lat="50.6202" lon="5.41554">
        <ele>186</ele>
      </trkpt>
      <trkpt lat="50.61924" lon="5.4129">
        <ele>183.4</ele>
      </trkpt>
      <trkpt lat="50.61915" lon="5.41234">
        <ele>183</ele>
      </trkpt>
      <trkpt lat="50.62023" lon="5.41155">
        <ele>182</ele>
      </trkpt>
      <trkpt lat="50.62203" lon="5.41096">
        <ele>178.7</ele>
      </trkpt>
      <trkpt lat="50.62312" lon="5.41193">
        <ele>176.8</ele>
      </trkpt>
      <trkpt lat="50.63517" lon="5.39615">
        <ele>165</ele>
      </trkpt>
      <trkpt lat="50.6333" lon="5.37223">
        <ele>178</ele>
        <extensions>
          <visugpx:TrkExtension xmlns:visugpx="https://www.visugpx.com/editgpx/">
            <visugpx:node>10</visugpx:node>
            </visugpx:TrkExtension>
        </extensions>
      </trkpt>
      <trkpt lat="50.63332" lon="5.37198">
        <ele>173</ele>
        <time>2021-08-08T07:16:10.000Z</time>
      </trkpt>
      <trkpt lat="50.6333" lon="5.37173">
        <ele>173</ele>
        <time>2021-08-08T07:16:13.000Z</time>
      </trkpt>
      <trkpt lat="50.63322" lon="5.37071">
        <ele>174.60000610352</ele>
        <time>2021-08-08T07:16:25.000Z</time>
      </trkpt>
      <trkpt lat="50.63317" lon="5.37016">
        <ele>175</ele>
        <time>2021-08-08T07:16:31.000Z</time>
      </trkpt>
      <trkpt lat="50.63309" lon="5.36912">
        <ele>175.80000305176</ele>
        <time>2021-08-08T07:16:42.000Z</time>
      </trkpt>
      <trkpt lat="50.63299" lon="5.36798">
        <ele>175.60000610352</ele>
        <time>2021-08-08T07:16:54.000Z</time>
      </trkpt>
      <trkpt lat="50.63298" lon="5.36713">
        <ele>175.19999694824</ele>
        <time>2021-08-08T07:17:03.000Z</time>
      </trkpt>
      <trkpt lat="50.63298" lon="5.36594">
        <ele>175</ele>
        <time>2021-08-08T07:17:16.000Z</time>
      </trkpt>
      <trkpt lat="50.63298" lon="5.36567">
        <ele>175.19999694824</ele>
        <time>2021-08-08T07:17:19.000Z</time>
      </trkpt>
      <trkpt lat="50.63299" lon="5.36395">
        <ele>176.80000305176</ele>
        <time>2021-08-08T07:17:40.000Z</time>
      </trkpt>
      <trkpt lat="50.63298" lon="5.36361">
        <ele>177.19999694824</ele>
        <time>2021-08-08T07:17:46.000Z</time>
      </trkpt>
      <trkpt lat="50.63301" lon="5.36347">
        <ele>177.39999389648</ele>
        <time>2021-08-08T07:17:52.000Z</time>
      </trkpt>
      <trkpt lat="50.63302" lon="5.36343">
        <ele>178.19999694824</ele>
        <time>2021-08-08T07:18:06.000Z</time>
      </trkpt>
      <trkpt lat="50.633" lon="5.36332">
        <ele>178.19999694824</ele>
        <time>2021-08-08T07:18:09.000Z</time>
      </trkpt>
      <trkpt lat="50.63297" lon="5.36321">
        <ele>178.19999694824</ele>
        <time>2021-08-08T07:18:11.000Z</time>
      </trkpt>
      <trkpt lat="50.63287" lon="5.36243">
        <ele>177.39999389648</ele>
        <time>2021-08-08T07:18:21.000Z</time>
      </trkpt>
      <trkpt lat="50.6328" lon="5.36173">
        <ele>176.80000305176</ele>
        <time>2021-08-08T07:18:29.000Z</time>
      </trkpt>
      <trkpt lat="50.6327" lon="5.3609">
        <ele>176.19999694824</ele>
        <time>2021-08-08T07:18:38.000Z</time>
      </trkpt>
      <trkpt lat="50.63268" lon="5.36061">
        <ele>175.60000610352</ele>
        <time>2021-08-08T07:18:41.000Z</time>
      </trkpt>
      <trkpt lat="50.6327" lon="5.36022">
        <ele>175.60000610352</ele>
        <time>2021-08-08T07:18:45.000Z</time>
      </trkpt>
      <trkpt lat="50.63288" lon="5.35859">
        <ele>174.60000610352</ele>
        <time>2021-08-08T07:19:01.000Z</time>
      </trkpt>
      <trkpt lat="50.63289" lon="5.35847">
        <ele>174.39999389648</ele>
        <time>2021-08-08T07:19:02.000Z</time>
      </trkpt>
      <trkpt lat="50.63296" lon="5.35759">
        <ele>173.80000305176</ele>
        <time>2021-08-08T07:19:10.000Z</time>
      </trkpt>
      <trkpt lat="50.633" lon="5.35715">
        <ele>173.60000610352</ele>
        <time>2021-08-08T07:19:14.000Z</time>
      </trkpt>
      <trkpt lat="50.63309" lon="5.35627">
        <ele>172.39999389648</ele>
        <time>2021-08-08T07:19:22.000Z</time>
      </trkpt>
      <trkpt lat="50.63318" lon="5.35541">
        <ele>172</ele>
        <time>2021-08-08T07:19:30.000Z</time>
      </trkpt>
      <trkpt lat="50.63327" lon="5.35411">
        <ele>171</ele>
        <time>2021-08-08T07:19:42.000Z</time>
      </trkpt>
      <trkpt lat="50.63328" lon="5.35377">
        <ele>170.80000305176</ele>
        <time>2021-08-08T07:19:45.000Z</time>
      </trkpt>
      <trkpt lat="50.63331" lon="5.35228">
        <ele>169.19999694824</ele>
        <time>2021-08-08T07:19:59.000Z</time>
      </trkpt>
      <trkpt lat="50.63335" lon="5.35142">
        <ele>169.60000610352</ele>
        <time>2021-08-08T07:20:08.000Z</time>
      </trkpt>
      <trkpt lat="50.63338" lon="5.35097">
        <ele>170.39999389648</ele>
        <time>2021-08-08T07:20:13.000Z</time>
      </trkpt>
      <trkpt lat="50.63345" lon="5.34998">
        <ele>171.39999389648</ele>
        <time>2021-08-08T07:20:24.000Z</time>
      </trkpt>
      <trkpt lat="50.63347" lon="5.34971">
        <ele>171.80000305176</ele>
        <time>2021-08-08T07:20:27.000Z</time>
      </trkpt>
      <trkpt lat="50.63362" lon="5.34818">
        <ele>174</ele>
        <time>2021-08-08T07:20:44.000Z</time>
      </trkpt>
      <trkpt lat="50.63367" lon="5.3479">
        <ele>174.19999694824</ele>
        <time>2021-08-08T07:20:47.000Z</time>
      </trkpt>
      <trkpt lat="50.63386" lon="5.34683">
        <ele>174.19999694824</ele>
        <time>2021-08-08T07:20:58.000Z</time>
      </trkpt>
      <trkpt lat="50.6339" lon="5.34664">
        <ele>174</ele>
        <time>2021-08-08T07:21:00.000Z</time>
      </trkpt>
      <trkpt lat="50.63414" lon="5.34525">
        <ele>172.60000610352</ele>
        <time>2021-08-08T07:21:14.000Z</time>
      </trkpt>
      <trkpt lat="50.63416" lon="5.34515">
        <ele>172.60000610352</ele>
        <time>2021-08-08T07:21:15.000Z</time>
      </trkpt>
      <trkpt lat="50.6344" lon="5.34384">
        <ele>171.60000610352</ele>
        <time>2021-08-08T07:21:28.000Z</time>
      </trkpt>
      <trkpt lat="50.63459" lon="5.34277">
        <ele>171.80000305176</ele>
        <time>2021-08-08T07:21:39.000Z</time>
      </trkpt>
      <trkpt lat="50.63464" lon="5.34249">
        <ele>171.80000305176</ele>
        <time>2021-08-08T07:21:42.000Z</time>
      </trkpt>
      <trkpt lat="50.63481" lon="5.34145">
        <ele>172.80000305176</ele>
        <time>2021-08-08T07:21:53.000Z</time>
      </trkpt>
      <trkpt lat="50.63483" lon="5.34106">
        <ele>173</ele>
        <time>2021-08-08T07:21:57.000Z</time>
      </trkpt>
      <trkpt lat="50.63484" lon="5.34029">
        <ele>173.19999694824</ele>
        <time>2021-08-08T07:22:05.000Z</time>
      </trkpt>
      <trkpt lat="50.63485" lon="5.33947">
        <ele>173</ele>
        <time>2021-08-08T07:22:13.000Z</time>
      </trkpt>
      <trkpt lat="50.63486" lon="5.33814">
        <ele>172.39999389648</ele>
        <time>2021-08-08T07:22:26.000Z</time>
      </trkpt>
      <trkpt lat="50.63487" lon="5.33722">
        <ele>171.60000610352</ele>
        <time>2021-08-08T07:22:35.000Z</time>
      </trkpt>
      <trkpt lat="50.63492" lon="5.33638">
        <ele>170.60000610352</ele>
        <time>2021-08-08T07:22:44.000Z</time>
      </trkpt>
      <trkpt lat="50.63494" lon="5.33613">
        <ele>170.39999389648</ele>
        <time>2021-08-08T07:22:47.000Z</time>
      </trkpt>
      <trkpt lat="50.63488" lon="5.336">
        <ele>170.39999389648</ele>
        <time>2021-08-08T07:22:49.000Z</time>
      </trkpt>
      <trkpt lat="50.63433" lon="5.33585">
        <ele>170</ele>
        <time>2021-08-08T07:22:58.000Z</time>
      </trkpt>
      <trkpt lat="50.63384" lon="5.33575">
        <ele>169.60000610352</ele>
        <time>2021-08-08T07:23:06.000Z</time>
      </trkpt>
      <trkpt lat="50.63348" lon="5.33569">
        <ele>169.39999389648</ele>
        <time>2021-08-08T07:23:12.000Z</time>
      </trkpt>
      <trkpt lat="50.63318" lon="5.33562">
        <ele>169.60000610352</ele>
        <time>2021-08-08T07:23:17.000Z</time>
      </trkpt>
      <trkpt lat="50.63245" lon="5.33543">
        <ele>169.80000305176</ele>
        <time>2021-08-08T07:23:29.000Z</time>
      </trkpt>
      <trkpt lat="50.63191" lon="5.33527">
        <ele>170.39999389648</ele>
        <time>2021-08-08T07:23:38.000Z</time>
      </trkpt>
      <trkpt lat="50.63167" lon="5.33519">
        <ele>170.39999389648</ele>
        <time>2021-08-08T07:23:42.000Z</time>
      </trkpt>
      <trkpt lat="50.63132" lon="5.335">
        <ele>169.60000610352</ele>
        <time>2021-08-08T07:23:48.000Z</time>
      </trkpt>
      <trkpt lat="50.63099" lon="5.33453">
        <ele>168.80000305176</ele>
        <time>2021-08-08T07:23:55.000Z</time>
      </trkpt>
      <trkpt lat="50.6309" lon="5.33425">
        <ele>168.60000610352</ele>
        <time>2021-08-08T07:23:58.000Z</time>
      </trkpt>
      <trkpt lat="50.63078" lon="5.33365">
        <ele>168</ele>
        <time>2021-08-08T07:24:04.000Z</time>
      </trkpt>
      <trkpt lat="50.63062" lon="5.33294">
        <ele>166.19999694824</ele>
        <time>2021-08-08T07:24:11.000Z</time>
      </trkpt>
      <trkpt lat="50.63058" lon="5.33271">
        <ele>165.60000610352</ele>
        <time>2021-08-08T07:24:13.000Z</time>
      </trkpt>
      <trkpt lat="50.63052" lon="5.33226">
        <ele>165</ele>
        <time>2021-08-08T07:24:17.000Z</time>
      </trkpt>
      <trkpt lat="50.63048" lon="5.33192">
        <ele>163.60000610352</ele>
        <time>2021-08-08T07:24:20.000Z</time>
      </trkpt>
      <trkpt lat="50.63046" lon="5.33168">
        <ele>163.19999694824</ele>
        <time>2021-08-08T07:24:22.000Z</time>
      </trkpt>
      <trkpt lat="50.63044" lon="5.33156">
        <ele>162.60000610352</ele>
        <time>2021-08-08T07:24:23.000Z</time>
      </trkpt>
      <trkpt lat="50.63039" lon="5.33092">
        <ele>161.19999694824</ele>
        <time>2021-08-08T07:24:28.000Z</time>
      </trkpt>
      <trkpt lat="50.63033" lon="5.33012">
        <ele>157.19999694824</ele>
        <time>2021-08-08T07:24:34.000Z</time>
      </trkpt>
      <trkpt lat="50.63025" lon="5.32974">
        <ele>155.80000305176</ele>
        <time>2021-08-08T07:24:37.000Z</time>
      </trkpt>
      <trkpt lat="50.6302" lon="5.32962">
        <ele>155.60000610352</ele>
        <time>2021-08-08T07:24:38.000Z</time>
      </trkpt>
      <trkpt lat="50.62994" lon="5.32919">
        <ele>153.19999694824</ele>
        <time>2021-08-08T07:24:44.000Z</time>
      </trkpt>
      <trkpt lat="50.6299" lon="5.32918">
        <ele>153</ele>
        <time>2021-08-08T07:24:45.000Z</time>
      </trkpt>
      <trkpt lat="50.62975" lon="5.3293">
        <ele>151.39999389648</ele>
        <time>2021-08-08T07:24:48.000Z</time>
      </trkpt>
      <trkpt lat="50.62935" lon="5.32969">
        <ele>151.19999694824</ele>
        <time>2021-08-08T07:24:56.000Z</time>
      </trkpt>
      <trkpt lat="50.62907" lon="5.32988">
        <ele>151.19999694824</ele>
        <time>2021-08-08T07:25:01.000Z</time>
      </trkpt>
      <trkpt lat="50.62842" lon="5.33014">
        <ele>152.60000610352</ele>
        <time>2021-08-08T07:25:12.000Z</time>
      </trkpt>
      <trkpt lat="50.62836" lon="5.33015">
        <ele>152.60000610352</ele>
        <time>2021-08-08T07:25:13.000Z</time>
      </trkpt>
      <trkpt lat="50.62761" lon="5.33031">
        <ele>153.19999694824</ele>
        <time>2021-08-08T07:25:26.000Z</time>
      </trkpt>
      <trkpt lat="50.62755" lon="5.3303">
        <ele>153.19999694824</ele>
        <time>2021-08-08T07:25:27.000Z</time>
      </trkpt>
      <trkpt lat="50.62739" lon="5.33018">
        <ele>153.39999389648</ele>
        <time>2021-08-08T07:25:30.000Z</time>
      </trkpt>
      <trkpt lat="50.6273" lon="5.33004">
        <ele>153.60000610352</ele>
        <time>2021-08-08T07:25:32.000Z</time>
      </trkpt>
      <trkpt lat="50.62713" lon="5.32961">
        <ele>153.60000610352</ele>
        <time>2021-08-08T07:25:37.000Z</time>
      </trkpt>
      <trkpt lat="50.62706" lon="5.32942">
        <ele>153.80000305176</ele>
        <time>2021-08-08T07:25:39.000Z</time>
      </trkpt>
      <trkpt lat="50.62684" lon="5.32881">
        <ele>153.19999694824</ele>
        <time>2021-08-08T07:25:45.000Z</time>
      </trkpt>
      <trkpt lat="50.62677" lon="5.32859">
        <ele>152.80000305176</ele>
        <time>2021-08-08T07:25:47.000Z</time>
      </trkpt>
      <trkpt lat="50.62652" lon="5.3279">
        <ele>150.39999389648</ele>
        <time>2021-08-08T07:25:53.000Z</time>
      </trkpt>
      <trkpt lat="50.62628" lon="5.32726">
        <ele>147.60000610352</ele>
        <time>2021-08-08T07:25:59.000Z</time>
      </trkpt>
      <trkpt lat="50.62621" lon="5.32707">
        <ele>147.39999389648</ele>
        <time>2021-08-08T07:26:01.000Z</time>
      </trkpt>
      <trkpt lat="50.62611" lon="5.3268">
        <ele>147.60000610352</ele>
        <time>2021-08-08T07:26:04.000Z</time>
      </trkpt>
      <trkpt lat="50.62596" lon="5.32639">
        <ele>147.80000305176</ele>
        <time>2021-08-08T07:26:09.000Z</time>
      </trkpt>
      <trkpt lat="50.62577" lon="5.32585">
        <ele>150</ele>
        <time>2021-08-08T07:26:16.000Z</time>
      </trkpt>
      <trkpt lat="50.6257" lon="5.32563">
        <ele>150.39999389648</ele>
        <time>2021-08-08T07:26:19.000Z</time>
      </trkpt>
      <trkpt lat="50.62549" lon="5.32506">
        <ele>152.80000305176</ele>
        <time>2021-08-08T07:26:27.000Z</time>
      </trkpt>
      <trkpt lat="50.62539" lon="5.3248">
        <ele>153.80000305176</ele>
        <time>2021-08-08T07:26:31.000Z</time>
      </trkpt>
      <trkpt lat="50.62531" lon="5.32473">
        <ele>154.19999694824</ele>
        <time>2021-08-08T07:26:33.000Z</time>
      </trkpt>
      <trkpt lat="50.62513" lon="5.32488">
        <ele>154.60000610352</ele>
        <time>2021-08-08T07:26:37.000Z</time>
      </trkpt>
      <trkpt lat="50.62504" lon="5.32502">
        <ele>154.60000610352</ele>
        <time>2021-08-08T07:26:39.000Z</time>
      </trkpt>
      <trkpt lat="50.62473" lon="5.32545">
        <ele>154.60000610352</ele>
        <time>2021-08-08T07:26:45.000Z</time>
      </trkpt>
      <trkpt lat="50.62468" lon="5.32553">
        <ele>154.19999694824</ele>
        <time>2021-08-08T07:26:46.000Z</time>
      </trkpt>
      <trkpt lat="50.62445" lon="5.32583">
        <ele>153</ele>
        <time>2021-08-08T07:26:50.000Z</time>
      </trkpt>
      <trkpt lat="50.62422" lon="5.32616">
        <ele>151.60000610352</ele>
        <time>2021-08-08T07:26:54.000Z</time>
      </trkpt>
      <trkpt lat="50.62369" lon="5.3267">
        <ele>148.80000305176</ele>
        <time>2021-08-08T07:27:03.000Z</time>
      </trkpt>
      <trkpt lat="50.62341" lon="5.32686">
        <ele>148.39999389648</ele>
        <time>2021-08-08T07:27:08.000Z</time>
      </trkpt>
      <trkpt lat="50.6231" lon="5.32701">
        <ele>149</ele>
        <time>2021-08-08T07:27:14.000Z</time>
      </trkpt>
      <trkpt lat="50.623" lon="5.32705">
        <ele>149.19999694824</ele>
        <time>2021-08-08T07:27:16.000Z</time>
      </trkpt>
      <trkpt lat="50.62245" lon="5.32735">
        <ele>152.19999694824</ele>
        <time>2021-08-08T07:27:27.000Z</time>
      </trkpt>
      <trkpt lat="50.62235" lon="5.32741">
        <ele>152.60000610352</ele>
        <time>2021-08-08T07:27:29.000Z</time>
      </trkpt>
      <trkpt lat="50.62178" lon="5.32772">
        <ele>154.80000305176</ele>
        <time>2021-08-08T07:27:40.000Z</time>
      </trkpt>
      <trkpt lat="50.62162" lon="5.32774">
        <ele>155.19999694824</ele>
        <time>2021-08-08T07:27:43.000Z</time>
      </trkpt>
      <trkpt lat="50.62157" lon="5.32773">
        <ele>155.19999694824</ele>
        <time>2021-08-08T07:27:44.000Z</time>
      </trkpt>
      <trkpt lat="50.62104" lon="5.32759">
        <ele>156.19999694824</ele>
        <time>2021-08-08T07:27:54.000Z</time>
      </trkpt>
      <trkpt lat="50.62099" lon="5.32757">
        <ele>156.19999694824</ele>
        <time>2021-08-08T07:27:55.000Z</time>
      </trkpt>
      <trkpt lat="50.62053" lon="5.32747">
        <ele>157.39999389648</ele>
        <time>2021-08-08T07:28:04.000Z</time>
      </trkpt>
      <trkpt lat="50.62027" lon="5.3274">
        <ele>158.19999694824</ele>
        <time>2021-08-08T07:28:09.000Z</time>
      </trkpt>
      <trkpt lat="50.61971" lon="5.32725">
        <ele>160.60000610352</ele>
        <time>2021-08-08T07:28:20.000Z</time>
      </trkpt>
      <trkpt lat="50.61966" lon="5.32723">
        <ele>161</ele>
        <time>2021-08-08T07:28:21.000Z</time>
      </trkpt>
      <trkpt lat="50.6194" lon="5.32715">
        <ele>161.19999694824</ele>
        <time>2021-08-08T07:28:26.000Z</time>
      </trkpt>
      <trkpt lat="50.61924" lon="5.3271">
        <ele>161.39999389648</ele>
        <time>2021-08-08T07:28:29.000Z</time>
      </trkpt>
      <trkpt lat="50.61891" lon="5.32698">
        <ele>161.60000610352</ele>
        <time>2021-08-08T07:28:35.000Z</time>
      </trkpt>
      <trkpt lat="50.61871" lon="5.3269">
        <ele>161.80000305176</ele>
        <time>2021-08-08T07:28:39.000Z</time>
      </trkpt>
      <trkpt lat="50.6186" lon="5.32686">
        <ele>161.80000305176</ele>
        <time>2021-08-08T07:28:41.000Z</time>
      </trkpt>
      <trkpt lat="50.61795" lon="5.3266">
        <ele>162.39999389648</ele>
        <time>2021-08-08T07:28:53.000Z</time>
      </trkpt>
      <trkpt lat="50.61784" lon="5.32656">
        <ele>162.80000305176</ele>
        <time>2021-08-08T07:28:55.000Z</time>
      </trkpt>
      <trkpt lat="50.61727" lon="5.32635">
        <ele>163.80000305176</ele>
        <time>2021-08-08T07:29:05.000Z</time>
      </trkpt>
      <trkpt lat="50.61716" lon="5.3263">
        <ele>163.80000305176</ele>
        <time>2021-08-08T07:29:07.000Z</time>
      </trkpt>
      <trkpt lat="50.6167" lon="5.32594">
        <ele>164.39999389648</ele>
        <time>2021-08-08T07:29:15.000Z</time>
      </trkpt>
      <trkpt lat="50.61661" lon="5.32577">
        <ele>164.19999694824</ele>
        <time>2021-08-08T07:29:17.000Z</time>
      </trkpt>
      <trkpt lat="50.61622" lon="5.32515">
        <ele>164</ele>
        <time>2021-08-08T07:29:26.000Z</time>
      </trkpt>
      <trkpt lat="50.61612" lon="5.32503">
        <ele>164</ele>
        <time>2021-08-08T07:29:28.000Z</time>
      </trkpt>
      <trkpt lat="50.61587" lon="5.32475">
        <ele>163.80000305176</ele>
        <time>2021-08-08T07:29:33.000Z</time>
      </trkpt>
      <trkpt lat="50.6154" lon="5.32428">
        <ele>164</ele>
        <time>2021-08-08T07:29:42.000Z</time>
      </trkpt>
      <trkpt lat="50.61535" lon="5.32422">
        <ele>164</ele>
        <time>2021-08-08T07:29:43.000Z</time>
      </trkpt>
      <trkpt lat="50.61497" lon="5.32387">
        <ele>164</ele>
        <time>2021-08-08T07:29:50.000Z</time>
      </trkpt>
      <trkpt lat="50.61452" lon="5.3235">
        <ele>163.60000610352</ele>
        <time>2021-08-08T07:29:58.000Z</time>
      </trkpt>
      <trkpt lat="50.61399" lon="5.32302">
        <ele>162.80000305176</ele>
        <time>2021-08-08T07:30:07.000Z</time>
      </trkpt>
      <trkpt lat="50.61398" lon="5.32294">
        <ele>162.19999694824</ele>
        <time>2021-08-08T07:30:08.000Z</time>
      </trkpt>
      <trkpt lat="50.61406" lon="5.32256">
        <ele>161.19999694824</ele>
        <time>2021-08-08T07:30:12.000Z</time>
      </trkpt>
      <trkpt lat="50.61408" lon="5.32245">
        <ele>161</ele>
        <time>2021-08-08T07:30:13.000Z</time>
      </trkpt>
      <trkpt lat="50.61405" lon="5.32201">
        <ele>160</ele>
        <time>2021-08-08T07:30:17.000Z</time>
      </trkpt>
      <trkpt lat="50.614" lon="5.32181">
        <ele>159.60000610352</ele>
        <time>2021-08-08T07:30:19.000Z</time>
      </trkpt>
      <trkpt lat="50.61387" lon="5.32032">
        <ele>156.60000610352</ele>
        <time>2021-08-08T07:30:34.000Z</time>
      </trkpt>
      <trkpt lat="50.61394" lon="5.31967">
        <ele>157</ele>
        <time>2021-08-08T07:30:41.000Z</time>
      </trkpt>
      <trkpt lat="50.61397" lon="5.31949">
        <ele>157.19999694824</ele>
        <time>2021-08-08T07:30:43.000Z</time>
      </trkpt>
      <trkpt lat="50.61409" lon="5.31843">
        <ele>159</ele>
        <time>2021-08-08T07:30:55.000Z</time>
      </trkpt>
      <trkpt lat="50.61407" lon="5.31826">
        <ele>159.19999694824</ele>
        <time>2021-08-08T07:30:57.000Z</time>
      </trkpt>
      <trkpt lat="50.61399" lon="5.3174">
        <ele>161.19999694824</ele>
        <time>2021-08-08T07:31:08.000Z</time>
      </trkpt>
      <trkpt lat="50.61399" lon="5.31732">
        <ele>161.60000610352</ele>
        <time>2021-08-08T07:31:09.000Z</time>
      </trkpt>
      <trkpt lat="50.61395" lon="5.31708">
        <ele>161.60000610352</ele>
        <time>2021-08-08T07:31:12.000Z</time>
      </trkpt>
      <trkpt lat="50.61392" lon="5.31692">
        <ele>162</ele>
        <time>2021-08-08T07:31:14.000Z</time>
      </trkpt>
      <trkpt lat="50.61387" lon="5.31677">
        <ele>162.39999389648</ele>
        <time>2021-08-08T07:31:16.000Z</time>
      </trkpt>
      <trkpt lat="50.61366" lon="5.31637">
        <ele>164.60000610352</ele>
        <time>2021-08-08T07:31:22.000Z</time>
      </trkpt>
      <trkpt lat="50.61324" lon="5.31563">
        <ele>165.60000610352</ele>
        <time>2021-08-08T07:31:33.000Z</time>
      </trkpt>
      <trkpt lat="50.61309" lon="5.31535">
        <ele>165.80000305176</ele>
        <time>2021-08-08T07:31:37.000Z</time>
      </trkpt>
      <trkpt lat="50.61272" lon="5.31466">
        <ele>165.80000305176</ele>
        <time>2021-08-08T07:31:47.000Z</time>
      </trkpt>
      <trkpt lat="50.61255" lon="5.31406">
        <ele>165.60000610352</ele>
        <time>2021-08-08T07:31:54.000Z</time>
      </trkpt>
      <trkpt lat="50.61243" lon="5.31364">
        <ele>165.80000305176</ele>
        <time>2021-08-08T07:31:59.000Z</time>
      </trkpt>
      <trkpt lat="50.61233" lon="5.31341">
        <ele>165.80000305176</ele>
        <time>2021-08-08T07:32:02.000Z</time>
      </trkpt>
      <trkpt lat="50.61212" lon="5.31296">
        <ele>166.19999694824</ele>
        <time>2021-08-08T07:32:08.000Z</time>
      </trkpt>
      <trkpt lat="50.61193" lon="5.31276">
        <ele>166.39999389648</ele>
        <time>2021-08-08T07:32:12.000Z</time>
      </trkpt>
      <trkpt lat="50.61187" lon="5.31273">
        <ele>166.60000610352</ele>
        <time>2021-08-08T07:32:13.000Z</time>
      </trkpt>
      <trkpt lat="50.61139" lon="5.31254">
        <ele>167.19999694824</ele>
        <time>2021-08-08T07:32:22.000Z</time>
      </trkpt>
      <trkpt lat="50.61118" lon="5.31248">
        <ele>167.39999389648</ele>
        <time>2021-08-08T07:32:26.000Z</time>
      </trkpt>
      <trkpt lat="50.6109" lon="5.31235">
        <ele>169</ele>
        <time>2021-08-08T07:32:32.000Z</time>
      </trkpt>
      <trkpt lat="50.61086" lon="5.31231">
        <ele>169</ele>
        <time>2021-08-08T07:32:33.000Z</time>
      </trkpt>
      <trkpt lat="50.61078" lon="5.31209">
        <ele>169.39999389648</ele>
        <time>2021-08-08T07:32:37.000Z</time>
      </trkpt>
      <trkpt lat="50.61062" lon="5.31192">
        <ele>169.80000305176</ele>
        <time>2021-08-08T07:32:41.000Z</time>
      </trkpt>
      <trkpt lat="50.61052" lon="5.31184">
        <ele>170.19999694824</ele>
        <time>2021-08-08T07:32:43.000Z</time>
      </trkpt>
      <trkpt lat="50.61006" lon="5.31167">
        <ele>171.19999694824</ele>
        <time>2021-08-08T07:32:52.000Z</time>
      </trkpt>
      <trkpt lat="50.61001" lon="5.31169">
        <ele>171.19999694824</ele>
        <time>2021-08-08T07:32:53.000Z</time>
      </trkpt>
      <trkpt lat="50.6098" lon="5.31188">
        <ele>171.39999389648</ele>
        <time>2021-08-08T07:32:57.000Z</time>
      </trkpt>
      <trkpt lat="50.60966" lon="5.31211">
        <ele>171.19999694824</ele>
        <time>2021-08-08T07:33:00.000Z</time>
      </trkpt>
      <trkpt lat="50.60947" lon="5.31243">
        <ele>171.19999694824</ele>
        <time>2021-08-08T07:33:04.000Z</time>
      </trkpt>
      <trkpt lat="50.60909" lon="5.31303">
        <ele>170</ele>
        <time>2021-08-08T07:33:12.000Z</time>
      </trkpt>
      <trkpt lat="50.60889" lon="5.3133">
        <ele>169.60000610352</ele>
        <time>2021-08-08T07:33:16.000Z</time>
      </trkpt>
      <trkpt lat="50.60862" lon="5.31362">
        <ele>169.39999389648</ele>
        <time>2021-08-08T07:33:21.000Z</time>
      </trkpt>
      <trkpt lat="50.60783" lon="5.31408">
        <ele>168.39999389648</ele>
        <time>2021-08-08T07:33:34.000Z</time>
      </trkpt>
      <trkpt lat="50.60729" lon="5.31415">
        <ele>168.39999389648</ele>
        <time>2021-08-08T07:33:43.000Z</time>
      </trkpt>
      <trkpt lat="50.60712" lon="5.3142">
        <ele>169.19999694824</ele>
        <time>2021-08-08T07:33:47.000Z</time>
      </trkpt>
      <trkpt lat="50.60708" lon="5.31439">
        <ele>169.39999389648</ele>
        <time>2021-08-08T07:33:50.000Z</time>
      </trkpt>
      <trkpt lat="50.60709" lon="5.31493">
        <ele>169.80000305176</ele>
        <time>2021-08-08T07:33:56.000Z</time>
      </trkpt>
      <trkpt lat="50.60717" lon="5.31549">
        <ele>169.80000305176</ele>
        <time>2021-08-08T07:34:02.000Z</time>
      </trkpt>
      <trkpt lat="50.60722" lon="5.31612">
        <ele>169.19999694824</ele>
        <time>2021-08-08T07:34:08.000Z</time>
      </trkpt>
      <trkpt lat="50.6071" lon="5.31745">
        <ele>168.19999694824</ele>
        <time>2021-08-08T07:34:21.000Z</time>
      </trkpt>
      <trkpt lat="50.60706" lon="5.31753">
        <ele>168.19999694824</ele>
        <time>2021-08-08T07:34:22.000Z</time>
      </trkpt>
      <trkpt lat="50.60677" lon="5.31758">
        <ele>167.80000305176</ele>
        <time>2021-08-08T07:34:27.000Z</time>
      </trkpt>
      <trkpt lat="50.60659" lon="5.3175">
        <ele>167.80000305176</ele>
        <time>2021-08-08T07:34:30.000Z</time>
      </trkpt>
      <trkpt lat="50.60629" lon="5.31737">
        <ele>166.19999694824</ele>
        <time>2021-08-08T07:34:35.000Z</time>
      </trkpt>
      <trkpt lat="50.60598" lon="5.31729">
        <ele>166.39999389648</ele>
        <time>2021-08-08T07:34:40.000Z</time>
      </trkpt>
      <trkpt lat="50.60567" lon="5.31726">
        <ele>166.39999389648</ele>
        <time>2021-08-08T07:34:45.000Z</time>
      </trkpt>
      <trkpt lat="50.60537" lon="5.31721">
        <ele>166.80000305176</ele>
        <time>2021-08-08T07:34:50.000Z</time>
      </trkpt>
      <trkpt lat="50.60524" lon="5.31719">
        <ele>167.19999694824</ele>
        <time>2021-08-08T07:34:52.000Z</time>
      </trkpt>
      <trkpt lat="50.60486" lon="5.3171">
        <ele>167.39999389648</ele>
        <time>2021-08-08T07:34:58.000Z</time>
      </trkpt>
      <trkpt lat="50.60473" lon="5.31709">
        <ele>167.60000610352</ele>
        <time>2021-08-08T07:35:00.000Z</time>
      </trkpt>
      <trkpt lat="50.60461" lon="5.31714">
        <ele>167.60000610352</ele>
        <time>2021-08-08T07:35:02.000Z</time>
      </trkpt>
      <trkpt lat="50.60455" lon="5.31719">
        <ele>167.60000610352</ele>
        <time>2021-08-08T07:35:03.000Z</time>
      </trkpt>
      <trkpt lat="50.60428" lon="5.31745">
        <ele>167.60000610352</ele>
        <time>2021-08-08T07:35:08.000Z</time>
      </trkpt>
      <trkpt lat="50.60416" lon="5.31751">
        <ele>167.60000610352</ele>
        <time>2021-08-08T07:35:10.000Z</time>
      </trkpt>
      <trkpt lat="50.60397" lon="5.31754">
        <ele>167.60000610352</ele>
        <time>2021-08-08T07:35:13.000Z</time>
      </trkpt>
      <trkpt lat="50.60379" lon="5.31752">
        <ele>167.80000305176</ele>
        <time>2021-08-08T07:35:16.000Z</time>
      </trkpt>
      <trkpt lat="50.60273" lon="5.31733">
        <ele>168.19999694824</ele>
        <time>2021-08-08T07:35:33.000Z</time>
      </trkpt>
      <trkpt lat="50.60217" lon="5.31742">
        <ele>168.19999694824</ele>
        <time>2021-08-08T07:35:42.000Z</time>
      </trkpt>
      <trkpt lat="50.60205" lon="5.31738">
        <ele>168.19999694824</ele>
        <time>2021-08-08T07:35:44.000Z</time>
      </trkpt>
      <trkpt lat="50.60194" lon="5.3173">
        <ele>168.19999694824</ele>
        <time>2021-08-08T07:35:46.000Z</time>
      </trkpt>
      <trkpt lat="50.60185" lon="5.31718">
        <ele>168.19999694824</ele>
        <time>2021-08-08T07:35:48.000Z</time>
      </trkpt>
      <trkpt lat="50.60173" lon="5.31698">
        <ele>168.39999389648</ele>
        <time>2021-08-08T07:35:51.000Z</time>
      </trkpt>
      <trkpt lat="50.60158" lon="5.3167">
        <ele>168.80000305176</ele>
        <time>2021-08-08T07:35:55.000Z</time>
      </trkpt>
      <trkpt lat="50.60108" lon="5.31567">
        <ele>169.60000610352</ele>
        <time>2021-08-08T07:36:09.000Z</time>
      </trkpt>
      <trkpt lat="50.60093" lon="5.31539">
        <ele>170</ele>
        <time>2021-08-08T07:36:13.000Z</time>
      </trkpt>
      <trkpt lat="50.60086" lon="5.31525">
        <ele>170.19999694824</ele>
        <time>2021-08-08T07:36:15.000Z</time>
      </trkpt>
      <trkpt lat="50.60066" lon="5.31477">
        <ele>170.39999389648</ele>
        <time>2021-08-08T07:36:21.000Z</time>
      </trkpt>
      <trkpt lat="50.60029" lon="5.31395">
        <ele>172</ele>
        <time>2021-08-08T07:36:32.000Z</time>
      </trkpt>
      <trkpt lat="50.60002" lon="5.31336">
        <ele>173</ele>
        <time>2021-08-08T07:36:40.000Z</time>
      </trkpt>
      <trkpt lat="50.59988" lon="5.31305">
        <ele>173.60000610352</ele>
        <time>2021-08-08T07:36:44.000Z</time>
      </trkpt>
      <trkpt lat="50.59975" lon="5.31275">
        <ele>173.60000610352</ele>
        <time>2021-08-08T07:36:48.000Z</time>
      </trkpt>
      <trkpt lat="50.59968" lon="5.3126">
        <ele>173.80000305176</ele>
        <time>2021-08-08T07:36:50.000Z</time>
      </trkpt>
      <trkpt lat="50.59928" lon="5.31172">
        <ele>175.39999389648</ele>
        <time>2021-08-08T07:37:02.000Z</time>
      </trkpt>
      <trkpt lat="50.59914" lon="5.31143">
        <ele>176</ele>
        <time>2021-08-08T07:37:06.000Z</time>
      </trkpt>
      <trkpt lat="50.59897" lon="5.31106">
        <ele>176.39999389648</ele>
        <time>2021-08-08T07:37:11.000Z</time>
      </trkpt>
      <trkpt lat="50.59891" lon="5.3109">
        <ele>176.80000305176</ele>
        <time>2021-08-08T07:37:13.000Z</time>
      </trkpt>
      <trkpt lat="50.5986" lon="5.31021">
        <ele>177.80000305176</ele>
        <time>2021-08-08T07:37:22.000Z</time>
      </trkpt>
      <trkpt lat="50.59845" lon="5.3099">
        <ele>178</ele>
        <time>2021-08-08T07:37:26.000Z</time>
      </trkpt>
      <trkpt lat="50.59807" lon="5.30902">
        <ele>178.60000610352</ele>
        <time>2021-08-08T07:37:37.000Z</time>
      </trkpt>
      <trkpt lat="50.59797" lon="5.30864">
        <ele>178.60000610352</ele>
        <time>2021-08-08T07:37:41.000Z</time>
      </trkpt>
      <trkpt lat="50.59789" lon="5.30815">
        <ele>179.19999694824</ele>
        <time>2021-08-08T07:37:46.000Z</time>
      </trkpt>
      <trkpt lat="50.5977" lon="5.3072">
        <ele>179.19999694824</ele>
        <time>2021-08-08T07:37:56.000Z</time>
      </trkpt>
      <trkpt lat="50.59757" lon="5.30674">
        <ele>179.19999694824</ele>
        <time>2021-08-08T07:38:01.000Z</time>
      </trkpt>
      <trkpt lat="50.59726" lon="5.30589">
        <ele>179.60000610352</ele>
        <time>2021-08-08T07:38:11.000Z</time>
      </trkpt>
      <trkpt lat="50.59698" lon="5.30514">
        <ele>179.19999694824</ele>
        <time>2021-08-08T07:38:20.000Z</time>
      </trkpt>
      <trkpt lat="50.59689" lon="5.30489">
        <ele>179.39999389648</ele>
        <time>2021-08-08T07:38:23.000Z</time>
      </trkpt>
      <trkpt lat="50.59682" lon="5.30472">
        <ele>179.39999389648</ele>
        <time>2021-08-08T07:38:25.000Z</time>
      </trkpt>
      <trkpt lat="50.59677" lon="5.30456">
        <ele>179.19999694824</ele>
        <time>2021-08-08T07:38:27.000Z</time>
      </trkpt>
      <trkpt lat="50.59673" lon="5.30448">
        <ele>179.19999694824</ele>
        <time>2021-08-08T07:38:28.000Z</time>
      </trkpt>
      <trkpt lat="50.59663" lon="5.30425">
        <ele>179.39999389648</ele>
        <time>2021-08-08T07:38:31.000Z</time>
      </trkpt>
      <trkpt lat="50.59659" lon="5.30418">
        <ele>179.19999694824</ele>
        <time>2021-08-08T07:38:32.000Z</time>
      </trkpt>
      <trkpt lat="50.59626" lon="5.30356">
        <ele>180.19999694824</ele>
        <time>2021-08-08T07:38:41.000Z</time>
      </trkpt>
      <trkpt lat="50.59594" lon="5.303">
        <ele>180.80000305176</ele>
        <time>2021-08-08T07:38:49.000Z</time>
      </trkpt>
      <trkpt lat="50.59582" lon="5.30279">
        <ele>181</ele>
        <time>2021-08-08T07:38:52.000Z</time>
      </trkpt>
      <trkpt lat="50.59566" lon="5.3025">
        <ele>181.19999694824</ele>
        <time>2021-08-08T07:38:56.000Z</time>
      </trkpt>
      <trkpt lat="50.59545" lon="5.30213">
        <ele>182</ele>
        <time>2021-08-08T07:39:01.000Z</time>
      </trkpt>
      <trkpt lat="50.59532" lon="5.30191">
        <ele>182</ele>
        <time>2021-08-08T07:39:04.000Z</time>
      </trkpt>
      <trkpt lat="50.59507" lon="5.30147">
        <ele>182</ele>
        <time>2021-08-08T07:39:10.000Z</time>
      </trkpt>
      <trkpt lat="50.59486" lon="5.30108">
        <ele>180.60000610352</ele>
        <time>2021-08-08T07:39:15.000Z</time>
      </trkpt>
      <trkpt lat="50.59452" lon="5.30033">
        <ele>179.80000305176</ele>
        <time>2021-08-08T07:39:24.000Z</time>
      </trkpt>
      <trkpt lat="50.59414" lon="5.29958">
        <ele>179.19999694824</ele>
        <time>2021-08-08T07:39:33.000Z</time>
      </trkpt>
      <trkpt lat="50.59409" lon="5.2995">
        <ele>179.19999694824</ele>
        <time>2021-08-08T07:39:34.000Z</time>
      </trkpt>
      <trkpt lat="50.59391" lon="5.29921">
        <ele>179.19999694824</ele>
        <time>2021-08-08T07:39:38.000Z</time>
      </trkpt>
      <trkpt lat="50.59349" lon="5.29874">
        <ele>179.39999389648</ele>
        <time>2021-08-08T07:39:46.000Z</time>
      </trkpt>
      <trkpt lat="50.59343" lon="5.2987">
        <ele>180</ele>
        <time>2021-08-08T07:39:47.000Z</time>
      </trkpt>
      <trkpt lat="50.59314" lon="5.2986">
        <ele>181.19999694824</ele>
        <time>2021-08-08T07:39:52.000Z</time>
      </trkpt>
      <trkpt lat="50.59308" lon="5.2986">
        <ele>181</ele>
        <time>2021-08-08T07:39:53.000Z</time>
      </trkpt>
      <trkpt lat="50.59245" lon="5.2987">
        <ele>183.80000305176</ele>
        <time>2021-08-08T07:40:04.000Z</time>
      </trkpt>
      <trkpt lat="50.59216" lon="5.29876">
        <ele>185.60000610352</ele>
        <time>2021-08-08T07:40:09.000Z</time>
      </trkpt>
      <trkpt lat="50.5918" lon="5.2988">
        <ele>185.80000305176</ele>
        <time>2021-08-08T07:40:15.000Z</time>
      </trkpt>
      <trkpt lat="50.59174" lon="5.29878">
        <ele>186</ele>
        <time>2021-08-08T07:40:16.000Z</time>
      </trkpt>
      <trkpt lat="50.59163" lon="5.2987">
        <ele>186</ele>
        <time>2021-08-08T07:40:18.000Z</time>
      </trkpt>
      <trkpt lat="50.59158" lon="5.29863">
        <ele>186</ele>
        <time>2021-08-08T07:40:19.000Z</time>
      </trkpt>
      <trkpt lat="50.59148" lon="5.29836">
        <ele>185.80000305176</ele>
        <time>2021-08-08T07:40:22.000Z</time>
      </trkpt>
      <trkpt lat="50.59146" lon="5.29814">
        <ele>185</ele>
        <time>2021-08-08T07:40:24.000Z</time>
      </trkpt>
      <trkpt lat="50.59144" lon="5.29779">
        <ele>184.60000610352</ele>
        <time>2021-08-08T07:40:27.000Z</time>
      </trkpt>
      <trkpt lat="50.59137" lon="5.29687">
        <ele>182.80000305176</ele>
        <time>2021-08-08T07:40:35.000Z</time>
      </trkpt>
      <trkpt lat="50.59134" lon="5.29641">
        <ele>182</ele>
        <time>2021-08-08T07:40:39.000Z</time>
      </trkpt>
      <trkpt lat="50.59129" lon="5.2956">
        <ele>180</ele>
        <time>2021-08-08T07:40:46.000Z</time>
      </trkpt>
      <trkpt lat="50.59127" lon="5.29537">
        <ele>179.80000305176</ele>
        <time>2021-08-08T07:40:48.000Z</time>
      </trkpt>
      <trkpt lat="50.59117" lon="5.29469">
        <ele>178.80000305176</ele>
        <time>2021-08-08T07:40:54.000Z</time>
      </trkpt>
      <trkpt lat="50.59097" lon="5.29408">
        <ele>176.19999694824</ele>
        <time>2021-08-08T07:41:00.000Z</time>
      </trkpt>
      <trkpt lat="50.59034" lon="5.29264">
        <ele>174.19999694824</ele>
        <time>2021-08-08T07:41:16.000Z</time>
      </trkpt>
      <trkpt lat="50.59019" lon="5.2923">
        <ele>174</ele>
        <time>2021-08-08T07:41:20.000Z</time>
      </trkpt>
      <trkpt lat="50.59003" lon="5.29196">
        <ele>174</ele>
        <time>2021-08-08T07:41:24.000Z</time>
      </trkpt>
      <trkpt lat="50.58983" lon="5.29154">
        <ele>174</ele>
        <time>2021-08-08T07:41:29.000Z</time>
      </trkpt>
      <trkpt lat="50.58963" lon="5.29114">
        <ele>174</ele>
        <time>2021-08-08T07:41:34.000Z</time>
      </trkpt>
      <trkpt lat="50.5894" lon="5.29059">
        <ele>174</ele>
        <time>2021-08-08T07:41:41.000Z</time>
      </trkpt>
      <trkpt lat="50.58941" lon="5.2905">
        <ele>174.19999694824</ele>
        <time>2021-08-08T07:41:42.000Z</time>
      </trkpt>
      <trkpt lat="50.58958" lon="5.29024">
        <ele>174.60000610352</ele>
        <time>2021-08-08T07:41:46.000Z</time>
      </trkpt>
      <trkpt lat="50.58982" lon="5.28992">
        <ele>174.60000610352</ele>
        <time>2021-08-08T07:41:51.000Z</time>
      </trkpt>
      <trkpt lat="50.59033" lon="5.28929">
        <ele>175</ele>
        <time>2021-08-08T07:42:01.000Z</time>
      </trkpt>
      <trkpt lat="50.59081" lon="5.28873">
        <ele>175</ele>
        <time>2021-08-08T07:42:10.000Z</time>
      </trkpt>
      <trkpt lat="50.59134" lon="5.28808">
        <ele>174.80000305176</ele>
        <time>2021-08-08T07:42:20.000Z</time>
      </trkpt>
      <trkpt lat="50.59145" lon="5.28796">
        <ele>174.80000305176</ele>
        <time>2021-08-08T07:42:22.000Z</time>
      </trkpt>
      <trkpt lat="50.59209" lon="5.28719">
        <ele>174.80000305176</ele>
        <time>2021-08-08T07:42:34.000Z</time>
      </trkpt>
      <trkpt lat="50.59214" lon="5.28712">
        <ele>174.80000305176</ele>
        <time>2021-08-08T07:42:35.000Z</time>
      </trkpt>
      <trkpt lat="50.59238" lon="5.28678">
        <ele>174.60000610352</ele>
        <time>2021-08-08T07:42:40.000Z</time>
      </trkpt>
      <trkpt lat="50.59281" lon="5.28619">
        <ele>176</ele>
        <time>2021-08-08T07:42:49.000Z</time>
      </trkpt>
      <trkpt lat="50.59285" lon="5.28612">
        <ele>176</ele>
        <time>2021-08-08T07:42:50.000Z</time>
      </trkpt>
      <trkpt lat="50.59329" lon="5.28547">
        <ele>178.39999389648</ele>
        <time>2021-08-08T07:43:00.000Z</time>
      </trkpt>
      <trkpt lat="50.59347" lon="5.28521">
        <ele>179.60000610352</ele>
        <time>2021-08-08T07:43:04.000Z</time>
      </trkpt>
      <trkpt lat="50.59396" lon="5.28448">
        <ele>182.60000610352</ele>
        <time>2021-08-08T07:43:15.000Z</time>
      </trkpt>
      <trkpt lat="50.59417" lon="5.284">
        <ele>183.39999389648</ele>
        <time>2021-08-08T07:43:21.000Z</time>
      </trkpt>
      <trkpt lat="50.59435" lon="5.28358">
        <ele>183.80000305176</ele>
        <time>2021-08-08T07:43:26.000Z</time>
      </trkpt>
      <trkpt lat="50.59456" lon="5.28306">
        <ele>184</ele>
        <time>2021-08-08T07:43:32.000Z</time>
      </trkpt>
      <trkpt lat="50.5949" lon="5.28224">
        <ele>183.39999389648</ele>
        <time>2021-08-08T07:43:41.000Z</time>
      </trkpt>
      <trkpt lat="50.59523" lon="5.28154">
        <ele>182.60000610352</ele>
        <time>2021-08-08T07:43:49.000Z</time>
      </trkpt>
      <trkpt lat="50.59565" lon="5.28096">
        <ele>182.39999389648</ele>
        <time>2021-08-08T07:43:57.000Z</time>
      </trkpt>
      <trkpt lat="50.59614" lon="5.28036">
        <ele>182.19999694824</ele>
        <time>2021-08-08T07:44:06.000Z</time>
      </trkpt>
      <trkpt lat="50.59635" lon="5.2801">
        <ele>182.39999389648</ele>
        <time>2021-08-08T07:44:10.000Z</time>
      </trkpt>
      <trkpt lat="50.59672" lon="5.27966">
        <ele>182.80000305176</ele>
        <time>2021-08-08T07:44:17.000Z</time>
      </trkpt>
      <trkpt lat="50.59693" lon="5.27941">
        <ele>183</ele>
        <time>2021-08-08T07:44:21.000Z</time>
      </trkpt>
      <trkpt lat="50.59734" lon="5.27891">
        <ele>184</ele>
        <time>2021-08-08T07:44:29.000Z</time>
      </trkpt>
      <trkpt lat="50.59759" lon="5.2786">
        <ele>184.60000610352</ele>
        <time>2021-08-08T07:44:34.000Z</time>
      </trkpt>
      <trkpt lat="50.59804" lon="5.27806">
        <ele>185.80000305176</ele>
        <time>2021-08-08T07:44:43.000Z</time>
      </trkpt>
      <trkpt lat="50.59849" lon="5.27751">
        <ele>187</ele>
        <time>2021-08-08T07:44:52.000Z</time>
      </trkpt>
      <trkpt lat="50.59933" lon="5.27649">
        <ele>187.60000610352</ele>
        <time>2021-08-08T07:45:08.000Z</time>
      </trkpt>
      <trkpt lat="50.59943" lon="5.27636">
        <ele>187.80000305176</ele>
        <time>2021-08-08T07:45:10.000Z</time>
      </trkpt>
      <trkpt lat="50.60036" lon="5.27547">
        <ele>187.60000610352</ele>
        <time>2021-08-08T07:45:26.000Z</time>
      </trkpt>
      <trkpt lat="50.60107" lon="5.27487">
        <ele>187.60000610352</ele>
        <time>2021-08-08T07:45:38.000Z</time>
      </trkpt>
      <trkpt lat="50.60113" lon="5.27482">
        <ele>187.80000305176</ele>
        <time>2021-08-08T07:45:39.000Z</time>
      </trkpt>
      <trkpt lat="50.60193" lon="5.27412">
        <ele>187.80000305176</ele>
        <time>2021-08-08T07:45:52.000Z</time>
      </trkpt>
      <trkpt lat="50.60213" lon="5.27394">
        <ele>187.39999389648</ele>
        <time>2021-08-08T07:45:55.000Z</time>
      </trkpt>
      <trkpt lat="50.60243" lon="5.27368">
        <ele>186.39999389648</ele>
        <time>2021-08-08T07:45:59.000Z</time>
      </trkpt>
      <trkpt lat="50.60251" lon="5.27361">
        <ele>186</ele>
        <time>2021-08-08T07:46:00.000Z</time>
      </trkpt>
      <trkpt lat="50.603" lon="5.27319">
        <ele>183.60000610352</ele>
        <time>2021-08-08T07:46:06.000Z</time>
      </trkpt>
      <trkpt lat="50.60317" lon="5.27305">
        <ele>182.80000305176</ele>
        <time>2021-08-08T07:46:08.000Z</time>
      </trkpt>
      <trkpt lat="50.6036" lon="5.27279">
        <ele>179</ele>
        <time>2021-08-08T07:46:13.000Z</time>
      </trkpt>
      <trkpt lat="50.60369" lon="5.27275">
        <ele>178.39999389648</ele>
        <time>2021-08-08T07:46:14.000Z</time>
      </trkpt>
      <trkpt lat="50.60423" lon="5.27255">
        <ele>176.19999694824</ele>
        <time>2021-08-08T07:46:21.000Z</time>
      </trkpt>
      <trkpt lat="50.60461" lon="5.27242">
        <ele>176.19999694824</ele>
        <time>2021-08-08T07:46:26.000Z</time>
      </trkpt>
      <trkpt lat="50.60552" lon="5.27207">
        <ele>176.60000610352</ele>
        <time>2021-08-08T07:46:38.000Z</time>
      </trkpt>
      <trkpt lat="50.6059" lon="5.27174">
        <ele>177.80000305176</ele>
        <time>2021-08-08T07:46:44.000Z</time>
      </trkpt>
      <trkpt lat="50.60602" lon="5.27163">
        <ele>177.60000610352</ele>
        <time>2021-08-08T07:46:46.000Z</time>
      </trkpt>
      <trkpt lat="50.60701" lon="5.27072">
        <ele>177.39999389648</ele>
        <time>2021-08-08T07:47:01.000Z</time>
      </trkpt>
      <trkpt lat="50.60708" lon="5.27065">
        <ele>177.39999389648</ele>
        <time>2021-08-08T07:47:02.000Z</time>
      </trkpt>
      <trkpt lat="50.60756" lon="5.27009">
        <ele>176.80000305176</ele>
        <time>2021-08-08T07:47:10.000Z</time>
      </trkpt>
      <trkpt lat="50.60768" lon="5.26996">
        <ele>176.80000305176</ele>
        <time>2021-08-08T07:47:12.000Z</time>
      </trkpt>
      <trkpt lat="50.60809" lon="5.26948">
        <ele>176.19999694824</ele>
        <time>2021-08-08T07:47:19.000Z</time>
      </trkpt>
      <trkpt lat="50.60821" lon="5.26936">
        <ele>176.19999694824</ele>
        <time>2021-08-08T07:47:21.000Z</time>
      </trkpt>
      <trkpt lat="50.60867" lon="5.26891">
        <ele>176.19999694824</ele>
        <time>2021-08-08T07:47:29.000Z</time>
      </trkpt>
      <trkpt lat="50.60888" lon="5.26867">
        <ele>176.80000305176</ele>
        <time>2021-08-08T07:47:33.000Z</time>
      </trkpt>
      <trkpt lat="50.60935" lon="5.26789">
        <ele>184.6</ele>
      </trkpt>
      <trkpt lat="50.6093" lon="5.2675">
        <ele>178</ele>
        <time>2021-08-08T07:48:02.000Z</time>
      </trkpt>
      <trkpt lat="50.60927" lon="5.26741">
        <ele>177.80000305176</ele>
        <time>2021-08-08T07:48:03.000Z</time>
      </trkpt>
      <trkpt lat="50.60928" lon="5.26721">
        <ele>177.60000610352</ele>
        <time>2021-08-08T07:48:05.000Z</time>
      </trkpt>
      <trkpt lat="50.60935" lon="5.26703">
        <ele>177.19999694824</ele>
        <time>2021-08-08T07:48:07.000Z</time>
      </trkpt>
      <trkpt lat="50.60982" lon="5.26627">
        <ele>174.80000305176</ele>
        <time>2021-08-08T07:48:16.000Z</time>
      </trkpt>
      <trkpt lat="50.61012" lon="5.2658">
        <ele>174.19999694824</ele>
        <time>2021-08-08T07:48:22.000Z</time>
      </trkpt>
      <trkpt lat="50.61018" lon="5.2656">
        <ele>174</ele>
        <time>2021-08-08T07:48:25.000Z</time>
      </trkpt>
      <trkpt lat="50.61018" lon="5.26553">
        <ele>174</ele>
        <time>2021-08-08T07:48:26.000Z</time>
      </trkpt>
      <trkpt lat="50.61015" lon="5.26527">
        <ele>174</ele>
        <time>2021-08-08T07:48:30.000Z</time>
      </trkpt>
      <trkpt lat="50.61016" lon="5.2652">
        <ele>174</ele>
        <time>2021-08-08T07:48:31.000Z</time>
      </trkpt>
      <trkpt lat="50.61018" lon="5.26385">
        <ele>173.80000305176</ele>
        <time>2021-08-08T07:48:46.000Z</time>
      </trkpt>
      <trkpt lat="50.6102" lon="5.26323">
        <ele>173.80000305176</ele>
        <time>2021-08-08T07:48:52.000Z</time>
      </trkpt>
      <trkpt lat="50.61022" lon="5.26241">
        <ele>174.19999694824</ele>
        <time>2021-08-08T07:49:00.000Z</time>
      </trkpt>
      <trkpt lat="50.61031" lon="5.26146">
        <ele>174</ele>
        <time>2021-08-08T07:49:09.000Z</time>
      </trkpt>
      <trkpt lat="50.61032" lon="5.26135">
        <ele>174.19999694824</ele>
        <time>2021-08-08T07:49:10.000Z</time>
      </trkpt>
      <trkpt lat="50.61036" lon="5.2608">
        <ele>174.19999694824</ele>
        <time>2021-08-08T07:49:15.000Z</time>
      </trkpt>
      <trkpt lat="50.6104" lon="5.26048">
        <ele>174.19999694824</ele>
        <time>2021-08-08T07:49:18.000Z</time>
      </trkpt>
      <trkpt lat="50.61048" lon="5.25961">
        <ele>174.19999694824</ele>
        <time>2021-08-08T07:49:26.000Z</time>
      </trkpt>
      <trkpt lat="50.61056" lon="5.25871">
        <ele>173.60000610352</ele>
        <time>2021-08-08T07:49:34.000Z</time>
      </trkpt>
      <trkpt lat="50.6106" lon="5.25825">
        <ele>173.19999694824</ele>
        <time>2021-08-08T07:49:38.000Z</time>
      </trkpt>
      <trkpt lat="50.61063" lon="5.25791">
        <ele>173</ele>
        <time>2021-08-08T07:49:41.000Z</time>
      </trkpt>
      <trkpt lat="50.61085" lon="5.25671">
        <ele>171.39999389648</ele>
        <time>2021-08-08T07:49:52.000Z</time>
      </trkpt>
      <trkpt lat="50.61099" lon="5.25608">
        <ele>171.19999694824</ele>
        <time>2021-08-08T07:49:58.000Z</time>
      </trkpt>
      <trkpt lat="50.61106" lon="5.25576">
        <ele>171.19999694824</ele>
        <time>2021-08-08T07:50:01.000Z</time>
      </trkpt>
      <trkpt lat="50.61116" lon="5.25534">
        <ele>171</ele>
        <time>2021-08-08T07:50:05.000Z</time>
      </trkpt>
      <trkpt lat="50.61123" lon="5.25502">
        <ele>171</ele>
        <time>2021-08-08T07:50:08.000Z</time>
      </trkpt>
      <trkpt lat="50.61148" lon="5.25386">
        <ele>170.80000305176</ele>
        <time>2021-08-08T07:50:19.000Z</time>
      </trkpt>
      <trkpt lat="50.61149" lon="5.25375">
        <ele>170.80000305176</ele>
        <time>2021-08-08T07:50:20.000Z</time>
      </trkpt>
      <trkpt lat="50.61155" lon="5.25343">
        <ele>170.80000305176</ele>
        <time>2021-08-08T07:50:23.000Z</time>
      </trkpt>
      <trkpt lat="50.61162" lon="5.25311">
        <ele>170.60000610352</ele>
        <time>2021-08-08T07:50:26.000Z</time>
      </trkpt>
      <trkpt lat="50.61177" lon="5.25235">
        <ele>170</ele>
        <time>2021-08-08T07:50:33.000Z</time>
      </trkpt>
      <trkpt lat="50.61178" lon="5.25224">
        <ele>169.80000305176</ele>
        <time>2021-08-08T07:50:34.000Z</time>
      </trkpt>
      <trkpt lat="50.61178" lon="5.25189">
        <ele>169.39999389648</ele>
        <time>2021-08-08T07:50:37.000Z</time>
      </trkpt>
      <trkpt lat="50.61168" lon="5.25134">
        <ele>169.19999694824</ele>
        <time>2021-08-08T07:50:42.000Z</time>
      </trkpt>
      <trkpt lat="50.61164" lon="5.25113">
        <ele>169.19999694824</ele>
        <time>2021-08-08T07:50:44.000Z</time>
      </trkpt>
      <trkpt lat="50.61153" lon="5.2506">
        <ele>168.80000305176</ele>
        <time>2021-08-08T07:50:49.000Z</time>
      </trkpt>
      <trkpt lat="50.61147" lon="5.24983">
        <ele>168.60000610352</ele>
        <time>2021-08-08T07:50:56.000Z</time>
      </trkpt>
      <trkpt lat="50.61149" lon="5.24823">
        <ele>167.60000610352</ele>
        <time>2021-08-08T07:51:10.000Z</time>
      </trkpt>
      <trkpt lat="50.6115" lon="5.24801">
        <ele>167.60000610352</ele>
        <time>2021-08-08T07:51:12.000Z</time>
      </trkpt>
      <trkpt lat="50.61175" lon="5.24683">
        <ele>166.80000305176</ele>
        <time>2021-08-08T07:51:23.000Z</time>
      </trkpt>
      <trkpt lat="50.61178" lon="5.24674">
        <ele>166.80000305176</ele>
        <time>2021-08-08T07:51:24.000Z</time>
      </trkpt>
      <trkpt lat="50.61189" lon="5.24636">
        <ele>166.39999389648</ele>
        <time>2021-08-08T07:51:28.000Z</time>
      </trkpt>
      <trkpt lat="50.6119" lon="5.24625">
        <ele>166.19999694824</ele>
        <time>2021-08-08T07:51:29.000Z</time>
      </trkpt>
      <trkpt lat="50.61181" lon="5.24582">
        <ele>166</ele>
        <time>2021-08-08T07:51:33.000Z</time>
      </trkpt>
      <trkpt lat="50.61173" lon="5.24564">
        <ele>165.80000305176</ele>
        <time>2021-08-08T07:51:35.000Z</time>
      </trkpt>
      <trkpt lat="50.61155" lon="5.24517">
        <ele>165.39999389648</ele>
        <time>2021-08-08T07:51:40.000Z</time>
      </trkpt>
      <trkpt lat="50.61131" lon="5.24451">
        <ele>165</ele>
        <time>2021-08-08T07:51:47.000Z</time>
      </trkpt>
      <trkpt lat="50.61129" lon="5.24441">
        <ele>164.80000305176</ele>
        <time>2021-08-08T07:51:48.000Z</time>
      </trkpt>
      <trkpt lat="50.61127" lon="5.24397">
        <ele>164.80000305176</ele>
        <time>2021-08-08T07:51:52.000Z</time>
      </trkpt>
      <trkpt lat="50.6113" lon="5.24356">
        <ele>164.19999694824</ele>
        <time>2021-08-08T07:51:56.000Z</time>
      </trkpt>
      <trkpt lat="50.6114" lon="5.24262">
        <ele>164</ele>
        <time>2021-08-08T07:52:05.000Z</time>
      </trkpt>
      <trkpt lat="50.61149" lon="5.24175">
        <ele>164.19999694824</ele>
        <time>2021-08-08T07:52:13.000Z</time>
      </trkpt>
      <trkpt lat="50.61158" lon="5.24097">
        <ele>164.80000305176</ele>
        <time>2021-08-08T07:52:20.000Z</time>
      </trkpt>
      <trkpt lat="50.61162" lon="5.24052">
        <ele>165</ele>
        <time>2021-08-08T07:52:24.000Z</time>
      </trkpt>
      <trkpt lat="50.61184" lon="5.23872">
        <ele>165.80000305176</ele>
        <time>2021-08-08T07:52:41.000Z</time>
      </trkpt>
      <trkpt lat="50.61187" lon="5.23852">
        <ele>165.80000305176</ele>
        <time>2021-08-08T07:52:43.000Z</time>
      </trkpt>
      <trkpt lat="50.6121" lon="5.23684">
        <ele>166.60000610352</ele>
        <time>2021-08-08T07:53:00.000Z</time>
      </trkpt>
      <trkpt lat="50.61221" lon="5.23611">
        <ele>166.60000610352</ele>
        <time>2021-08-08T07:53:07.000Z</time>
      </trkpt>
      <trkpt lat="50.61225" lon="5.23587">
        <ele>166.19999694824</ele>
        <time>2021-08-08T07:53:09.000Z</time>
      </trkpt>
      <trkpt lat="50.61235" lon="5.23536">
        <ele>165.60000610352</ele>
        <time>2021-08-08T07:53:13.000Z</time>
      </trkpt>
      <trkpt lat="50.6124" lon="5.23509">
        <ele>165.19999694824</ele>
        <time>2021-08-08T07:53:15.000Z</time>
      </trkpt>
      <trkpt lat="50.6125" lon="5.23442">
        <ele>162.60000610352</ele>
        <time>2021-08-08T07:53:20.000Z</time>
      </trkpt>
      <trkpt lat="50.61252" lon="5.23429">
        <ele>162.19999694824</ele>
        <time>2021-08-08T07:53:21.000Z</time>
      </trkpt>
      <trkpt lat="50.61262" lon="5.23347">
        <ele>160.80000305176</ele>
        <time>2021-08-08T07:53:27.000Z</time>
      </trkpt>
      <trkpt lat="50.61265" lon="5.23333">
        <ele>160.39999389648</ele>
        <time>2021-08-08T07:53:28.000Z</time>
      </trkpt>
      <trkpt lat="50.61273" lon="5.23307">
        <ele>159.39999389648</ele>
        <time>2021-08-08T07:53:30.000Z</time>
      </trkpt>
      <trkpt lat="50.61282" lon="5.23283">
        <ele>157.80000305176</ele>
        <time>2021-08-08T07:53:32.000Z</time>
      </trkpt>
      <trkpt lat="50.61299" lon="5.23252">
        <ele>156.80000305176</ele>
        <time>2021-08-08T07:53:35.000Z</time>
      </trkpt>
      <trkpt lat="50.61313" lon="5.23234">
        <ele>155.60000610352</ele>
        <time>2021-08-08T07:53:37.000Z</time>
      </trkpt>
      <trkpt lat="50.61353" lon="5.23204">
        <ele>153.19999694824</ele>
        <time>2021-08-08T07:53:42.000Z</time>
      </trkpt>
      <trkpt lat="50.61397" lon="5.23191">
        <ele>152</ele>
        <time>2021-08-08T07:53:47.000Z</time>
      </trkpt>
      <trkpt lat="50.61405" lon="5.23191">
        <ele>151.80000305176</ele>
        <time>2021-08-08T07:53:48.000Z</time>
      </trkpt>
      <trkpt lat="50.61436" lon="5.23209">
        <ele>151</ele>
        <time>2021-08-08T07:53:52.000Z</time>
      </trkpt>
      <trkpt lat="50.61442" lon="5.23218">
        <ele>151</ele>
        <time>2021-08-08T07:53:53.000Z</time>
      </trkpt>
      <trkpt lat="50.61462" lon="5.23265">
        <ele>148.80000305176</ele>
        <time>2021-08-08T07:53:57.000Z</time>
      </trkpt>
      <trkpt lat="50.61494" lon="5.23344">
        <ele>147.39999389648</ele>
        <time>2021-08-08T07:54:04.000Z</time>
      </trkpt>
      <trkpt lat="50.61519" lon="5.23403">
        <ele>147.60000610352</ele>
        <time>2021-08-08T07:54:10.000Z</time>
      </trkpt>
      <trkpt lat="50.61525" lon="5.2341">
        <ele>147.39999389648</ele>
        <time>2021-08-08T07:54:11.000Z</time>
      </trkpt>
      <trkpt lat="50.61543" lon="5.23419">
        <ele>148</ele>
        <time>2021-08-08T07:54:14.000Z</time>
      </trkpt>
      <trkpt lat="50.61554" lon="5.23431">
        <ele>148.19999694824</ele>
        <time>2021-08-08T07:54:16.000Z</time>
      </trkpt>
      <trkpt lat="50.6156" lon="5.23449">
        <ele>148.19999694824</ele>
        <time>2021-08-08T07:54:18.000Z</time>
      </trkpt>
      <trkpt lat="50.61566" lon="5.23482">
        <ele>148.39999389648</ele>
        <time>2021-08-08T07:54:21.000Z</time>
      </trkpt>
      <trkpt lat="50.6158" lon="5.23545">
        <ele>148.80000305176</ele>
        <time>2021-08-08T07:54:27.000Z</time>
      </trkpt>
      <trkpt lat="50.61599" lon="5.23577">
        <ele>149.39999389648</ele>
        <time>2021-08-08T07:54:31.000Z</time>
      </trkpt>
      <trkpt lat="50.61606" lon="5.23583">
        <ele>149.39999389648</ele>
        <time>2021-08-08T07:54:32.000Z</time>
      </trkpt>
      <trkpt lat="50.6163" lon="5.23601">
        <ele>149.80000305176</ele>
        <time>2021-08-08T07:54:36.000Z</time>
      </trkpt>
      <trkpt lat="50.61646" lon="5.23618">
        <ele>150.19999694824</ele>
        <time>2021-08-08T07:54:39.000Z</time>
      </trkpt>
      <trkpt lat="50.61671" lon="5.23662">
        <ele>150.60000610352</ele>
        <time>2021-08-08T07:54:45.000Z</time>
      </trkpt>
      <trkpt lat="50.61688" lon="5.23707">
        <ele>151.39999389648</ele>
        <time>2021-08-08T07:54:50.000Z</time>
      </trkpt>
      <trkpt lat="50.61721" lon="5.2381">
        <ele>152.80000305176</ele>
        <time>2021-08-08T07:55:01.000Z</time>
      </trkpt>
      <trkpt lat="50.61724" lon="5.23819">
        <ele>152.80000305176</ele>
        <time>2021-08-08T07:55:02.000Z</time>
      </trkpt>
      <trkpt lat="50.61733" lon="5.23865">
        <ele>153.39999389648</ele>
        <time>2021-08-08T07:55:09.000Z</time>
      </trkpt>
      <trkpt lat="50.61735" lon="5.23884">
        <ele>154.39999389648</ele>
        <time>2021-08-08T07:55:17.000Z</time>
      </trkpt>
      <trkpt lat="50.61735" lon="5.23888">
        <ele>155.19999694824</ele>
        <time>2021-08-08T07:58:21.000Z</time>
      </trkpt>
      <trkpt lat="50.6174" lon="5.23918">
        <ele>155.19999694824</ele>
        <time>2021-08-08T07:58:29.000Z</time>
      </trkpt>
      <trkpt lat="50.61745" lon="5.23948">
        <ele>155.19999694824</ele>
        <time>2021-08-08T07:58:34.000Z</time>
      </trkpt>
      <trkpt lat="50.6176" lon="5.24037">
        <ele>155.60000610352</ele>
        <time>2021-08-08T07:58:47.000Z</time>
      </trkpt>
      <trkpt lat="50.61765" lon="5.24067">
        <ele>155.60000610352</ele>
        <time>2021-08-08T07:58:51.000Z</time>
      </trkpt>
      <trkpt lat="50.61779" lon="5.24148">
        <ele>156.39999389648</ele>
        <time>2021-08-08T07:59:01.000Z</time>
      </trkpt>
      <trkpt lat="50.61791" lon="5.24216">
        <ele>157.60000610352</ele>
        <time>2021-08-08T07:59:09.000Z</time>
      </trkpt>
      <trkpt lat="50.61812" lon="5.24341">
        <ele>160.19999694824</ele>
        <time>2021-08-08T07:59:23.000Z</time>
      </trkpt>
      <trkpt lat="50.61814" lon="5.24351">
        <ele>160.39999389648</ele>
        <time>2021-08-08T07:59:24.000Z</time>
      </trkpt>
      <trkpt lat="50.61834" lon="5.24458">
        <ele>161.60000610352</ele>
        <time>2021-08-08T07:59:36.000Z</time>
      </trkpt>
      <trkpt lat="50.61836" lon="5.24467">
        <ele>161.60000610352</ele>
        <time>2021-08-08T07:59:37.000Z</time>
      </trkpt>
      <trkpt lat="50.61854" lon="5.24539">
        <ele>162.60000610352</ele>
        <time>2021-08-08T07:59:45.000Z</time>
      </trkpt>
      <trkpt lat="50.61873" lon="5.24605">
        <ele>163.60000610352</ele>
        <time>2021-08-08T07:59:52.000Z</time>
      </trkpt>
      <trkpt lat="50.61894" lon="5.24678">
        <ele>164.80000305176</ele>
        <time>2021-08-08T08:00:00.000Z</time>
      </trkpt>
      <trkpt lat="50.6191" lon="5.24732">
        <ele>165.19999694824</ele>
        <time>2021-08-08T08:00:07.000Z</time>
      </trkpt>
      <trkpt lat="50.61916" lon="5.24753">
        <ele>166</ele>
        <time>2021-08-08T08:00:10.000Z</time>
      </trkpt>
      <trkpt lat="50.6193" lon="5.24799">
        <ele>167</ele>
        <time>2021-08-08T08:00:17.000Z</time>
      </trkpt>
      <trkpt lat="50.6194" lon="5.24831">
        <ele>167.60000610352</ele>
        <time>2021-08-08T08:00:22.000Z</time>
      </trkpt>
      <trkpt lat="50.61955" lon="5.24859">
        <ele>167.60000610352</ele>
        <time>2021-08-08T08:00:26.000Z</time>
      </trkpt>
      <trkpt lat="50.61967" lon="5.24879">
        <ele>168</ele>
        <time>2021-08-08T08:00:29.000Z</time>
      </trkpt>
      <trkpt lat="50.62002" lon="5.24934">
        <ele>168.39999389648</ele>
        <time>2021-08-08T08:00:37.000Z</time>
      </trkpt>
      <trkpt lat="50.62005" lon="5.24941">
        <ele>168.39999389648</ele>
        <time>2021-08-08T08:00:38.000Z</time>
      </trkpt>
      <trkpt lat="50.62013" lon="5.24957">
        <ele>168.39999389648</ele>
        <time>2021-08-08T08:00:40.000Z</time>
      </trkpt>
      <trkpt lat="50.62044" lon="5.25031">
        <ele>169.39999389648</ele>
        <time>2021-08-08T08:00:49.000Z</time>
      </trkpt>
      <trkpt lat="50.62065" lon="5.25076">
        <ele>170.39999389648</ele>
        <time>2021-08-08T08:00:55.000Z</time>
      </trkpt>
      <trkpt lat="50.62098" lon="5.25142">
        <ele>172.39999389648</ele>
        <time>2021-08-08T08:01:04.000Z</time>
      </trkpt>
      <trkpt lat="50.62101" lon="5.25149">
        <ele>172.60000610352</ele>
        <time>2021-08-08T08:01:05.000Z</time>
      </trkpt>
      <trkpt lat="50.62171" lon="5.25283">
        <ele>174.39999389648</ele>
        <time>2021-08-08T08:01:23.000Z</time>
      </trkpt>
      <trkpt lat="50.6219" lon="5.25337">
        <ele>174.60000610352</ele>
        <time>2021-08-08T08:01:29.000Z</time>
      </trkpt>
      <trkpt lat="50.62222" lon="5.25428">
        <ele>174.80000305176</ele>
        <time>2021-08-08T08:01:39.000Z</time>
      </trkpt>
      <trkpt lat="50.62257" lon="5.25505">
        <ele>174.60000610352</ele>
        <time>2021-08-08T08:01:48.000Z</time>
      </trkpt>
      <trkpt lat="50.62311" lon="5.25614">
        <ele>174.60000610352</ele>
        <time>2021-08-08T08:02:01.000Z</time>
      </trkpt>
      <trkpt lat="50.62329" lon="5.2565">
        <ele>174.39999389648</ele>
        <time>2021-08-08T08:02:05.000Z</time>
      </trkpt>
      <trkpt lat="50.62355" lon="5.25731">
        <ele>172.60000610352</ele>
        <time>2021-08-08T08:02:12.000Z</time>
      </trkpt>
      <trkpt lat="50.624" lon="5.25883">
        <ele>170.39999389648</ele>
        <time>2021-08-08T08:02:26.000Z</time>
      </trkpt>
      <trkpt lat="50.62404" lon="5.25898">
        <ele>170.19999694824</ele>
        <time>2021-08-08T08:02:28.000Z</time>
      </trkpt>
      <trkpt lat="50.62409" lon="5.25914">
        <ele>170.19999694824</ele>
        <time>2021-08-08T08:02:31.000Z</time>
      </trkpt>
      <trkpt lat="50.62413" lon="5.25914">
        <ele>170.39999389648</ele>
        <time>2021-08-08T08:02:32.000Z</time>
      </trkpt>
      <trkpt lat="50.62428" lon="5.25904">
        <ele>170.19999694824</ele>
        <time>2021-08-08T08:02:35.000Z</time>
      </trkpt>
      <trkpt lat="50.62434" lon="5.25899">
        <ele>170.19999694824</ele>
        <time>2021-08-08T08:02:36.000Z</time>
      </trkpt>
      <trkpt lat="50.62481" lon="5.25846">
        <ele>169.60000610352</ele>
        <time>2021-08-08T08:02:44.000Z</time>
      </trkpt>
      <trkpt lat="50.62494" lon="5.25832">
        <ele>169.19999694824</ele>
        <time>2021-08-08T08:02:46.000Z</time>
      </trkpt>
      <trkpt lat="50.62543" lon="5.25776">
        <ele>168.80000305176</ele>
        <time>2021-08-08T08:02:54.000Z</time>
      </trkpt>
      <trkpt lat="50.62567" lon="5.25747">
        <ele>168.39999389648</ele>
        <time>2021-08-08T08:02:58.000Z</time>
      </trkpt>
      <trkpt lat="50.62597" lon="5.25708">
        <ele>168</ele>
        <time>2021-08-08T08:03:03.000Z</time>
      </trkpt>
      <trkpt lat="50.6262" lon="5.25676">
        <ele>167</ele>
        <time>2021-08-08T08:03:07.000Z</time>
      </trkpt>
      <trkpt lat="50.6266" lon="5.25618">
        <ele>165.80000305176</ele>
        <time>2021-08-08T08:03:14.000Z</time>
      </trkpt>
      <trkpt lat="50.62708" lon="5.25551">
        <ele>165.39999389648</ele>
        <time>2021-08-08T08:03:22.000Z</time>
      </trkpt>
      <trkpt lat="50.62742" lon="5.25515">
        <ele>164.60000610352</ele>
        <time>2021-08-08T08:03:27.000Z</time>
      </trkpt>
      <trkpt lat="50.628" lon="5.2547">
        <ele>163.80000305176</ele>
        <time>2021-08-08T08:03:35.000Z</time>
      </trkpt>
      <trkpt lat="50.62808" lon="5.25465">
        <ele>163.60000610352</ele>
        <time>2021-08-08T08:03:36.000Z</time>
      </trkpt>
      <trkpt lat="50.62822" lon="5.25454">
        <ele>163.19999694824</ele>
        <time>2021-08-08T08:03:38.000Z</time>
      </trkpt>
      <trkpt lat="50.62873" lon="5.25412">
        <ele>162.19999694824</ele>
        <time>2021-08-08T08:03:45.000Z</time>
      </trkpt>
      <trkpt lat="50.62938" lon="5.25341">
        <ele>161.60000610352</ele>
        <time>2021-08-08T08:03:55.000Z</time>
      </trkpt>
      <trkpt lat="50.62951" lon="5.25326">
        <ele>161.39999389648</ele>
        <time>2021-08-08T08:03:57.000Z</time>
      </trkpt>
      <trkpt lat="50.62998" lon="5.25275">
        <ele>160.80000305176</ele>
        <time>2021-08-08T08:04:04.000Z</time>
      </trkpt>
      <trkpt lat="50.63049" lon="5.25221">
        <ele>159</ele>
        <time>2021-08-08T08:04:12.000Z</time>
      </trkpt>
      <trkpt lat="50.6312" lon="5.25145">
        <ele>158</ele>
        <time>2021-08-08T08:04:23.000Z</time>
      </trkpt>
      <trkpt lat="50.63164" lon="5.25098">
        <ele>157.39999389648</ele>
        <time>2021-08-08T08:04:30.000Z</time>
      </trkpt>
      <trkpt lat="50.63176" lon="5.25084">
        <ele>157.19999694824</ele>
        <time>2021-08-08T08:04:32.000Z</time>
      </trkpt>
      <trkpt lat="50.63193" lon="5.25058">
        <ele>156.39999389648</ele>
        <time>2021-08-08T08:04:35.000Z</time>
      </trkpt>
      <trkpt lat="50.63198" lon="5.25048">
        <ele>156.39999389648</ele>
        <time>2021-08-08T08:04:36.000Z</time>
      </trkpt>
      <trkpt lat="50.63208" lon="5.25015">
        <ele>156.19999694824</ele>
        <time>2021-08-08T08:04:39.000Z</time>
      </trkpt>
      <trkpt lat="50.63213" lon="5.25006">
        <ele>155.60000610352</ele>
        <time>2021-08-08T08:04:40.000Z</time>
      </trkpt>
      <trkpt lat="50.63232" lon="5.24991">
        <ele>155.19999694824</ele>
        <time>2021-08-08T08:04:43.000Z</time>
      </trkpt>
      <trkpt lat="50.63264" lon="5.24995">
        <ele>153.39999389648</ele>
        <time>2021-08-08T08:04:47.000Z</time>
      </trkpt>
      <trkpt lat="50.63298" lon="5.25">
        <ele>151.60000610352</ele>
        <time>2021-08-08T08:04:51.000Z</time>
      </trkpt>
      <trkpt lat="50.63325" lon="5.25002">
        <ele>151.39999389648</ele>
        <time>2021-08-08T08:04:54.000Z</time>
      </trkpt>
      <trkpt lat="50.6341" lon="5.25001">
        <ele>150</ele>
        <time>2021-08-08T08:05:04.000Z</time>
      </trkpt>
      <trkpt lat="50.63532" lon="5.24998">
        <ele>149</ele>
        <time>2021-08-08T08:05:18.000Z</time>
      </trkpt>
      <trkpt lat="50.63541" lon="5.24998">
        <ele>148.80000305176</ele>
        <time>2021-08-08T08:05:19.000Z</time>
      </trkpt>
      <trkpt lat="50.63608" lon="5.24995">
        <ele>147.80000305176</ele>
        <time>2021-08-08T08:05:27.000Z</time>
      </trkpt>
      <trkpt lat="50.63668" lon="5.24992">
        <ele>147.39999389648</ele>
        <time>2021-08-08T08:05:34.000Z</time>
      </trkpt>
      <trkpt lat="50.63713" lon="5.24988">
        <ele>147.19999694824</ele>
        <time>2021-08-08T08:05:40.000Z</time>
      </trkpt>
      <trkpt lat="50.63747" lon="5.24983">
        <ele>146.80000305176</ele>
        <time>2021-08-08T08:05:45.000Z</time>
      </trkpt>
      <trkpt lat="50.63811" lon="5.24964">
        <ele>146.19999694824</ele>
        <time>2021-08-08T08:05:53.000Z</time>
      </trkpt>
      <trkpt lat="50.63819" lon="5.24963">
        <ele>146.19999694824</ele>
        <time>2021-08-08T08:05:54.000Z</time>
      </trkpt>
      <trkpt lat="50.63937" lon="5.24963">
        <ele>145.39999389648</ele>
        <time>2021-08-08T08:06:08.000Z</time>
      </trkpt>
      <trkpt lat="50.6397" lon="5.24963">
        <ele>145.39999389648</ele>
        <time>2021-08-08T08:06:12.000Z</time>
      </trkpt>
      <trkpt lat="50.64027" lon="5.24956">
        <ele>145</ele>
        <time>2021-08-08T08:06:19.000Z</time>
      </trkpt>
      <trkpt lat="50.64083" lon="5.24943">
        <ele>145</ele>
        <time>2021-08-08T08:06:26.000Z</time>
      </trkpt>
      <trkpt lat="50.64099" lon="5.24939">
        <ele>144.80000305176</ele>
        <time>2021-08-08T08:06:28.000Z</time>
      </trkpt>
      <trkpt lat="50.64174" lon="5.24922">
        <ele>143.80000305176</ele>
        <time>2021-08-08T08:06:37.000Z</time>
      </trkpt>
      <trkpt lat="50.64182" lon="5.2492">
        <ele>143.80000305176</ele>
        <time>2021-08-08T08:06:38.000Z</time>
      </trkpt>
      <trkpt lat="50.64249" lon="5.24906">
        <ele>142.39999389648</ele>
        <time>2021-08-08T08:06:46.000Z</time>
      </trkpt>
      <trkpt lat="50.64307" lon="5.24893">
        <ele>142.19999694824</ele>
        <time>2021-08-08T08:06:53.000Z</time>
      </trkpt>
      <trkpt lat="50.64382" lon="5.24876">
        <ele>141.60000610352</ele>
        <time>2021-08-08T08:07:02.000Z</time>
      </trkpt>
      <trkpt lat="50.64398" lon="5.24873">
        <ele>141.60000610352</ele>
        <time>2021-08-08T08:07:04.000Z</time>
      </trkpt>
      <trkpt lat="50.64462" lon="5.24857">
        <ele>141.39999389648</ele>
        <time>2021-08-08T08:07:12.000Z</time>
      </trkpt>
      <trkpt lat="50.64516" lon="5.24835">
        <ele>141.60000610352</ele>
        <time>2021-08-08T08:07:19.000Z</time>
      </trkpt>
      <trkpt lat="50.64593" lon="5.24802">
        <ele>142</ele>
        <time>2021-08-08T08:07:29.000Z</time>
      </trkpt>
      <trkpt lat="50.64609" lon="5.24795">
        <ele>142</ele>
        <time>2021-08-08T08:07:31.000Z</time>
      </trkpt>
      <trkpt lat="50.64652" lon="5.24776">
        <ele>142.39999389648</ele>
        <time>2021-08-08T08:07:37.000Z</time>
      </trkpt>
      <trkpt lat="50.64693" lon="5.24761">
        <ele>143.19999694824</ele>
        <time>2021-08-08T08:07:43.000Z</time>
      </trkpt>
      <trkpt lat="50.64715" lon="5.2476">
        <ele>143.60000610352</ele>
        <time>2021-08-08T08:07:46.000Z</time>
      </trkpt>
      <trkpt lat="50.64768" lon="5.24774">
        <ele>144.39999389648</ele>
        <time>2021-08-08T08:07:53.000Z</time>
      </trkpt>
      <trkpt lat="50.648" lon="5.24782">
        <ele>144.39999389648</ele>
        <time>2021-08-08T08:07:57.000Z</time>
      </trkpt>
      <trkpt lat="50.64866" lon="5.248">
        <ele>143.19999694824</ele>
        <time>2021-08-08T08:08:05.000Z</time>
      </trkpt>
      <trkpt lat="50.64874" lon="5.24802">
        <ele>143.19999694824</ele>
        <time>2021-08-08T08:08:06.000Z</time>
      </trkpt>
      <trkpt lat="50.64962" lon="5.24829">
        <ele>141.60000610352</ele>
        <time>2021-08-08T08:08:17.000Z</time>
      </trkpt>
      <trkpt lat="50.64986" lon="5.24837">
        <ele>141.19999694824</ele>
        <time>2021-08-08T08:08:20.000Z</time>
      </trkpt>
      <trkpt lat="50.65019" lon="5.24848">
        <ele>140.80000305176</ele>
        <time>2021-08-08T08:08:24.000Z</time>
      </trkpt>
      <trkpt lat="50.65067" lon="5.24863">
        <ele>140.19999694824</ele>
        <time>2021-08-08T08:08:30.000Z</time>
      </trkpt>
      <trkpt lat="50.65111" lon="5.24882">
        <ele>139.19999694824</ele>
        <time>2021-08-08T08:08:37.000Z</time>
      </trkpt>
      <trkpt lat="50.65128" lon="5.24883">
        <ele>138.80000305176</ele>
        <time>2021-08-08T08:08:41.000Z</time>
      </trkpt>
      <trkpt lat="50.65133" lon="5.24878">
        <ele>138.60000610352</ele>
        <time>2021-08-08T08:08:42.000Z</time>
      </trkpt>
      <trkpt lat="50.65165" lon="5.24834">
        <ele>138.19999694824</ele>
        <time>2021-08-08T08:08:48.000Z</time>
      </trkpt>
      <trkpt lat="50.65177" lon="5.24819">
        <ele>137.80000305176</ele>
        <time>2021-08-08T08:08:50.000Z</time>
      </trkpt>
      <trkpt lat="50.65212" lon="5.24771">
        <ele>136</ele>
        <time>2021-08-08T08:08:56.000Z</time>
      </trkpt>
      <trkpt lat="50.65238" lon="5.24743">
        <ele>135.60000610352</ele>
        <time>2021-08-08T08:09:00.000Z</time>
      </trkpt>
      <trkpt lat="50.65274" lon="5.24724">
        <ele>135.19999694824</ele>
        <time>2021-08-08T08:09:05.000Z</time>
      </trkpt>
      <trkpt lat="50.65302" lon="5.2471">
        <ele>135</ele>
        <time>2021-08-08T08:09:09.000Z</time>
      </trkpt>
      <trkpt lat="50.65335" lon="5.24667">
        <ele>134.60000610352</ele>
        <time>2021-08-08T08:09:15.000Z</time>
      </trkpt>
      <trkpt lat="50.6536" lon="5.24625">
        <ele>134.80000305176</ele>
        <time>2021-08-08T08:09:21.000Z</time>
      </trkpt>
      <trkpt lat="50.65374" lon="5.24602">
        <ele>134.80000305176</ele>
        <time>2021-08-08T08:09:25.000Z</time>
      </trkpt>
      <trkpt lat="50.65378" lon="5.24543">
        <ele>135.19999694824</ele>
        <time>2021-08-08T08:09:32.000Z</time>
      </trkpt>
      <trkpt lat="50.65385" lon="5.24516">
        <ele>135.19999694824</ele>
        <time>2021-08-08T08:09:35.000Z</time>
      </trkpt>
      <trkpt lat="50.65401" lon="5.24468">
        <ele>135.60000610352</ele>
        <time>2021-08-08T08:09:41.000Z</time>
      </trkpt>
      <trkpt lat="50.65414" lon="5.24449">
        <ele>136.19999694824</ele>
        <time>2021-08-08T08:09:44.000Z</time>
      </trkpt>
      <trkpt lat="50.6543" lon="5.24421">
        <ele>137</ele>
        <time>2021-08-08T08:09:48.000Z</time>
      </trkpt>
      <trkpt lat="50.6545" lon="5.24384">
        <ele>138.39999389648</ele>
        <time>2021-08-08T08:09:53.000Z</time>
      </trkpt>
      <trkpt lat="50.65474" lon="5.24329">
        <ele>140.60000610352</ele>
        <time>2021-08-08T08:10:00.000Z</time>
      </trkpt>
      <trkpt lat="50.65476" lon="5.2432">
        <ele>140.80000305176</ele>
        <time>2021-08-08T08:10:01.000Z</time>
      </trkpt>
      <trkpt lat="50.65481" lon="5.24248">
        <ele>141.60000610352</ele>
        <time>2021-08-08T08:10:08.000Z</time>
      </trkpt>
      <trkpt lat="50.65481" lon="5.24226">
        <ele>141.60000610352</ele>
        <time>2021-08-08T08:10:10.000Z</time>
      </trkpt>
      <trkpt lat="50.65483" lon="5.24169">
        <ele>141.60000610352</ele>
        <time>2021-08-08T08:10:15.000Z</time>
      </trkpt>
      <trkpt lat="50.65488" lon="5.24096">
        <ele>139.80000305176</ele>
        <time>2021-08-08T08:10:21.000Z</time>
      </trkpt>
      <trkpt lat="50.65503" lon="5.24014">
        <ele>137.80000305176</ele>
        <time>2021-08-08T08:10:28.000Z</time>
      </trkpt>
      <trkpt lat="50.65514" lon="5.23956">
        <ele>136.80000305176</ele>
        <time>2021-08-08T08:10:33.000Z</time>
      </trkpt>
      <trkpt lat="50.65523" lon="5.23911">
        <ele>136.19999694824</ele>
        <time>2021-08-08T08:10:37.000Z</time>
      </trkpt>
      <trkpt lat="50.65537" lon="5.23815">
        <ele>134.60000610352</ele>
        <time>2021-08-08T08:10:45.000Z</time>
      </trkpt>
      <trkpt lat="50.65538" lon="5.23803">
        <ele>134.19999694824</ele>
        <time>2021-08-08T08:10:46.000Z</time>
      </trkpt>
      <trkpt lat="50.65543" lon="5.23704">
        <ele>133</ele>
        <time>2021-08-08T08:10:56.000Z</time>
      </trkpt>
      <trkpt lat="50.65547" lon="5.2361">
        <ele>132.60000610352</ele>
        <time>2021-08-08T08:11:04.000Z</time>
      </trkpt>
      <trkpt lat="50.65549" lon="5.23504">
        <ele>132</ele>
        <time>2021-08-08T08:11:13.000Z</time>
      </trkpt>
      <trkpt lat="50.6554" lon="5.23426">
        <ele>132</ele>
        <time>2021-08-08T08:11:20.000Z</time>
      </trkpt>
      <trkpt lat="50.6554" lon="5.23373">
        <ele>132</ele>
        <time>2021-08-08T08:11:25.000Z</time>
      </trkpt>
      <trkpt lat="50.6555" lon="5.23332">
        <ele>132</ele>
        <time>2021-08-08T08:11:29.000Z</time>
      </trkpt>
      <trkpt lat="50.65585" lon="5.23229">
        <ele>131.80000305176</ele>
        <time>2021-08-08T08:11:39.000Z</time>
      </trkpt>
      <trkpt lat="50.65617" lon="5.23136">
        <ele>131</ele>
        <time>2021-08-08T08:11:48.000Z</time>
      </trkpt>
      <trkpt lat="50.65625" lon="5.23115">
        <ele>131</ele>
        <time>2021-08-08T08:11:50.000Z</time>
      </trkpt>
      <trkpt lat="50.6566" lon="5.23029">
        <ele>131</ele>
        <time>2021-08-08T08:11:59.000Z</time>
      </trkpt>
      <trkpt lat="50.65678" lon="5.22985">
        <ele>131</ele>
        <time>2021-08-08T08:12:04.000Z</time>
      </trkpt>
      <trkpt lat="50.65698" lon="5.22938">
        <ele>131.19999694824</ele>
        <time>2021-08-08T08:12:10.000Z</time>
      </trkpt>
      <trkpt lat="50.65704" lon="5.22924">
        <ele>131.19999694824</ele>
        <time>2021-08-08T08:12:12.000Z</time>
      </trkpt>
      <trkpt lat="50.65719" lon="5.2288">
        <ele>132.60000610352</ele>
        <time>2021-08-08T08:12:19.000Z</time>
      </trkpt>
      <trkpt lat="50.65724" lon="5.22865">
        <ele>133.60000610352</ele>
        <time>2021-08-08T08:12:21.000Z</time>
      </trkpt>
      <trkpt lat="50.65743" lon="5.22814">
        <ele>134.80000305176</ele>
        <time>2021-08-08T08:12:28.000Z</time>
      </trkpt>
      <trkpt lat="50.65744" lon="5.22806">
        <ele>135</ele>
        <time>2021-08-08T08:12:29.000Z</time>
      </trkpt>
      <trkpt lat="50.65743" lon="5.2279">
        <ele>135.19999694824</ele>
        <time>2021-08-08T08:12:31.000Z</time>
      </trkpt>
      <trkpt lat="50.65738" lon="5.22776">
        <ele>135.19999694824</ele>
        <time>2021-08-08T08:12:33.000Z</time>
      </trkpt>
      <trkpt lat="50.6573" lon="5.22765">
        <ele>135.39999389648</ele>
        <time>2021-08-08T08:12:35.000Z</time>
      </trkpt>
      <trkpt lat="50.65678" lon="5.22718">
        <ele>136.60000610352</ele>
        <time>2021-08-08T08:12:45.000Z</time>
      </trkpt>
      <trkpt lat="50.6563" lon="5.22674">
        <ele>136.60000610352</ele>
        <time>2021-08-08T08:12:54.000Z</time>
      </trkpt>
      <trkpt lat="50.65597" lon="5.22643">
        <ele>136.60000610352</ele>
        <time>2021-08-08T08:13:01.000Z</time>
      </trkpt>
      <trkpt lat="50.65586" lon="5.2263">
        <ele>136.80000305176</ele>
        <time>2021-08-08T08:13:05.000Z</time>
      </trkpt>
      <trkpt lat="50.65582" lon="5.22616">
        <ele>136.80000305176</ele>
        <time>2021-08-08T08:13:07.000Z</time>
      </trkpt>
      <trkpt lat="50.65581" lon="5.22607">
        <ele>136.80000305176</ele>
        <time>2021-08-08T08:13:08.000Z</time>
      </trkpt>
      <trkpt lat="50.65578" lon="5.22558">
        <ele>136.60000610352</ele>
        <time>2021-08-08T08:13:13.000Z</time>
      </trkpt>
      <trkpt lat="50.65575" lon="5.22504">
        <ele>135.60000610352</ele>
        <time>2021-08-08T08:13:18.000Z</time>
      </trkpt>
      <trkpt lat="50.65568" lon="5.22404">
        <ele>133.80000305176</ele>
        <time>2021-08-08T08:13:27.000Z</time>
      </trkpt>
      <trkpt lat="50.6556" lon="5.22351">
        <ele>133.39999389648</ele>
        <time>2021-08-08T08:13:32.000Z</time>
      </trkpt>
      <trkpt lat="50.65552" lon="5.22305">
        <ele>133.19999694824</ele>
        <time>2021-08-08T08:13:36.000Z</time>
      </trkpt>
      <trkpt lat="50.65526" lon="5.22171">
        <ele>131.60000610352</ele>
        <time>2021-08-08T08:13:47.000Z</time>
      </trkpt>
      <trkpt lat="50.65504" lon="5.22111">
        <ele>130.80000305176</ele>
        <time>2021-08-08T08:13:53.000Z</time>
      </trkpt>
      <trkpt lat="50.65452" lon="5.22001">
        <ele>131</ele>
        <time>2021-08-08T08:14:06.000Z</time>
      </trkpt>
      <trkpt lat="50.65448" lon="5.21992">
        <ele>131.19999694824</ele>
        <time>2021-08-08T08:14:07.000Z</time>
      </trkpt>
      <trkpt lat="50.65401" lon="5.21883">
        <ele>129</ele>
        <time>2021-08-08T08:14:18.000Z</time>
      </trkpt>
      <trkpt lat="50.65377" lon="5.21828">
        <ele>128.80000305176</ele>
        <time>2021-08-08T08:14:25.000Z</time>
      </trkpt>
      <trkpt lat="50.65355" lon="5.21781">
        <ele>129.39999389648</ele>
        <time>2021-08-08T08:14:31.000Z</time>
      </trkpt>
      <trkpt lat="50.65348" lon="5.21765">
        <ele>129.39999389648</ele>
        <time>2021-08-08T08:14:33.000Z</time>
      </trkpt>
      <trkpt lat="50.65316" lon="5.21684">
        <ele>130</ele>
        <time>2021-08-08T08:14:43.000Z</time>
      </trkpt>
      <trkpt lat="50.65292" lon="5.21605">
        <ele>131.19999694824</ele>
        <time>2021-08-08T08:14:52.000Z</time>
      </trkpt>
      <trkpt lat="50.65272" lon="5.21513">
        <ele>131.39999389648</ele>
        <time>2021-08-08T08:15:02.000Z</time>
      </trkpt>
      <trkpt lat="50.65268" lon="5.21495">
        <ele>131.39999389648</ele>
        <time>2021-08-08T08:15:04.000Z</time>
      </trkpt>
      <trkpt lat="50.65258" lon="5.21412">
        <ele>131.80000305176</ele>
        <time>2021-08-08T08:15:13.000Z</time>
      </trkpt>
      <trkpt lat="50.65251" lon="5.21303">
        <ele>133.19999694824</ele>
        <time>2021-08-08T08:15:25.000Z</time>
      </trkpt>
      <trkpt lat="50.65248" lon="5.2124">
        <ele>134.60000610352</ele>
        <time>2021-08-08T08:15:32.000Z</time>
      </trkpt>
      <trkpt lat="50.65243" lon="5.21131">
        <ele>136</ele>
        <time>2021-08-08T08:15:44.000Z</time>
      </trkpt>
      <trkpt lat="50.65241" lon="5.21085">
        <ele>136.39999389648</ele>
        <time>2021-08-08T08:15:49.000Z</time>
      </trkpt>
      <trkpt lat="50.65235" lon="5.20969">
        <ele>137.39999389648</ele>
        <time>2021-08-08T08:16:01.000Z</time>
      </trkpt>
      <trkpt lat="50.6523" lon="5.20878">
        <ele>137.19999694824</ele>
        <time>2021-08-08T08:16:10.000Z</time>
      </trkpt>
      <trkpt lat="50.65224" lon="5.20754">
        <ele>136.80000305176</ele>
        <time>2021-08-08T08:16:22.000Z</time>
      </trkpt>
      <trkpt lat="50.65224" lon="5.20744">
        <ele>136.60000610352</ele>
        <time>2021-08-08T08:16:23.000Z</time>
      </trkpt>
      <trkpt lat="50.65218" lon="5.20629">
        <ele>136.19999694824</ele>
        <time>2021-08-08T08:16:34.000Z</time>
      </trkpt>
      <trkpt lat="50.65213" lon="5.20522">
        <ele>136.19999694824</ele>
        <time>2021-08-08T08:16:44.000Z</time>
      </trkpt>
      <trkpt lat="50.65209" lon="5.20437">
        <ele>135.80000305176</ele>
        <time>2021-08-08T08:16:52.000Z</time>
      </trkpt>
      <trkpt lat="50.65209" lon="5.20397">
        <ele>135.19999694824</ele>
        <time>2021-08-08T08:16:56.000Z</time>
      </trkpt>
      <trkpt lat="50.65212" lon="5.20379">
        <ele>135.19999694824</ele>
        <time>2021-08-08T08:16:58.000Z</time>
      </trkpt>
      <trkpt lat="50.65221" lon="5.20357">
        <ele>134.80000305176</ele>
        <time>2021-08-08T08:17:01.000Z</time>
      </trkpt>
      <trkpt lat="50.65224" lon="5.20352">
        <ele>134.80000305176</ele>
        <time>2021-08-08T08:17:02.000Z</time>
      </trkpt>
      <trkpt lat="50.65227" lon="5.20337">
        <ele>134.39999389648</ele>
        <time>2021-08-08T08:17:05.000Z</time>
      </trkpt>
      <trkpt lat="50.65225" lon="5.2033">
        <ele>134.39999389648</ele>
        <time>2021-08-08T08:17:06.000Z</time>
      </trkpt>
      <trkpt lat="50.65219" lon="5.20316">
        <ele>134.39999389648</ele>
        <time>2021-08-08T08:17:08.000Z</time>
      </trkpt>
      <trkpt lat="50.65212" lon="5.20304">
        <ele>134.19999694824</ele>
        <time>2021-08-08T08:17:10.000Z</time>
      </trkpt>
      <trkpt lat="50.65192" lon="5.20264">
        <ele>133.60000610352</ele>
        <time>2021-08-08T08:17:16.000Z</time>
      </trkpt>
      <trkpt lat="50.65169" lon="5.20212">
        <ele>131.80000305176</ele>
        <time>2021-08-08T08:17:23.000Z</time>
      </trkpt>
      <trkpt lat="50.65159" lon="5.20188">
        <ele>131.80000305176</ele>
        <time>2021-08-08T08:17:26.000Z</time>
      </trkpt>
      <trkpt lat="50.65158" lon="5.20161">
        <ele>132</ele>
        <time>2021-08-08T08:17:29.000Z</time>
      </trkpt>
      <trkpt lat="50.6517" lon="5.20137">
        <ele>133.19999694824</ele>
        <time>2021-08-08T08:17:32.000Z</time>
      </trkpt>
      <trkpt lat="50.65184" lon="5.20112">
        <ele>133.39999389648</ele>
        <time>2021-08-08T08:17:35.000Z</time>
      </trkpt>
      <trkpt lat="50.65207" lon="5.20082">
        <ele>133.39999389648</ele>
        <time>2021-08-08T08:17:39.000Z</time>
      </trkpt>
      <trkpt lat="50.65262" lon="5.20016">
        <ele>131</ele>
        <time>2021-08-08T08:17:48.000Z</time>
      </trkpt>
      <trkpt lat="50.6531" lon="5.19958">
        <ele>130.19999694824</ele>
        <time>2021-08-08T08:17:56.000Z</time>
      </trkpt>
      <trkpt lat="50.65329" lon="5.19936">
        <ele>130</ele>
        <time>2021-08-08T08:17:59.000Z</time>
      </trkpt>
      <trkpt lat="50.65341" lon="5.19921">
        <ele>129.60000610352</ele>
        <time>2021-08-08T08:18:01.000Z</time>
      </trkpt>
      <trkpt lat="50.65369" lon="5.19881">
        <ele>129</ele>
        <time>2021-08-08T08:18:06.000Z</time>
      </trkpt>
      <trkpt lat="50.6538" lon="5.19865">
        <ele>128.60000610352</ele>
        <time>2021-08-08T08:18:08.000Z</time>
      </trkpt>
      <trkpt lat="50.65408" lon="5.19823">
        <ele>126.80000305176</ele>
        <time>2021-08-08T08:18:13.000Z</time>
      </trkpt>
      <trkpt lat="50.6544" lon="5.19774">
        <ele>126</ele>
        <time>2021-08-08T08:18:19.000Z</time>
      </trkpt>
      <trkpt lat="50.65446" lon="5.19766">
        <ele>126</ele>
        <time>2021-08-08T08:18:20.000Z</time>
      </trkpt>
      <trkpt lat="50.65473" lon="5.19728">
        <ele>125.59999847412</ele>
        <time>2021-08-08T08:18:26.000Z</time>
      </trkpt>
      <trkpt lat="50.65477" lon="5.19724">
        <ele>125.59999847412</ele>
        <time>2021-08-08T08:18:28.000Z</time>
      </trkpt>
      <trkpt lat="50.65486" lon="5.19708">
        <ele>125.40000152588</ele>
        <time>2021-08-08T08:18:32.000Z</time>
      </trkpt>
      <trkpt lat="50.65496" lon="5.19689">
        <ele>125</ele>
        <time>2021-08-08T08:18:35.000Z</time>
      </trkpt>
      <trkpt lat="50.65508" lon="5.19666">
        <ele>124.80000305176</ele>
        <time>2021-08-08T08:18:38.000Z</time>
      </trkpt>
      <trkpt lat="50.65516" lon="5.1965">
        <ele>124.59999847412</ele>
        <time>2021-08-08T08:18:40.000Z</time>
      </trkpt>
      <trkpt lat="50.65534" lon="5.19614">
        <ele>124.40000152588</ele>
        <time>2021-08-08T08:18:44.000Z</time>
      </trkpt>
      <trkpt lat="50.65566" lon="5.19539">
        <ele>122.19999694824</ele>
        <time>2021-08-08T08:18:52.000Z</time>
      </trkpt>
      <trkpt lat="50.65602" lon="5.19448">
        <ele>121</ele>
        <time>2021-08-08T08:19:01.000Z</time>
      </trkpt>
      <trkpt lat="50.65644" lon="5.19339">
        <ele>121.19999694824</ele>
        <time>2021-08-08T08:19:12.000Z</time>
      </trkpt>
      <trkpt lat="50.65648" lon="5.1933">
        <ele>121.19999694824</ele>
        <time>2021-08-08T08:19:13.000Z</time>
      </trkpt>
      <trkpt lat="50.65668" lon="5.19278">
        <ele>122.40000152588</ele>
        <time>2021-08-08T08:19:19.000Z</time>
      </trkpt>
      <trkpt lat="50.65674" lon="5.19262">
        <ele>122.59999847412</ele>
        <time>2021-08-08T08:19:21.000Z</time>
      </trkpt>
      <trkpt lat="50.65714" lon="5.19161">
        <ele>126</ele>
        <time>2021-08-08T08:19:33.000Z</time>
      </trkpt>
      <trkpt lat="50.65745" lon="5.19082">
        <ele>126.59999847412</ele>
        <time>2021-08-08T08:19:42.000Z</time>
      </trkpt>
      <trkpt lat="50.65782" lon="5.18987">
        <ele>126.19999694824</ele>
        <time>2021-08-08T08:19:52.000Z</time>
      </trkpt>
      <trkpt lat="50.65786" lon="5.18977">
        <ele>126.19999694824</ele>
        <time>2021-08-08T08:19:53.000Z</time>
      </trkpt>
      <trkpt lat="50.65824" lon="5.18879">
        <ele>125.80000305176</ele>
        <time>2021-08-08T08:20:03.000Z</time>
      </trkpt>
      <trkpt lat="50.65828" lon="5.1887">
        <ele>125.80000305176</ele>
        <time>2021-08-08T08:20:04.000Z</time>
      </trkpt>
      <trkpt lat="50.65865" lon="5.18777">
        <ele>125.40000152588</ele>
        <time>2021-08-08T08:20:14.000Z</time>
      </trkpt>
      <trkpt lat="50.659" lon="5.18687">
        <ele>126.40000152588</ele>
        <time>2021-08-08T08:20:24.000Z</time>
      </trkpt>
      <trkpt lat="50.65907" lon="5.18668">
        <ele>126.40000152588</ele>
        <time>2021-08-08T08:20:26.000Z</time>
      </trkpt>
      <trkpt lat="50.65946" lon="5.18571">
        <ele>126</ele>
        <time>2021-08-08T08:20:36.000Z</time>
      </trkpt>
      <trkpt lat="50.6595" lon="5.18561">
        <ele>126</ele>
        <time>2021-08-08T08:20:37.000Z</time>
      </trkpt>
      <trkpt lat="50.65992" lon="5.18454">
        <ele>124.19999694824</ele>
        <time>2021-08-08T08:20:47.000Z</time>
      </trkpt>
      <trkpt lat="50.65996" lon="5.18444">
        <ele>124.19999694824</ele>
        <time>2021-08-08T08:20:48.000Z</time>
      </trkpt>
      <trkpt lat="50.66053" lon="5.18335">
        <ele>122.19999694824</ele>
        <time>2021-08-08T08:21:00.000Z</time>
      </trkpt>
      <trkpt lat="50.66059" lon="5.18328">
        <ele>122.40000152588</ele>
        <time>2021-08-08T08:21:01.000Z</time>
      </trkpt>
      <trkpt lat="50.66095" lon="5.18288">
        <ele>122</ele>
        <time>2021-08-08T08:21:07.000Z</time>
      </trkpt>
      <trkpt lat="50.66107" lon="5.18275">
        <ele>121.80000305176</ele>
        <time>2021-08-08T08:21:09.000Z</time>
      </trkpt>
      <trkpt lat="50.66142" lon="5.1824">
        <ele>121</ele>
        <time>2021-08-08T08:21:15.000Z</time>
      </trkpt>
      <trkpt lat="50.66156" lon="5.18234">
        <ele>121</ele>
        <time>2021-08-08T08:21:18.000Z</time>
      </trkpt>
      <trkpt lat="50.66163" lon="5.18245">
        <ele>120.80000305176</ele>
        <time>2021-08-08T08:21:20.000Z</time>
      </trkpt>
      <trkpt lat="50.6617" lon="5.1826">
        <ele>121</ele>
        <time>2021-08-08T08:21:22.000Z</time>
      </trkpt>
      <trkpt lat="50.66188" lon="5.18302">
        <ele>121</ele>
        <time>2021-08-08T08:21:27.000Z</time>
      </trkpt>
      <trkpt lat="50.66213" lon="5.18336">
        <ele>121.19999694824</ele>
        <time>2021-08-08T08:21:32.000Z</time>
      </trkpt>
      <trkpt lat="50.66235" lon="5.18361">
        <ele>121.19999694824</ele>
        <time>2021-08-08T08:21:37.000Z</time>
      </trkpt>
      <trkpt lat="50.66252" lon="5.18401">
        <ele>121.19999694824</ele>
        <time>2021-08-08T08:21:43.000Z</time>
      </trkpt>
      <trkpt lat="50.66274" lon="5.18466">
        <ele>121.40000152588</ele>
        <time>2021-08-08T08:21:51.000Z</time>
      </trkpt>
      <trkpt lat="50.66299" lon="5.18521">
        <ele>121.19999694824</ele>
        <time>2021-08-08T08:21:58.000Z</time>
      </trkpt>
      <trkpt lat="50.66331" lon="5.18556">
        <ele>121.19999694824</ele>
        <time>2021-08-08T08:22:04.000Z</time>
      </trkpt>
      <trkpt lat="50.66397" lon="5.18613">
        <ele>120.80000305176</ele>
        <time>2021-08-08T08:22:15.000Z</time>
      </trkpt>
      <trkpt lat="50.66446" lon="5.18653">
        <ele>120.59999847412</ele>
        <time>2021-08-08T08:22:23.000Z</time>
      </trkpt>
      <trkpt lat="50.66466" lon="5.18681">
        <ele>120.80000305176</ele>
        <time>2021-08-08T08:22:27.000Z</time>
      </trkpt>
      <trkpt lat="50.6647" lon="5.18701">
        <ele>120.59999847412</ele>
        <time>2021-08-08T08:22:29.000Z</time>
      </trkpt>
      <trkpt lat="50.66471" lon="5.18711">
        <ele>120.80000305176</ele>
        <time>2021-08-08T08:22:30.000Z</time>
      </trkpt>
      <trkpt lat="50.66478" lon="5.18739">
        <ele>120.80000305176</ele>
        <time>2021-08-08T08:22:33.000Z</time>
      </trkpt>
      <trkpt lat="50.66482" lon="5.18746">
        <ele>120.80000305176</ele>
        <time>2021-08-08T08:22:34.000Z</time>
      </trkpt>
      <trkpt lat="50.66512" lon="5.18794">
        <ele>121.59999847412</ele>
        <time>2021-08-08T08:22:41.000Z</time>
      </trkpt>
      <trkpt lat="50.66555" lon="5.18859">
        <ele>122.40000152588</ele>
        <time>2021-08-08T08:22:50.000Z</time>
      </trkpt>
      <trkpt lat="50.66573" lon="5.18889">
        <ele>122.59999847412</ele>
        <time>2021-08-08T08:22:54.000Z</time>
      </trkpt>
      <trkpt lat="50.66611" lon="5.1895">
        <ele>123</ele>
        <time>2021-08-08T08:23:02.000Z</time>
      </trkpt>
      <trkpt lat="50.6662" lon="5.18966">
        <ele>123.19999694824</ele>
        <time>2021-08-08T08:23:04.000Z</time>
      </trkpt>
      <trkpt lat="50.66655" lon="5.19031">
        <ele>124.19999694824</ele>
        <time>2021-08-08T08:23:12.000Z</time>
      </trkpt>
      <trkpt lat="50.66686" lon="5.191">
        <ele>124</ele>
        <time>2021-08-08T08:23:19.000Z</time>
      </trkpt>
      <trkpt lat="50.66713" lon="5.19167">
        <ele>123</ele>
        <time>2021-08-08T08:23:25.000Z</time>
      </trkpt>
      <trkpt lat="50.66723" lon="5.19188">
        <ele>122.19999694824</ele>
        <time>2021-08-08T08:23:27.000Z</time>
      </trkpt>
      <trkpt lat="50.66749" lon="5.19221">
        <ele>121</ele>
        <time>2021-08-08T08:23:31.000Z</time>
      </trkpt>
      <trkpt lat="50.66784" lon="5.19256">
        <ele>120.40000152588</ele>
        <time>2021-08-08T08:23:36.000Z</time>
      </trkpt>
      <trkpt lat="50.6688" lon="5.19363">
        <ele>119.19999694824</ele>
        <time>2021-08-08T08:23:51.000Z</time>
      </trkpt>
      <trkpt lat="50.66913" lon="5.19424">
        <ele>119.59999847412</ele>
        <time>2021-08-08T08:23:58.000Z</time>
      </trkpt>
      <trkpt lat="50.66952" lon="5.19503">
        <ele>120.19999694824</ele>
        <time>2021-08-08T08:24:07.000Z</time>
      </trkpt>
      <trkpt lat="50.66956" lon="5.19512">
        <ele>120.19999694824</ele>
        <time>2021-08-08T08:24:08.000Z</time>
      </trkpt>
      <trkpt lat="50.67004" lon="5.19608">
        <ele>121.59999847412</ele>
        <time>2021-08-08T08:24:19.000Z</time>
      </trkpt>
      <trkpt lat="50.67008" lon="5.19616">
        <ele>121.80000305176</ele>
        <time>2021-08-08T08:24:20.000Z</time>
      </trkpt>
      <trkpt lat="50.67045" lon="5.19691">
        <ele>122.40000152588</ele>
        <time>2021-08-08T08:24:28.000Z</time>
      </trkpt>
      <trkpt lat="50.67097" lon="5.19794">
        <ele>121.40000152588</ele>
        <time>2021-08-08T08:24:38.000Z</time>
      </trkpt>
      <trkpt lat="50.67113" lon="5.19827">
        <ele>120.40000152588</ele>
        <time>2021-08-08T08:24:41.000Z</time>
      </trkpt>
      <trkpt lat="50.67145" lon="5.1989">
        <ele>118.59999847412</ele>
        <time>2021-08-08T08:24:47.000Z</time>
      </trkpt>
      <trkpt lat="50.6715" lon="5.19901">
        <ele>118.19999694824</ele>
        <time>2021-08-08T08:24:48.000Z</time>
      </trkpt>
      <trkpt lat="50.67192" lon="5.19985">
        <ele>115.19999694824</ele>
        <time>2021-08-08T08:24:56.000Z</time>
      </trkpt>
      <trkpt lat="50.67198" lon="5.19994">
        <ele>115.19999694824</ele>
        <time>2021-08-08T08:24:57.000Z</time>
      </trkpt>
      <trkpt lat="50.67221" lon="5.20007">
        <ele>114.80000305176</ele>
        <time>2021-08-08T08:25:00.000Z</time>
      </trkpt>
      <trkpt lat="50.67269" lon="5.20007">
        <ele>114.59999847412</ele>
        <time>2021-08-08T08:25:06.000Z</time>
      </trkpt>
      <trkpt lat="50.67323" lon="5.19999">
        <ele>114</ele>
        <time>2021-08-08T08:25:13.000Z</time>
      </trkpt>
      <trkpt lat="50.67329" lon="5.19994">
        <ele>114</ele>
        <time>2021-08-08T08:25:14.000Z</time>
      </trkpt>
      <trkpt lat="50.67383" lon="5.1992">
        <ele>113.80000305176</ele>
        <time>2021-08-08T08:25:24.000Z</time>
      </trkpt>
      <trkpt lat="50.67402" lon="5.19913">
        <ele>114</ele>
        <time>2021-08-08T08:25:27.000Z</time>
      </trkpt>
      <trkpt lat="50.67409" lon="5.19913">
        <ele>113.80000305176</ele>
        <time>2021-08-08T08:25:28.000Z</time>
      </trkpt>
      <trkpt lat="50.67449" lon="5.19924">
        <ele>114</ele>
        <time>2021-08-08T08:25:34.000Z</time>
      </trkpt>
      <trkpt lat="50.67455" lon="5.19927">
        <ele>114</ele>
        <time>2021-08-08T08:25:35.000Z</time>
      </trkpt>
      <trkpt lat="50.67479" lon="5.19978">
        <ele>114.80000305176</ele>
        <time>2021-08-08T08:25:41.000Z</time>
      </trkpt>
      <trkpt lat="50.67497" lon="5.2005">
        <ele>115.80000305176</ele>
        <time>2021-08-08T08:25:48.000Z</time>
      </trkpt>
      <trkpt lat="50.67511" lon="5.20086">
        <ele>116.19999694824</ele>
        <time>2021-08-08T08:25:52.000Z</time>
      </trkpt>
      <trkpt lat="50.67523" lon="5.20094">
        <ele>116.40000152588</ele>
        <time>2021-08-08T08:25:54.000Z</time>
      </trkpt>
      <trkpt lat="50.67554" lon="5.20084">
        <ele>116.80000305176</ele>
        <time>2021-08-08T08:25:59.000Z</time>
      </trkpt>
      <trkpt lat="50.67572" lon="5.20076">
        <ele>117</ele>
        <time>2021-08-08T08:26:02.000Z</time>
      </trkpt>
      <trkpt lat="50.67587" lon="5.20085">
        <ele>117.40000152588</ele>
        <time>2021-08-08T08:26:05.000Z</time>
      </trkpt>
      <trkpt lat="50.67589" lon="5.20093">
        <ele>117.40000152588</ele>
        <time>2021-08-08T08:26:06.000Z</time>
      </trkpt>
      <trkpt lat="50.67595" lon="5.20132">
        <ele>118</ele>
        <time>2021-08-08T08:26:10.000Z</time>
      </trkpt>
      <trkpt lat="50.6762" lon="5.20257">
        <ele>119.19999694824</ele>
        <time>2021-08-08T08:26:22.000Z</time>
      </trkpt>
      <trkpt lat="50.67645" lon="5.20336">
        <ele>119.40000152588</ele>
        <time>2021-08-08T08:26:30.000Z</time>
      </trkpt>
      <trkpt lat="50.67678" lon="5.20448">
        <ele>119.59999847412</ele>
        <time>2021-08-08T08:26:41.000Z</time>
      </trkpt>
      <trkpt lat="50.67682" lon="5.20472">
        <ele>119.80000305176</ele>
        <time>2021-08-08T08:26:43.000Z</time>
      </trkpt>
      <trkpt lat="50.6768" lon="5.20507">
        <ele>119.40000152588</ele>
        <time>2021-08-08T08:26:46.000Z</time>
      </trkpt>
      <trkpt lat="50.67676" lon="5.20517">
        <ele>119.40000152588</ele>
        <time>2021-08-08T08:26:47.000Z</time>
      </trkpt>
      <trkpt lat="50.67668" lon="5.20537">
        <ele>119.40000152588</ele>
        <time>2021-08-08T08:26:49.000Z</time>
      </trkpt>
      <trkpt lat="50.67653" lon="5.2058">
        <ele>119.40000152588</ele>
        <time>2021-08-08T08:26:53.000Z</time>
      </trkpt>
      <trkpt lat="50.6765" lon="5.20604">
        <ele>119</ele>
        <time>2021-08-08T08:26:55.000Z</time>
      </trkpt>
      <trkpt lat="50.6765" lon="5.20628">
        <ele>119</ele>
        <time>2021-08-08T08:26:57.000Z</time>
      </trkpt>
      <trkpt lat="50.67652" lon="5.20652">
        <ele>118.80000305176</ele>
        <time>2021-08-08T08:26:59.000Z</time>
      </trkpt>
      <trkpt lat="50.67662" lon="5.20775">
        <ele>116.80000305176</ele>
        <time>2021-08-08T08:27:09.000Z</time>
      </trkpt>
      <trkpt lat="50.67669" lon="5.2085">
        <ele>116.19999694824</ele>
        <time>2021-08-08T08:27:15.000Z</time>
      </trkpt>
      <trkpt lat="50.67668" lon="5.20938">
        <ele>115.40000152588</ele>
        <time>2021-08-08T08:27:22.000Z</time>
      </trkpt>
      <trkpt lat="50.67667" lon="5.2095">
        <ele>115.19999694824</ele>
        <time>2021-08-08T08:27:23.000Z</time>
      </trkpt>
      <trkpt lat="50.67655" lon="5.20996">
        <ele>114.40000152588</ele>
        <time>2021-08-08T08:27:28.000Z</time>
      </trkpt>
      <trkpt lat="50.67653" lon="5.20999">
        <ele>114.40000152588</ele>
        <time>2021-08-08T08:27:29.000Z</time>
      </trkpt>
      <trkpt lat="50.67641" lon="5.21006">
        <ele>114.19999694824</ele>
        <time>2021-08-08T08:27:33.000Z</time>
      </trkpt>
      <trkpt lat="50.67632" lon="5.21012">
        <ele>114.19999694824</ele>
        <time>2021-08-08T08:27:35.000Z</time>
      </trkpt>
      <trkpt lat="50.67607" lon="5.21032">
        <ele>113.80000305176</ele>
        <time>2021-08-08T08:27:40.000Z</time>
      </trkpt>
      <trkpt lat="50.67602" lon="5.21036">
        <ele>113.59999847412</ele>
        <time>2021-08-08T08:27:41.000Z</time>
      </trkpt>
      <trkpt lat="50.67588" lon="5.21048">
        <ele>114</ele>
        <time>2021-08-08T08:27:44.000Z</time>
      </trkpt>
      <trkpt lat="50.67579" lon="5.21052">
        <ele>113.80000305176</ele>
        <time>2021-08-08T08:27:46.000Z</time>
      </trkpt>
      <trkpt lat="50.67572" lon="5.21059">
        <ele>113.59999847412</ele>
        <time>2021-08-08T08:27:48.000Z</time>
      </trkpt>
      <trkpt lat="50.67565" lon="5.21066">
        <ele>113.59999847412</ele>
        <time>2021-08-08T08:27:50.000Z</time>
      </trkpt>
      <trkpt lat="50.67558" lon="5.21073">
        <ele>113.59999847412</ele>
        <time>2021-08-08T08:27:52.000Z</time>
      </trkpt>
      <trkpt lat="50.67538" lon="5.21096">
        <ele>113.40000152588</ele>
        <time>2021-08-08T08:27:58.000Z</time>
      </trkpt>
      <trkpt lat="50.67531" lon="5.21104">
        <ele>113</ele>
        <time>2021-08-08T08:28:00.000Z</time>
      </trkpt>
      <trkpt lat="50.67508" lon="5.21127">
        <ele>113</ele>
        <time>2021-08-08T08:28:06.000Z</time>
      </trkpt>
      <trkpt lat="50.67471" lon="5.21163">
        <ele>112.59999847412</ele>
        <time>2021-08-08T08:28:14.000Z</time>
      </trkpt>
      <trkpt lat="50.67392" lon="5.21243">
        <ele>112.80000305176</ele>
        <time>2021-08-08T08:28:30.000Z</time>
      </trkpt>
      <trkpt lat="50.67384" lon="5.21254">
        <ele>113</ele>
        <time>2021-08-08T08:28:33.000Z</time>
      </trkpt>
      <trkpt lat="50.67373" lon="5.21264">
        <ele>113</ele>
        <time>2021-08-08T08:28:37.000Z</time>
      </trkpt>
      <trkpt lat="50.67361" lon="5.21275">
        <ele>113.59999847412</ele>
        <time>2021-08-08T08:28:40.000Z</time>
      </trkpt>
      <trkpt lat="50.67361" lon="5.21307">
        <ele>114.40000152588</ele>
        <time>2021-08-08T08:28:45.000Z</time>
      </trkpt>
      <trkpt lat="50.67368" lon="5.2133">
        <ele>114.59999847412</ele>
        <time>2021-08-08T08:28:48.000Z</time>
      </trkpt>
      <trkpt lat="50.67381" lon="5.21372">
        <ele>114.80000305176</ele>
        <time>2021-08-08T08:28:53.000Z</time>
      </trkpt>
      <trkpt lat="50.67385" lon="5.21391">
        <ele>115.19999694824</ele>
        <time>2021-08-08T08:28:55.000Z</time>
      </trkpt>
      <trkpt lat="50.67386" lon="5.2142">
        <ele>115.59999847412</ele>
        <time>2021-08-08T08:28:58.000Z</time>
      </trkpt>
      <trkpt lat="50.67383" lon="5.21483">
        <ele>115.80000305176</ele>
        <time>2021-08-08T08:29:04.000Z</time>
      </trkpt>
      <trkpt lat="50.67377" lon="5.2154">
        <ele>115.80000305176</ele>
        <time>2021-08-08T08:29:09.000Z</time>
      </trkpt>
      <trkpt lat="50.67374" lon="5.21587">
        <ele>115.40000152588</ele>
        <time>2021-08-08T08:29:13.000Z</time>
      </trkpt>
      <trkpt lat="50.67375" lon="5.216">
        <ele>115.19999694824</ele>
        <time>2021-08-08T08:29:14.000Z</time>
      </trkpt>
      <trkpt lat="50.67385" lon="5.21634">
        <ele>114.80000305176</ele>
        <time>2021-08-08T08:29:17.000Z</time>
      </trkpt>
      <trkpt lat="50.674" lon="5.21678">
        <ele>114</ele>
        <time>2021-08-08T08:29:21.000Z</time>
      </trkpt>
      <trkpt lat="50.67431" lon="5.21774">
        <ele>112.80000305176</ele>
        <time>2021-08-08T08:29:30.000Z</time>
      </trkpt>
      <trkpt lat="50.67459" lon="5.21891">
        <ele>113.40000152588</ele>
        <time>2021-08-08T08:29:41.000Z</time>
      </trkpt>
      <trkpt lat="50.67461" lon="5.21912">
        <ele>113.40000152588</ele>
        <time>2021-08-08T08:29:43.000Z</time>
      </trkpt>
      <trkpt lat="50.67467" lon="5.21949">
        <ele>113.59999847412</ele>
        <time>2021-08-08T08:29:47.000Z</time>
      </trkpt>
      <trkpt lat="50.67472" lon="5.21956">
        <ele>113.80000305176</ele>
        <time>2021-08-08T08:29:48.000Z</time>
      </trkpt>
      <trkpt lat="50.67484" lon="5.21982">
        <ele>114</ele>
        <time>2021-08-08T08:29:51.000Z</time>
      </trkpt>
      <trkpt lat="50.67501" lon="5.22044">
        <ele>114</ele>
        <time>2021-08-08T08:29:57.000Z</time>
      </trkpt>
      <trkpt lat="50.67524" lon="5.22137">
        <ele>114.19999694824</ele>
        <time>2021-08-08T08:30:06.000Z</time>
      </trkpt>
      <trkpt lat="50.67535" lon="5.22177">
        <ele>114.19999694824</ele>
        <time>2021-08-08T08:30:10.000Z</time>
      </trkpt>
      <trkpt lat="50.67556" lon="5.22246">
        <ele>114.59999847412</ele>
        <time>2021-08-08T08:30:17.000Z</time>
      </trkpt>
      <trkpt lat="50.67563" lon="5.22265">
        <ele>114.80000305176</ele>
        <time>2021-08-08T08:30:19.000Z</time>
      </trkpt>
      <trkpt lat="50.67605" lon="5.2236">
        <ele>116.59999847412</ele>
        <time>2021-08-08T08:30:30.000Z</time>
      </trkpt>
      <trkpt lat="50.67619" lon="5.22394">
        <ele>117</ele>
        <time>2021-08-08T08:30:34.000Z</time>
      </trkpt>
      <trkpt lat="50.67637" lon="5.22435">
        <ele>117.19999694824</ele>
        <time>2021-08-08T08:30:39.000Z</time>
      </trkpt>
      <trkpt lat="50.67663" lon="5.2249">
        <ele>119.19999694824</ele>
        <time>2021-08-08T08:30:46.000Z</time>
      </trkpt>
      <trkpt lat="50.67666" lon="5.22497">
        <ele>119.19999694824</ele>
        <time>2021-08-08T08:30:47.000Z</time>
      </trkpt>
      <trkpt lat="50.67692" lon="5.22541">
        <ele>120.40000152588</ele>
        <time>2021-08-08T08:30:53.000Z</time>
      </trkpt>
      <trkpt lat="50.67715" lon="5.22576">
        <ele>121.19999694824</ele>
        <time>2021-08-08T08:30:58.000Z</time>
      </trkpt>
      <trkpt lat="50.67753" lon="5.22632">
        <ele>122.19999694824</ele>
        <time>2021-08-08T08:31:06.000Z</time>
      </trkpt>
      <trkpt lat="50.67765" lon="5.22638">
        <ele>122.19999694824</ele>
        <time>2021-08-08T08:31:08.000Z</time>
      </trkpt>
      <trkpt lat="50.67786" lon="5.22632">
        <ele>122.19999694824</ele>
        <time>2021-08-08T08:31:11.000Z</time>
      </trkpt>
      <trkpt lat="50.67793" lon="5.22634">
        <ele>122.19999694824</ele>
        <time>2021-08-08T08:31:12.000Z</time>
      </trkpt>
      <trkpt lat="50.67848" lon="5.227">
        <ele>122</ele>
        <time>2021-08-08T08:31:22.000Z</time>
      </trkpt>
      <trkpt lat="50.67905" lon="5.22763">
        <ele>121.59999847412</ele>
        <time>2021-08-08T08:31:31.000Z</time>
      </trkpt>
      <trkpt lat="50.67927" lon="5.22786">
        <ele>121.40000152588</ele>
        <time>2021-08-08T08:31:34.000Z</time>
      </trkpt>
      <trkpt lat="50.67999" lon="5.22875">
        <ele>117.40000152588</ele>
        <time>2021-08-08T08:31:44.000Z</time>
      </trkpt>
      <trkpt lat="50.68006" lon="5.22886">
        <ele>117</ele>
        <time>2021-08-08T08:31:45.000Z</time>
      </trkpt>
      <trkpt lat="50.68053" lon="5.22958">
        <ele>115</ele>
        <time>2021-08-08T08:31:52.000Z</time>
      </trkpt>
      <trkpt lat="50.68093" lon="5.23017">
        <ele>113.59999847412</ele>
        <time>2021-08-08T08:31:58.000Z</time>
      </trkpt>
      <trkpt lat="50.68145" lon="5.2309">
        <ele>112.40000152588</ele>
        <time>2021-08-08T08:32:06.000Z</time>
      </trkpt>
      <trkpt lat="50.68161" lon="5.23101">
        <ele>112.40000152588</ele>
        <time>2021-08-08T08:32:08.000Z</time>
      </trkpt>
      <trkpt lat="50.68226" lon="5.23116">
        <ele>112.19999694824</ele>
        <time>2021-08-08T08:32:16.000Z</time>
      </trkpt>
      <trkpt lat="50.68241" lon="5.23125">
        <ele>112.19999694824</ele>
        <time>2021-08-08T08:32:18.000Z</time>
      </trkpt>
      <trkpt lat="50.68254" lon="5.23138">
        <ele>112.19999694824</ele>
        <time>2021-08-08T08:32:20.000Z</time>
      </trkpt>
      <trkpt lat="50.68272" lon="5.23162">
        <ele>112.19999694824</ele>
        <time>2021-08-08T08:32:23.000Z</time>
      </trkpt>
      <trkpt lat="50.6831" lon="5.23217">
        <ele>112.59999847412</ele>
        <time>2021-08-08T08:32:30.000Z</time>
      </trkpt>
      <trkpt lat="50.68347" lon="5.23269">
        <ele>113.80000305176</ele>
        <time>2021-08-08T08:32:37.000Z</time>
      </trkpt>
      <trkpt lat="50.68367" lon="5.23302">
        <ele>114.19999694824</ele>
        <time>2021-08-08T08:32:41.000Z</time>
      </trkpt>
      <trkpt lat="50.68387" lon="5.23331">
        <ele>114.40000152588</ele>
        <time>2021-08-08T08:32:45.000Z</time>
      </trkpt>
      <trkpt lat="50.68415" lon="5.23378">
        <ele>114.80000305176</ele>
        <time>2021-08-08T08:32:51.000Z</time>
      </trkpt>
      <trkpt lat="50.68458" lon="5.23443">
        <ele>115.80000305176</ele>
        <time>2021-08-08T08:32:59.000Z</time>
      </trkpt>
      <trkpt lat="50.68464" lon="5.2345">
        <ele>115.80000305176</ele>
        <time>2021-08-08T08:33:00.000Z</time>
      </trkpt>
      <trkpt lat="50.68492" lon="5.23481">
        <ele>115.59999847412</ele>
        <time>2021-08-08T08:33:05.000Z</time>
      </trkpt>
      <trkpt lat="50.68504" lon="5.23481">
        <ele>115.40000152588</ele>
        <time>2021-08-08T08:33:07.000Z</time>
      </trkpt>
      <trkpt lat="50.68518" lon="5.2346">
        <ele>115</ele>
        <time>2021-08-08T08:33:10.000Z</time>
      </trkpt>
      <trkpt lat="50.68523" lon="5.23451">
        <ele>114.80000305176</ele>
        <time>2021-08-08T08:33:11.000Z</time>
      </trkpt>
      <trkpt lat="50.68552" lon="5.23397">
        <ele>114.19999694824</ele>
        <time>2021-08-08T08:33:17.000Z</time>
      </trkpt>
      <trkpt lat="50.68587" lon="5.23335">
        <ele>111.40000152588</ele>
        <time>2021-08-08T08:33:24.000Z</time>
      </trkpt>
      <trkpt lat="50.686" lon="5.23304">
        <ele>110.19999694824</ele>
        <time>2021-08-08T08:33:27.000Z</time>
      </trkpt>
      <trkpt lat="50.68604" lon="5.23281">
        <ele>109.59999847412</ele>
        <time>2021-08-08T08:33:29.000Z</time>
      </trkpt>
      <trkpt lat="50.68603" lon="5.23258">
        <ele>109.40000152588</ele>
        <time>2021-08-08T08:33:31.000Z</time>
      </trkpt>
      <trkpt lat="50.68601" lon="5.23207">
        <ele>108.59999847412</ele>
        <time>2021-08-08T08:33:36.000Z</time>
      </trkpt>
      <trkpt lat="50.68604" lon="5.2315">
        <ele>108.40000152588</ele>
        <time>2021-08-08T08:33:41.000Z</time>
      </trkpt>
      <trkpt lat="50.68615" lon="5.23084">
        <ele>108</ele>
        <time>2021-08-08T08:33:47.000Z</time>
      </trkpt>
      <trkpt lat="50.68631" lon="5.23031">
        <ele>107.59999847412</ele>
        <time>2021-08-08T08:33:52.000Z</time>
      </trkpt>
      <trkpt lat="50.68643" lon="5.22991">
        <ele>107.19999694824</ele>
        <time>2021-08-08T08:33:56.000Z</time>
      </trkpt>
      <trkpt lat="50.68659" lon="5.22933">
        <ele>107</ele>
        <time>2021-08-08T08:34:02.000Z</time>
      </trkpt>
      <trkpt lat="50.68675" lon="5.22876">
        <ele>107</ele>
        <time>2021-08-08T08:34:08.000Z</time>
      </trkpt>
      <trkpt lat="50.68704" lon="5.22765">
        <ele>109.40000152588</ele>
        <time>2021-08-08T08:34:20.000Z</time>
      </trkpt>
      <trkpt lat="50.68709" lon="5.22748">
        <ele>109.80000305176</ele>
        <time>2021-08-08T08:34:22.000Z</time>
      </trkpt>
      <trkpt lat="50.68728" lon="5.22709">
        <ele>110.19999694824</ele>
        <time>2021-08-08T08:34:27.000Z</time>
      </trkpt>
      <trkpt lat="50.68763" lon="5.22641">
        <ele>113</ele>
        <time>2021-08-08T08:34:36.000Z</time>
      </trkpt>
      <trkpt lat="50.68791" lon="5.22585">
        <ele>114.19999694824</ele>
        <time>2021-08-08T08:34:43.000Z</time>
      </trkpt>
      <trkpt lat="50.68813" lon="5.22545">
        <ele>114.40000152588</ele>
        <time>2021-08-08T08:34:48.000Z</time>
      </trkpt>
      <trkpt lat="50.68885" lon="5.22418">
        <ele>114.59999847412</ele>
        <time>2021-08-08T08:35:04.000Z</time>
      </trkpt>
      <trkpt lat="50.68895" lon="5.22404">
        <ele>114.80000305176</ele>
        <time>2021-08-08T08:35:06.000Z</time>
      </trkpt>
      <trkpt lat="50.68941" lon="5.22358">
        <ele>115</ele>
        <time>2021-08-08T08:35:14.000Z</time>
      </trkpt>
      <trkpt lat="50.68972" lon="5.2234">
        <ele>115.40000152588</ele>
        <time>2021-08-08T08:35:19.000Z</time>
      </trkpt>
      <trkpt lat="50.69015" lon="5.22319">
        <ele>115.80000305176</ele>
        <time>2021-08-08T08:35:26.000Z</time>
      </trkpt>
      <trkpt lat="50.69034" lon="5.22311">
        <ele>116.59999847412</ele>
        <time>2021-08-08T08:35:29.000Z</time>
      </trkpt>
      <trkpt lat="50.69087" lon="5.22279">
        <ele>119</ele>
        <time>2021-08-08T08:35:38.000Z</time>
      </trkpt>
      <trkpt lat="50.69133" lon="5.2225">
        <ele>120.59999847412</ele>
        <time>2021-08-08T08:35:46.000Z</time>
      </trkpt>
      <trkpt lat="50.69144" lon="5.22242">
        <ele>121.19999694824</ele>
        <time>2021-08-08T08:35:48.000Z</time>
      </trkpt>
      <trkpt lat="50.69172" lon="5.22224">
        <ele>122.19999694824</ele>
        <time>2021-08-08T08:35:53.000Z</time>
      </trkpt>
      <trkpt lat="50.69211" lon="5.22198">
        <ele>123.80000305176</ele>
        <time>2021-08-08T08:36:00.000Z</time>
      </trkpt>
      <trkpt lat="50.6926" lon="5.22153">
        <ele>125.80000305176</ele>
        <time>2021-08-08T08:36:09.000Z</time>
      </trkpt>
      <trkpt lat="50.69276" lon="5.22133">
        <ele>125.80000305176</ele>
        <time>2021-08-08T08:36:12.000Z</time>
      </trkpt>
      <trkpt lat="50.69305" lon="5.22091">
        <ele>126</ele>
        <time>2021-08-08T08:36:18.000Z</time>
      </trkpt>
      <trkpt lat="50.69344" lon="5.2203">
        <ele>126.19999694824</ele>
        <time>2021-08-08T08:36:26.000Z</time>
      </trkpt>
      <trkpt lat="50.6936" lon="5.22006">
        <ele>126.19999694824</ele>
        <time>2021-08-08T08:36:29.000Z</time>
      </trkpt>
      <trkpt lat="50.69365" lon="5.21998">
        <ele>126.19999694824</ele>
        <time>2021-08-08T08:36:30.000Z</time>
      </trkpt>
      <trkpt lat="50.69385" lon="5.21968">
        <ele>125.59999847412</ele>
        <time>2021-08-08T08:36:34.000Z</time>
      </trkpt>
      <trkpt lat="50.69408" lon="5.21974">
        <ele>124.59999847412</ele>
        <time>2021-08-08T08:36:38.000Z</time>
      </trkpt>
      <trkpt lat="50.69413" lon="5.21981">
        <ele>124.40000152588</ele>
        <time>2021-08-08T08:36:39.000Z</time>
      </trkpt>
      <trkpt lat="50.69449" lon="5.2203">
        <ele>123.59999847412</ele>
        <time>2021-08-08T08:36:45.000Z</time>
      </trkpt>
      <trkpt lat="50.69464" lon="5.22044">
        <ele>123.40000152588</ele>
        <time>2021-08-08T08:36:47.000Z</time>
      </trkpt>
      <trkpt lat="50.69517" lon="5.22094">
        <ele>120.19999694824</ele>
        <time>2021-08-08T08:36:54.000Z</time>
      </trkpt>
      <trkpt lat="50.69559" lon="5.22141">
        <ele>119.19999694824</ele>
        <time>2021-08-08T08:37:00.000Z</time>
      </trkpt>
      <trkpt lat="50.69611" lon="5.22207">
        <ele>118.19999694824</ele>
        <time>2021-08-08T08:37:08.000Z</time>
      </trkpt>
      <trkpt lat="50.69618" lon="5.22216">
        <ele>118.19999694824</ele>
        <time>2021-08-08T08:37:09.000Z</time>
      </trkpt>
      <trkpt lat="50.69674" lon="5.22294">
        <ele>117</ele>
        <time>2021-08-08T08:37:18.000Z</time>
      </trkpt>
      <trkpt lat="50.69686" lon="5.22312">
        <ele>117</ele>
        <time>2021-08-08T08:37:20.000Z</time>
      </trkpt>
      <trkpt lat="50.69782" lon="5.22412">
        <ele>116.40000152588</ele>
        <time>2021-08-08T08:37:35.000Z</time>
      </trkpt>
      <trkpt lat="50.69794" lon="5.22423">
        <ele>116.19999694824</ele>
        <time>2021-08-08T08:37:37.000Z</time>
      </trkpt>
      <trkpt lat="50.69806" lon="5.22423">
        <ele>116.19999694824</ele>
        <time>2021-08-08T08:37:39.000Z</time>
      </trkpt>
      <trkpt lat="50.69857" lon="5.22338">
        <ele>116</ele>
        <time>2021-08-08T08:37:50.000Z</time>
      </trkpt>
      <trkpt lat="50.69867" lon="5.22322">
        <ele>116</ele>
        <time>2021-08-08T08:37:52.000Z</time>
      </trkpt>
      <trkpt lat="50.69917" lon="5.22239">
        <ele>117</ele>
        <time>2021-08-08T08:38:03.000Z</time>
      </trkpt>
      <trkpt lat="50.69931" lon="5.22217">
        <ele>117.19999694824</ele>
        <time>2021-08-08T08:38:06.000Z</time>
      </trkpt>
      <trkpt lat="50.69966" lon="5.22161">
        <ele>117.40000152588</ele>
        <time>2021-08-08T08:38:13.000Z</time>
      </trkpt>
      <trkpt lat="50.69987" lon="5.22126">
        <ele>117.40000152588</ele>
        <time>2021-08-08T08:38:17.000Z</time>
      </trkpt>
      <trkpt lat="50.70021" lon="5.22074">
        <ele>116</ele>
        <time>2021-08-08T08:38:23.000Z</time>
      </trkpt>
      <trkpt lat="50.70027" lon="5.22067">
        <ele>115.80000305176</ele>
        <time>2021-08-08T08:38:24.000Z</time>
      </trkpt>
      <trkpt lat="50.70042" lon="5.22062">
        <ele>115.59999847412</ele>
        <time>2021-08-08T08:38:26.000Z</time>
      </trkpt>
      <trkpt lat="50.70072" lon="5.22072">
        <ele>115</ele>
        <time>2021-08-08T08:38:30.000Z</time>
      </trkpt>
      <trkpt lat="50.70086" lon="5.2208">
        <ele>114.19999694824</ele>
        <time>2021-08-08T08:38:32.000Z</time>
      </trkpt>
      <trkpt lat="50.70108" lon="5.22093">
        <ele>113.40000152588</ele>
        <time>2021-08-08T08:38:35.000Z</time>
      </trkpt>
      <trkpt lat="50.70142" lon="5.22118">
        <ele>112.80000305176</ele>
        <time>2021-08-08T08:38:40.000Z</time>
      </trkpt>
      <trkpt lat="50.70161" lon="5.22133">
        <ele>112.19999694824</ele>
        <time>2021-08-08T08:38:43.000Z</time>
      </trkpt>
      <trkpt lat="50.70168" lon="5.22135">
        <ele>112.19999694824</ele>
        <time>2021-08-08T08:38:44.000Z</time>
      </trkpt>
      <trkpt lat="50.70184" lon="5.22123">
        <ele>111.80000305176</ele>
        <time>2021-08-08T08:38:47.000Z</time>
      </trkpt>
      <trkpt lat="50.70188" lon="5.22115">
        <ele>111.80000305176</ele>
        <time>2021-08-08T08:38:48.000Z</time>
      </trkpt>
      <trkpt lat="50.70212" lon="5.22084">
        <ele>111.40000152588</ele>
        <time>2021-08-08T08:38:53.000Z</time>
      </trkpt>
      <trkpt lat="50.70225" lon="5.2209">
        <ele>111.19999694824</ele>
        <time>2021-08-08T08:38:55.000Z</time>
      </trkpt>
      <trkpt lat="50.70249" lon="5.22103">
        <ele>110.80000305176</ele>
        <time>2021-08-08T08:38:59.000Z</time>
      </trkpt>
      <trkpt lat="50.70255" lon="5.221">
        <ele>110.80000305176</ele>
        <time>2021-08-08T08:39:00.000Z</time>
      </trkpt>
      <trkpt lat="50.70262" lon="5.22085">
        <ele>110.80000305176</ele>
        <time>2021-08-08T08:39:02.000Z</time>
      </trkpt>
      <trkpt lat="50.70281" lon="5.22007">
        <ele>110.59999847412</ele>
        <time>2021-08-08T08:39:10.000Z</time>
      </trkpt>
      <trkpt lat="50.70286" lon="5.21988">
        <ele>110.59999847412</ele>
        <time>2021-08-08T08:39:12.000Z</time>
      </trkpt>
      <trkpt lat="50.70312" lon="5.21889">
        <ele>111.59999847412</ele>
        <time>2021-08-08T08:39:23.000Z</time>
      </trkpt>
      <trkpt lat="50.70322" lon="5.21844">
        <ele>112.59999847412</ele>
        <time>2021-08-08T08:39:28.000Z</time>
      </trkpt>
      <trkpt lat="50.70345" lon="5.21747">
        <ele>114</ele>
        <time>2021-08-08T08:39:39.000Z</time>
      </trkpt>
      <trkpt lat="50.7035" lon="5.21729">
        <ele>114.19999694824</ele>
        <time>2021-08-08T08:39:41.000Z</time>
      </trkpt>
      <trkpt lat="50.70366" lon="5.21675">
        <ele>114.59999847412</ele>
        <time>2021-08-08T08:39:47.000Z</time>
      </trkpt>
      <trkpt lat="50.7038" lon="5.2162">
        <ele>115.59999847412</ele>
        <time>2021-08-08T08:39:53.000Z</time>
      </trkpt>
      <trkpt lat="50.70401" lon="5.21565">
        <ele>116.19999694824</ele>
        <time>2021-08-08T08:39:59.000Z</time>
      </trkpt>
      <trkpt lat="50.70411" lon="5.21569">
        <ele>116.19999694824</ele>
        <time>2021-08-08T08:40:00.000Z</time>
      </trkpt>
      <trkpt lat="50.70418" lon="5.21574">
        <ele>116</ele>
        <time>2021-08-08T08:40:03.000Z</time>
      </trkpt>
      <trkpt lat="50.7043" lon="5.21679">
        <ele>116.80000305176</ele>
        <time>2021-08-08T08:40:15.000Z</time>
      </trkpt>
      <trkpt lat="50.70438" lon="5.21733">
        <ele>116.80000305176</ele>
        <time>2021-08-08T08:40:20.000Z</time>
      </trkpt>
      <trkpt lat="50.70451" lon="5.21821">
        <ele>116.19999694824</ele>
        <time>2021-08-08T08:40:28.000Z</time>
      </trkpt>
      <trkpt lat="50.70459" lon="5.21878">
        <ele>115.19999694824</ele>
        <time>2021-08-08T08:40:33.000Z</time>
      </trkpt>
      <trkpt lat="50.70469" lon="5.21948">
        <ele>114</ele>
        <time>2021-08-08T08:40:39.000Z</time>
      </trkpt>
      <trkpt lat="50.70479" lon="5.22018">
        <ele>113.19999694824</ele>
        <time>2021-08-08T08:40:45.000Z</time>
      </trkpt>
      <trkpt lat="50.70488" lon="5.22078">
        <ele>112.19999694824</ele>
        <time>2021-08-08T08:40:50.000Z</time>
      </trkpt>
      <trkpt lat="50.70494" lon="5.22126">
        <ele>111.80000305176</ele>
        <time>2021-08-08T08:40:54.000Z</time>
      </trkpt>
      <trkpt lat="50.70508" lon="5.22224">
        <ele>110</ele>
        <time>2021-08-08T08:41:02.000Z</time>
      </trkpt>
      <trkpt lat="50.70515" lon="5.22297">
        <ele>109.59999847412</ele>
        <time>2021-08-08T08:41:08.000Z</time>
      </trkpt>
      <trkpt lat="50.70524" lon="5.224">
        <ele>109.19999694824</ele>
        <time>2021-08-08T08:41:17.000Z</time>
      </trkpt>
      <trkpt lat="50.70532" lon="5.225">
        <ele>109</ele>
        <time>2021-08-08T08:41:26.000Z</time>
      </trkpt>
      <trkpt lat="50.7054" lon="5.22587">
        <ele>109.19999694824</ele>
        <time>2021-08-08T08:41:34.000Z</time>
      </trkpt>
      <trkpt lat="50.70542" lon="5.22608">
        <ele>109.19999694824</ele>
        <time>2021-08-08T08:41:36.000Z</time>
      </trkpt>
      <trkpt lat="50.7055" lon="5.22694">
        <ele>109.59999847412</ele>
        <time>2021-08-08T08:41:44.000Z</time>
      </trkpt>
      <trkpt lat="50.70561" lon="5.22813">
        <ele>109.80000305176</ele>
        <time>2021-08-08T08:41:55.000Z</time>
      </trkpt>
      <trkpt lat="50.70563" lon="5.22834">
        <ele>109.80000305176</ele>
        <time>2021-08-08T08:41:57.000Z</time>
      </trkpt>
      <trkpt lat="50.70576" lon="5.2295">
        <ele>110.40000152588</ele>
        <time>2021-08-08T08:42:08.000Z</time>
      </trkpt>
      <trkpt lat="50.70587" lon="5.23035">
        <ele>110.80000305176</ele>
        <time>2021-08-08T08:42:16.000Z</time>
      </trkpt>
      <trkpt lat="50.70594" lon="5.23089">
        <ele>110.40000152588</ele>
        <time>2021-08-08T08:42:21.000Z</time>
      </trkpt>
      <trkpt lat="50.70601" lon="5.23133">
        <ele>110.40000152588</ele>
        <time>2021-08-08T08:42:25.000Z</time>
      </trkpt>
      <trkpt lat="50.70621" lon="5.23223">
        <ele>110</ele>
        <time>2021-08-08T08:42:33.000Z</time>
      </trkpt>
      <trkpt lat="50.70629" lon="5.23282">
        <ele>109.19999694824</ele>
        <time>2021-08-08T08:42:38.000Z</time>
      </trkpt>
      <trkpt lat="50.70646" lon="5.23404">
        <ele>107.19999694824</ele>
        <time>2021-08-08T08:42:49.000Z</time>
      </trkpt>
      <trkpt lat="50.70653" lon="5.23423">
        <ele>107.19999694824</ele>
        <time>2021-08-08T08:42:51.000Z</time>
      </trkpt>
      <trkpt lat="50.70663" lon="5.23437">
        <ele>107.19999694824</ele>
        <time>2021-08-08T08:42:53.000Z</time>
      </trkpt>
      <trkpt lat="50.7071" lon="5.23481">
        <ele>107.19999694824</ele>
        <time>2021-08-08T08:43:01.000Z</time>
      </trkpt>
      <trkpt lat="50.70723" lon="5.23481">
        <ele>107.19999694824</ele>
        <time>2021-08-08T08:43:03.000Z</time>
      </trkpt>
      <trkpt lat="50.70791" lon="5.23451">
        <ele>107.19999694824</ele>
        <time>2021-08-08T08:43:13.000Z</time>
      </trkpt>
      <trkpt lat="50.70804" lon="5.23455">
        <ele>107.40000152588</ele>
        <time>2021-08-08T08:43:15.000Z</time>
      </trkpt>
      <trkpt lat="50.70814" lon="5.23469">
        <ele>107.40000152588</ele>
        <time>2021-08-08T08:43:17.000Z</time>
      </trkpt>
      <trkpt lat="50.70819" lon="5.23476">
        <ele>107.40000152588</ele>
        <time>2021-08-08T08:43:18.000Z</time>
      </trkpt>
      <trkpt lat="50.70837" lon="5.23504">
        <ele>107.40000152588</ele>
        <time>2021-08-08T08:43:22.000Z</time>
      </trkpt>
      <trkpt lat="50.70842" lon="5.23508">
        <ele>107.40000152588</ele>
        <time>2021-08-08T08:43:23.000Z</time>
      </trkpt>
      <trkpt lat="50.70852" lon="5.23511">
        <ele>107.80000305176</ele>
        <time>2021-08-08T08:43:25.000Z</time>
      </trkpt>
      <trkpt lat="50.70874" lon="5.23497">
        <ele>109.40000152588</ele>
        <time>2021-08-08T08:43:29.000Z</time>
      </trkpt>
      <trkpt lat="50.709" lon="5.23475">
        <ele>111.40000152588</ele>
        <time>2021-08-08T08:43:34.000Z</time>
      </trkpt>
      <trkpt lat="50.70911" lon="5.23477">
        <ele>111.59999847412</ele>
        <time>2021-08-08T08:43:36.000Z</time>
      </trkpt>
      <trkpt lat="50.70914" lon="5.23483">
        <ele>111.80000305176</ele>
        <time>2021-08-08T08:43:37.000Z</time>
      </trkpt>
      <trkpt lat="50.70924" lon="5.23525">
        <ele>112.59999847412</ele>
        <time>2021-08-08T08:43:42.000Z</time>
      </trkpt>
      <trkpt lat="50.70938" lon="5.23577">
        <ele>114.40000152588</ele>
        <time>2021-08-08T08:43:48.000Z</time>
      </trkpt>
      <trkpt lat="50.70953" lon="5.2364">
        <ele>115.80000305176</ele>
        <time>2021-08-08T08:43:55.000Z</time>
      </trkpt>
      <trkpt lat="50.70952" lon="5.2366">
        <ele>115.80000305176</ele>
        <time>2021-08-08T08:43:57.000Z</time>
      </trkpt>
      <trkpt lat="50.70931" lon="5.23732">
        <ele>116.19999694824</ele>
        <time>2021-08-08T08:44:05.000Z</time>
      </trkpt>
      <trkpt lat="50.70929" lon="5.23753">
        <ele>116.40000152588</ele>
        <time>2021-08-08T08:44:07.000Z</time>
      </trkpt>
      <trkpt lat="50.70928" lon="5.23787">
        <ele>116.19999694824</ele>
        <time>2021-08-08T08:44:10.000Z</time>
      </trkpt>
      <trkpt lat="50.70924" lon="5.23836">
        <ele>115.80000305176</ele>
        <time>2021-08-08T08:44:14.000Z</time>
      </trkpt>
      <trkpt lat="50.70922" lon="5.23862">
        <ele>115.80000305176</ele>
        <time>2021-08-08T08:44:16.000Z</time>
      </trkpt>
      <trkpt lat="50.70919" lon="5.23889">
        <ele>115.40000152588</ele>
        <time>2021-08-08T08:44:18.000Z</time>
      </trkpt>
      <trkpt lat="50.70915" lon="5.23915">
        <ele>114.59999847412</ele>
        <time>2021-08-08T08:44:20.000Z</time>
      </trkpt>
      <trkpt lat="50.70911" lon="5.23939">
        <ele>113.80000305176</ele>
        <time>2021-08-08T08:44:22.000Z</time>
      </trkpt>
      <trkpt lat="50.70906" lon="5.23964">
        <ele>113.19999694824</ele>
        <time>2021-08-08T08:44:24.000Z</time>
      </trkpt>
      <trkpt lat="50.70894" lon="5.24032">
        <ele>111.19999694824</ele>
        <time>2021-08-08T08:44:30.000Z</time>
      </trkpt>
      <trkpt lat="50.70892" lon="5.24065">
        <ele>110.80000305176</ele>
        <time>2021-08-08T08:44:33.000Z</time>
      </trkpt>
      <trkpt lat="50.70892" lon="5.24088">
        <ele>110.80000305176</ele>
        <time>2021-08-08T08:44:35.000Z</time>
      </trkpt>
      <trkpt lat="50.70896" lon="5.24151">
        <ele>110.80000305176</ele>
        <time>2021-08-08T08:44:41.000Z</time>
      </trkpt>
      <trkpt lat="50.70878" lon="5.2418">
        <ele>119.2</ele>
        <time>2021-08-08T08:44:44.000Z</time>
      </trkpt>
      <trkpt lat="50.70836" lon="5.24213">
        <ele>118.1</ele>
        <time>2021-08-08T08:44:49.000Z</time>
      </trkpt>
      <trkpt lat="50.70733" lon="5.2431">
        <ele>119.8</ele>
        <time>2021-08-08T08:45:08.000Z</time>
      </trkpt>
      <trkpt lat="50.70633" lon="5.24396">
        <ele>115.3</ele>
        <time>2021-08-08T08:45:12.000Z</time>
      </trkpt>
      <trkpt lat="50.70565" lon="5.24457">
        <ele>116.7</ele>
        <time>2021-08-08T08:45:14.000Z</time>
      </trkpt>
      <trkpt lat="50.70504" lon="5.24547">
        <ele>114.9</ele>
        <time>2021-08-08T08:45:21.000Z</time>
      </trkpt>
      <trkpt lat="50.70447" lon="5.24643">
        <ele>115</ele>
        <time>2021-08-08T08:45:23.000Z</time>
      </trkpt>
      <trkpt lat="50.70314" lon="5.24875">
        <ele>119.9</ele>
      </trkpt>
      <trkpt lat="50.70173" lon="5.25149">
        <ele>120</ele>
      </trkpt>
      <trkpt lat="50.70086" lon="5.25361">
        <ele>114.1</ele>
      </trkpt>
      <trkpt lat="50.69969" lon="5.25635">
        <ele>113.1</ele>
      </trkpt>
      <trkpt lat="50.70038" lon="5.25726">
        <ele>114</ele>
      </trkpt>
      <trkpt lat="50.69957" lon="5.2587">
        <ele>117.4</ele>
      </trkpt>
      <trkpt lat="50.69852" lon="5.26019">
        <ele>119.1</ele>
      </trkpt>
      <trkpt lat="50.69818" lon="5.26039">
        <ele>119</ele>
      </trkpt>
      <trkpt lat="50.69801" lon="5.26032">
        <ele>119</ele>
      </trkpt>
      <trkpt lat="50.6979" lon="5.26069">
        <ele>118.8</ele>
      </trkpt>
      <trkpt lat="50.69809" lon="5.26085">
        <ele>118.1</ele>
      </trkpt>
      <trkpt lat="50.69848" lon="5.26317">
        <ele>116.3</ele>
      </trkpt>
      <trkpt lat="50.69947" lon="5.26585">
        <ele>117.1</ele>
      </trkpt>
      <trkpt lat="50.70047" lon="5.26744">
        <ele>119</ele>
      </trkpt>
      <trkpt lat="50.70236" lon="5.26886">
        <ele>121.4</ele>
      </trkpt>
      <trkpt lat="50.70345" lon="5.27048">
        <ele>119</ele>
      </trkpt>
      <trkpt lat="50.70618" lon="5.27316">
        <ele>119.7</ele>
      </trkpt>
      <trkpt lat="50.70703" lon="5.27402">
        <ele>117.5</ele>
      </trkpt>
      <trkpt lat="50.70749" lon="5.27477">
        <ele>115.7</ele>
      </trkpt>
      <trkpt lat="50.70795" lon="5.27609">
        <ele>113.4</ele>
      </trkpt>
      <trkpt lat="50.70922" lon="5.27748">
        <ele>111</ele>
      </trkpt>
      <trkpt lat="50.71028" lon="5.27852">
        <ele>99.599998474121</ele>
        <time>2021-08-08T08:51:25.000Z</time>
      </trkpt>
      <trkpt lat="50.71029" lon="5.2785">
        <ele>98.599998474121</ele>
        <time>2021-08-08T09:18:25.000Z</time>
      </trkpt>
      <trkpt lat="50.71031" lon="5.27855">
        <ele>98.800003051758</ele>
        <time>2021-08-08T09:18:56.000Z</time>
      </trkpt>
      <trkpt lat="50.71033" lon="5.2789">
        <ele>98.599998474121</ele>
        <time>2021-08-08T09:19:08.000Z</time>
      </trkpt>
      <trkpt lat="50.7103" lon="5.27915">
        <ele>98.199996948242</ele>
        <time>2021-08-08T09:19:15.000Z</time>
      </trkpt>
      <trkpt lat="50.71021" lon="5.28009">
        <ele>98.400001525879</ele>
        <time>2021-08-08T09:19:30.000Z</time>
      </trkpt>
      <trkpt lat="50.71017" lon="5.28053">
        <ele>98.599998474121</ele>
        <time>2021-08-08T09:19:37.000Z</time>
      </trkpt>
      <trkpt lat="50.71006" lon="5.28072">
        <ele>98.400001525879</ele>
        <time>2021-08-08T09:19:42.000Z</time>
      </trkpt>
      <trkpt lat="50.71005" lon="5.28084">
        <ele>98.599998474121</ele>
        <time>2021-08-08T09:19:44.000Z</time>
      </trkpt>
      <trkpt lat="50.71008" lon="5.28103">
        <ele>98.400001525879</ele>
        <time>2021-08-08T09:19:47.000Z</time>
      </trkpt>
      <trkpt lat="50.71016" lon="5.28113">
        <ele>98.599998474121</ele>
        <time>2021-08-08T09:19:49.000Z</time>
      </trkpt>
      <trkpt lat="50.71058" lon="5.28136">
        <ele>98.400001525879</ele>
        <time>2021-08-08T09:19:57.000Z</time>
      </trkpt>
      <trkpt lat="50.7112" lon="5.28171">
        <ele>98.199996948242</ele>
        <time>2021-08-08T09:20:08.000Z</time>
      </trkpt>
      <trkpt lat="50.71125" lon="5.28176">
        <ele>98.199996948242</ele>
        <time>2021-08-08T09:20:09.000Z</time>
      </trkpt>
      <trkpt lat="50.71142" lon="5.28169">
        <ele>109.4</ele>
      </trkpt>
      <trkpt lat="50.71161" lon="5.28167">
        <ele>110.7</ele>
        <time>2021-08-08T09:20:12.000Z</time>
      </trkpt>
      <trkpt lat="50.71181" lon="5.28165">
        <ele>112.2</ele>
        <time>2021-08-08T09:20:16.000Z</time>
      </trkpt>
      <trkpt lat="50.71201" lon="5.2816">
        <ele>114</ele>
        <time>2021-08-08T09:20:20.000Z</time>
      </trkpt>
      <trkpt lat="50.71213" lon="5.28156">
        <ele>115.3</ele>
        <time>2021-08-08T09:20:23.000Z</time>
      </trkpt>
      <trkpt lat="50.71229" lon="5.28151">
        <ele>115.9</ele>
        <time>2021-08-08T09:20:27.000Z</time>
      </trkpt>
      <trkpt lat="50.71246" lon="5.28146">
        <ele>115.8</ele>
        <time>2021-08-08T09:20:28.000Z</time>
      </trkpt>
      <trkpt lat="50.71253" lon="5.28163">
        <ele>115.2</ele>
        <time>2021-08-08T09:20:36.000Z</time>
      </trkpt>
      <trkpt lat="50.7125" lon="5.28214">
        <ele>114.3</ele>
        <time>2021-08-08T09:20:37.000Z</time>
      </trkpt>
      <trkpt lat="50.71228" lon="5.28288">
        <ele>113.6</ele>
        <time>2021-08-08T09:20:40.000Z</time>
      </trkpt>
      <trkpt lat="50.71233" lon="5.28325">
        <ele>102.19999694824</ele>
        <time>2021-08-08T09:20:42.000Z</time>
      </trkpt>
      <trkpt lat="50.71242" lon="5.28361">
        <ele>102.59999847412</ele>
        <time>2021-08-08T09:20:46.000Z</time>
      </trkpt>
      <trkpt lat="50.71265" lon="5.28452">
        <ele>103.19999694824</ele>
        <time>2021-08-08T09:20:55.000Z</time>
      </trkpt>
      <trkpt lat="50.71273" lon="5.28472">
        <ele>103.40000152588</ele>
        <time>2021-08-08T09:20:57.000Z</time>
      </trkpt>
      <trkpt lat="50.71284" lon="5.28501">
        <ele>103.59999847412</ele>
        <time>2021-08-08T09:21:00.000Z</time>
      </trkpt>
      <trkpt lat="50.71295" lon="5.28531">
        <ele>103.80000305176</ele>
        <time>2021-08-08T09:21:03.000Z</time>
      </trkpt>
      <trkpt lat="50.71335" lon="5.28626">
        <ele>104.40000152588</ele>
        <time>2021-08-08T09:21:13.000Z</time>
      </trkpt>
      <trkpt lat="50.71339" lon="5.28634">
        <ele>104.19999694824</ele>
        <time>2021-08-08T09:21:14.000Z</time>
      </trkpt>
      <trkpt lat="50.71393" lon="5.28716">
        <ele>104.19999694824</ele>
        <time>2021-08-08T09:21:27.000Z</time>
      </trkpt>
      <trkpt lat="50.71402" lon="5.28728">
        <ele>104.40000152588</ele>
        <time>2021-08-08T09:21:29.000Z</time>
      </trkpt>
      <trkpt lat="50.71427" lon="5.28759">
        <ele>104.40000152588</ele>
        <time>2021-08-08T09:21:34.000Z</time>
      </trkpt>
      <trkpt lat="50.71443" lon="5.28777">
        <ele>104.19999694824</ele>
        <time>2021-08-08T09:21:37.000Z</time>
      </trkpt>
      <trkpt lat="50.71494" lon="5.28858">
        <ele>103.80000305176</ele>
        <time>2021-08-08T09:21:48.000Z</time>
      </trkpt>
      <trkpt lat="50.71503" lon="5.28897">
        <ele>103.80000305176</ele>
        <time>2021-08-08T09:21:52.000Z</time>
      </trkpt>
      <trkpt lat="50.71506" lon="5.28917">
        <ele>103.80000305176</ele>
        <time>2021-08-08T09:21:54.000Z</time>
      </trkpt>
      <trkpt lat="50.71524" lon="5.29033">
        <ele>103.80000305176</ele>
        <time>2021-08-08T09:22:05.000Z</time>
      </trkpt>
      <trkpt lat="50.71546" lon="5.29121">
        <ele>104.40000152588</ele>
        <time>2021-08-08T09:22:14.000Z</time>
      </trkpt>
      <trkpt lat="50.71562" lon="5.29181">
        <ele>105.19999694824</ele>
        <time>2021-08-08T09:22:21.000Z</time>
      </trkpt>
      <trkpt lat="50.71578" lon="5.29239">
        <ele>105.59999847412</ele>
        <time>2021-08-08T09:22:28.000Z</time>
      </trkpt>
      <trkpt lat="50.71591" lon="5.29294">
        <ele>105.40000152588</ele>
        <time>2021-08-08T09:22:34.000Z</time>
      </trkpt>
      <trkpt lat="50.71589" lon="5.29303">
        <ele>105.40000152588</ele>
        <time>2021-08-08T09:22:35.000Z</time>
      </trkpt>
      <trkpt lat="50.71579" lon="5.29315">
        <ele>105.19999694824</ele>
        <time>2021-08-08T09:22:37.000Z</time>
      </trkpt>
      <trkpt lat="50.71573" lon="5.29318">
        <ele>104.80000305176</ele>
        <time>2021-08-08T09:22:38.000Z</time>
      </trkpt>
      <trkpt lat="50.71559" lon="5.29321">
        <ele>104.59999847412</ele>
        <time>2021-08-08T09:22:40.000Z</time>
      </trkpt>
      <trkpt lat="50.7151" lon="5.29333">
        <ele>101.80000305176</ele>
        <time>2021-08-08T09:22:47.000Z</time>
      </trkpt>
      <trkpt lat="50.71458" lon="5.29345">
        <ele>100.40000152588</ele>
        <time>2021-08-08T09:22:54.000Z</time>
      </trkpt>
      <trkpt lat="50.71431" lon="5.29357">
        <ele>98.800003051758</ele>
        <time>2021-08-08T09:22:58.000Z</time>
      </trkpt>
      <trkpt lat="50.71418" lon="5.29366">
        <ele>99</ele>
        <time>2021-08-08T09:23:00.000Z</time>
      </trkpt>
      <trkpt lat="50.71388" lon="5.29402">
        <ele>98.400001525879</ele>
        <time>2021-08-08T09:23:05.000Z</time>
      </trkpt>
      <trkpt lat="50.71383" lon="5.29411">
        <ele>98.400001525879</ele>
        <time>2021-08-08T09:23:06.000Z</time>
      </trkpt>
      <trkpt lat="50.71362" lon="5.2945">
        <ele>97.599998474121</ele>
        <time>2021-08-08T09:23:10.000Z</time>
      </trkpt>
      <trkpt lat="50.71355" lon="5.29458">
        <ele>97.599998474121</ele>
        <time>2021-08-08T09:23:11.000Z</time>
      </trkpt>
      <trkpt lat="50.71335" lon="5.29476">
        <ele>96.800003051758</ele>
        <time>2021-08-08T09:23:14.000Z</time>
      </trkpt>
      <trkpt lat="50.71302" lon="5.29498">
        <ele>94.800003051758</ele>
        <time>2021-08-08T09:23:19.000Z</time>
      </trkpt>
      <trkpt lat="50.71277" lon="5.29513">
        <ele>94.400001525879</ele>
        <time>2021-08-08T09:23:23.000Z</time>
      </trkpt>
      <trkpt lat="50.71235" lon="5.29538">
        <ele>94.400001525879</ele>
        <time>2021-08-08T09:23:30.000Z</time>
      </trkpt>
      <trkpt lat="50.7119" lon="5.29565">
        <ele>95.400001525879</ele>
        <time>2021-08-08T09:23:38.000Z</time>
      </trkpt>
      <trkpt lat="50.71175" lon="5.29579">
        <ele>95.800003051758</ele>
        <time>2021-08-08T09:23:42.000Z</time>
      </trkpt>
      <trkpt lat="50.71175" lon="5.29586">
        <ele>95.800003051758</ele>
        <time>2021-08-08T09:23:43.000Z</time>
      </trkpt>
      <trkpt lat="50.7119" lon="5.29656">
        <ele>96.800003051758</ele>
        <time>2021-08-08T09:23:51.000Z</time>
      </trkpt>
      <trkpt lat="50.71188" lon="5.29676">
        <ele>97.199996948242</ele>
        <time>2021-08-08T09:23:53.000Z</time>
      </trkpt>
      <trkpt lat="50.71171" lon="5.29708">
        <ele>97.199996948242</ele>
        <time>2021-08-08T09:23:57.000Z</time>
      </trkpt>
      <trkpt lat="50.71165" lon="5.29727">
        <ele>97.400001525879</ele>
        <time>2021-08-08T09:23:59.000Z</time>
      </trkpt>
      <trkpt lat="50.71164" lon="5.29759">
        <ele>97</ele>
        <time>2021-08-08T09:24:02.000Z</time>
      </trkpt>
      <trkpt lat="50.7117" lon="5.29838">
        <ele>96.199996948242</ele>
        <time>2021-08-08T09:24:09.000Z</time>
      </trkpt>
      <trkpt lat="50.71172" lon="5.29895">
        <ele>95.599998474121</ele>
        <time>2021-08-08T09:24:14.000Z</time>
      </trkpt>
      <trkpt lat="50.71167" lon="5.29939">
        <ele>95.400001525879</ele>
        <time>2021-08-08T09:24:18.000Z</time>
      </trkpt>
      <trkpt lat="50.71158" lon="5.30014">
        <ele>95.599998474121</ele>
        <time>2021-08-08T09:24:25.000Z</time>
      </trkpt>
      <trkpt lat="50.71145" lon="5.30049">
        <ele>95.800003051758</ele>
        <time>2021-08-08T09:24:29.000Z</time>
      </trkpt>
      <trkpt lat="50.71116" lon="5.30085">
        <ele>96</ele>
        <time>2021-08-08T09:24:35.000Z</time>
      </trkpt>
      <trkpt lat="50.71075" lon="5.30157">
        <ele>96.400001525879</ele>
        <time>2021-08-08T09:24:45.000Z</time>
      </trkpt>
      <trkpt lat="50.71068" lon="5.30172">
        <ele>96.599998474121</ele>
        <time>2021-08-08T09:24:47.000Z</time>
      </trkpt>
      <trkpt lat="50.71037" lon="5.30232">
        <ele>97.199996948242</ele>
        <time>2021-08-08T09:24:55.000Z</time>
      </trkpt>
      <trkpt lat="50.71033" lon="5.3024">
        <ele>97.400001525879</ele>
        <time>2021-08-08T09:24:56.000Z</time>
      </trkpt>
      <trkpt lat="50.70996" lon="5.30313">
        <ele>98.800003051758</ele>
        <time>2021-08-08T09:25:05.000Z</time>
      </trkpt>
      <trkpt lat="50.70991" lon="5.30321">
        <ele>98.800003051758</ele>
        <time>2021-08-08T09:25:06.000Z</time>
      </trkpt>
      <trkpt lat="50.7096" lon="5.30381">
        <ele>99</ele>
        <time>2021-08-08T09:25:14.000Z</time>
      </trkpt>
      <trkpt lat="50.70957" lon="5.30388">
        <ele>99</ele>
        <time>2021-08-08T09:25:15.000Z</time>
      </trkpt>
      <trkpt lat="50.70936" lon="5.30429">
        <ele>99.400001525879</ele>
        <time>2021-08-08T09:25:21.000Z</time>
      </trkpt>
      <trkpt lat="50.70926" lon="5.30447">
        <ele>100.80000305176</ele>
        <time>2021-08-08T09:25:24.000Z</time>
      </trkpt>
      <trkpt lat="50.70919" lon="5.3046">
        <ele>101.80000305176</ele>
        <time>2021-08-08T09:25:27.000Z</time>
      </trkpt>
      <trkpt lat="50.70911" lon="5.30475">
        <ele>103.80000305176</ele>
        <time>2021-08-08T09:25:33.000Z</time>
      </trkpt>
      <trkpt lat="50.70901" lon="5.30495">
        <ele>104.59999847412</ele>
        <time>2021-08-08T09:25:37.000Z</time>
      </trkpt>
      <trkpt lat="50.70887" lon="5.30523">
        <ele>104.80000305176</ele>
        <time>2021-08-08T09:25:41.000Z</time>
      </trkpt>
      <trkpt lat="50.70874" lon="5.30547">
        <ele>104.80000305176</ele>
        <time>2021-08-08T09:25:44.000Z</time>
      </trkpt>
      <trkpt lat="50.70856" lon="5.30582">
        <ele>104.59999847412</ele>
        <time>2021-08-08T09:25:48.000Z</time>
      </trkpt>
      <trkpt lat="50.70835" lon="5.30624">
        <ele>103.40000152588</ele>
        <time>2021-08-08T09:25:53.000Z</time>
      </trkpt>
      <trkpt lat="50.70782" lon="5.30727">
        <ele>101</ele>
        <time>2021-08-08T09:26:06.000Z</time>
      </trkpt>
      <trkpt lat="50.70767" lon="5.30757">
        <ele>101.19999694824</ele>
        <time>2021-08-08T09:26:10.000Z</time>
      </trkpt>
      <trkpt lat="50.70747" lon="5.30804">
        <ele>101.59999847412</ele>
        <time>2021-08-08T09:26:16.000Z</time>
      </trkpt>
      <trkpt lat="50.70723" lon="5.30869">
        <ele>103.40000152588</ele>
        <time>2021-08-08T09:26:24.000Z</time>
      </trkpt>
      <trkpt lat="50.70703" lon="5.30939">
        <ele>104.59999847412</ele>
        <time>2021-08-08T09:26:32.000Z</time>
      </trkpt>
      <trkpt lat="50.70691" lon="5.30993">
        <ele>105.59999847412</ele>
        <time>2021-08-08T09:26:38.000Z</time>
      </trkpt>
      <trkpt lat="50.70687" lon="5.3101">
        <ele>106</ele>
        <time>2021-08-08T09:26:40.000Z</time>
      </trkpt>
      <trkpt lat="50.70684" lon="5.31028">
        <ele>106.19999694824</ele>
        <time>2021-08-08T09:26:42.000Z</time>
      </trkpt>
      <trkpt lat="50.70683" lon="5.31037">
        <ele>106.59999847412</ele>
        <time>2021-08-08T09:26:43.000Z</time>
      </trkpt>
      <trkpt lat="50.7068" lon="5.31055">
        <ele>107.19999694824</ele>
        <time>2021-08-08T09:26:45.000Z</time>
      </trkpt>
      <trkpt lat="50.70674" lon="5.31101">
        <ele>108</ele>
        <time>2021-08-08T09:26:50.000Z</time>
      </trkpt>
      <trkpt lat="50.70669" lon="5.31156">
        <ele>109</ele>
        <time>2021-08-08T09:26:56.000Z</time>
      </trkpt>
      <trkpt lat="50.70668" lon="5.31165">
        <ele>109.40000152588</ele>
        <time>2021-08-08T09:26:57.000Z</time>
      </trkpt>
      <trkpt lat="50.70664" lon="5.31231">
        <ele>110.59999847412</ele>
        <time>2021-08-08T09:27:04.000Z</time>
      </trkpt>
      <trkpt lat="50.70661" lon="5.3129">
        <ele>111.40000152588</ele>
        <time>2021-08-08T09:27:10.000Z</time>
      </trkpt>
      <trkpt lat="50.7066" lon="5.3131">
        <ele>111.59999847412</ele>
        <time>2021-08-08T09:27:12.000Z</time>
      </trkpt>
      <trkpt lat="50.70658" lon="5.31339">
        <ele>112</ele>
        <time>2021-08-08T09:27:15.000Z</time>
      </trkpt>
      <trkpt lat="50.70655" lon="5.31397">
        <ele>112.19999694824</ele>
        <time>2021-08-08T09:27:21.000Z</time>
      </trkpt>
      <trkpt lat="50.70652" lon="5.31457">
        <ele>113.19999694824</ele>
        <time>2021-08-08T09:27:27.000Z</time>
      </trkpt>
      <trkpt lat="50.7065" lon="5.31487">
        <ele>113.59999847412</ele>
        <time>2021-08-08T09:27:30.000Z</time>
      </trkpt>
      <trkpt lat="50.70648" lon="5.31517">
        <ele>113.59999847412</ele>
        <time>2021-08-08T09:27:33.000Z</time>
      </trkpt>
      <trkpt lat="50.70645" lon="5.31567">
        <ele>113.80000305176</ele>
        <time>2021-08-08T09:27:38.000Z</time>
      </trkpt>
      <trkpt lat="50.70643" lon="5.31608">
        <ele>113.80000305176</ele>
        <time>2021-08-08T09:27:42.000Z</time>
      </trkpt>
      <trkpt lat="50.70642" lon="5.31629">
        <ele>113.80000305176</ele>
        <time>2021-08-08T09:27:44.000Z</time>
      </trkpt>
      <trkpt lat="50.70637" lon="5.31713">
        <ele>114.19999694824</ele>
        <time>2021-08-08T09:27:52.000Z</time>
      </trkpt>
      <trkpt lat="50.70636" lon="5.31734">
        <ele>114.40000152588</ele>
        <time>2021-08-08T09:27:54.000Z</time>
      </trkpt>
      <trkpt lat="50.70631" lon="5.31819">
        <ele>115.40000152588</ele>
        <time>2021-08-08T09:28:02.000Z</time>
      </trkpt>
      <trkpt lat="50.70625" lon="5.31915">
        <ele>115.40000152588</ele>
        <time>2021-08-08T09:28:11.000Z</time>
      </trkpt>
      <trkpt lat="50.70624" lon="5.31936">
        <ele>115.40000152588</ele>
        <time>2021-08-08T09:28:13.000Z</time>
      </trkpt>
      <trkpt lat="50.70618" lon="5.32045">
        <ele>115.40000152588</ele>
        <time>2021-08-08T09:28:23.000Z</time>
      </trkpt>
      <trkpt lat="50.70613" lon="5.32121">
        <ele>115.80000305176</ele>
        <time>2021-08-08T09:28:30.000Z</time>
      </trkpt>
      <trkpt lat="50.70608" lon="5.32208">
        <ele>116.40000152588</ele>
        <time>2021-08-08T09:28:38.000Z</time>
      </trkpt>
      <trkpt lat="50.70604" lon="5.32285">
        <ele>116.80000305176</ele>
        <time>2021-08-08T09:28:45.000Z</time>
      </trkpt>
      <trkpt lat="50.70598" lon="5.32385">
        <ele>117.19999694824</ele>
        <time>2021-08-08T09:28:54.000Z</time>
      </trkpt>
      <trkpt lat="50.70596" lon="5.32419">
        <ele>117.19999694824</ele>
        <time>2021-08-08T09:28:57.000Z</time>
      </trkpt>
      <trkpt lat="50.7059" lon="5.32521">
        <ele>116.80000305176</ele>
        <time>2021-08-08T09:29:06.000Z</time>
      </trkpt>
      <trkpt lat="50.70589" lon="5.32533">
        <ele>116.59999847412</ele>
        <time>2021-08-08T09:29:07.000Z</time>
      </trkpt>
      <trkpt lat="50.70583" lon="5.32644">
        <ele>115.19999694824</ele>
        <time>2021-08-08T09:29:16.000Z</time>
      </trkpt>
      <trkpt lat="50.70581" lon="5.32681">
        <ele>114.80000305176</ele>
        <time>2021-08-08T09:29:19.000Z</time>
      </trkpt>
      <trkpt lat="50.70579" lon="5.32706">
        <ele>114.59999847412</ele>
        <time>2021-08-08T09:29:21.000Z</time>
      </trkpt>
      <trkpt lat="50.70574" lon="5.32803">
        <ele>113.80000305176</ele>
        <time>2021-08-08T09:29:29.000Z</time>
      </trkpt>
      <trkpt lat="50.70572" lon="5.32827">
        <ele>113.40000152588</ele>
        <time>2021-08-08T09:29:31.000Z</time>
      </trkpt>
      <trkpt lat="50.70567" lon="5.32909">
        <ele>112.19999694824</ele>
        <time>2021-08-08T09:29:38.000Z</time>
      </trkpt>
      <trkpt lat="50.70567" lon="5.32921">
        <ele>112</ele>
        <time>2021-08-08T09:29:39.000Z</time>
      </trkpt>
      <trkpt lat="50.70563" lon="5.32991">
        <ele>111.80000305176</ele>
        <time>2021-08-08T09:29:45.000Z</time>
      </trkpt>
      <trkpt lat="50.7056" lon="5.3304">
        <ele>111.40000152588</ele>
        <time>2021-08-08T09:29:49.000Z</time>
      </trkpt>
      <trkpt lat="50.70557" lon="5.33092">
        <ele>111</ele>
        <time>2021-08-08T09:29:53.000Z</time>
      </trkpt>
      <trkpt lat="50.70555" lon="5.33132">
        <ele>110.40000152588</ele>
        <time>2021-08-08T09:29:56.000Z</time>
      </trkpt>
      <trkpt lat="50.70551" lon="5.33188">
        <ele>109.19999694824</ele>
        <time>2021-08-08T09:30:00.000Z</time>
      </trkpt>
      <trkpt lat="50.70548" lon="5.33245">
        <ele>107.40000152588</ele>
        <time>2021-08-08T09:30:04.000Z</time>
      </trkpt>
      <trkpt lat="50.70546" lon="5.33273">
        <ele>106.40000152588</ele>
        <time>2021-08-08T09:30:06.000Z</time>
      </trkpt>
      <trkpt lat="50.70543" lon="5.33334">
        <ele>104</ele>
        <time>2021-08-08T09:30:11.000Z</time>
      </trkpt>
      <trkpt lat="50.70542" lon="5.33344">
        <ele>104</ele>
        <time>2021-08-08T09:30:12.000Z</time>
      </trkpt>
      <trkpt lat="50.70524" lon="5.33365">
        <ele>104</ele>
        <time>2021-08-08T09:30:16.000Z</time>
      </trkpt>
      <trkpt lat="50.70508" lon="5.33373">
        <ele>104.40000152588</ele>
        <time>2021-08-08T09:30:19.000Z</time>
      </trkpt>
      <trkpt lat="50.70493" lon="5.33383">
        <ele>104.80000305176</ele>
        <time>2021-08-08T09:30:22.000Z</time>
      </trkpt>
      <trkpt lat="50.70488" lon="5.33386">
        <ele>104.80000305176</ele>
        <time>2021-08-08T09:30:23.000Z</time>
      </trkpt>
      <trkpt lat="50.7046" lon="5.33404">
        <ele>106.19999694824</ele>
        <time>2021-08-08T09:30:29.000Z</time>
      </trkpt>
      <trkpt lat="50.70432" lon="5.33422">
        <ele>107.40000152588</ele>
        <time>2021-08-08T09:30:35.000Z</time>
      </trkpt>
      <trkpt lat="50.70386" lon="5.33454">
        <ele>109</ele>
        <time>2021-08-08T09:30:45.000Z</time>
      </trkpt>
      <trkpt lat="50.70358" lon="5.33471">
        <ele>110.59999847412</ele>
        <time>2021-08-08T09:30:51.000Z</time>
      </trkpt>
      <trkpt lat="50.70336" lon="5.33483">
        <ele>111.19999694824</ele>
        <time>2021-08-08T09:30:56.000Z</time>
      </trkpt>
      <trkpt lat="50.70309" lon="5.33494">
        <ele>112.80000305176</ele>
        <time>2021-08-08T09:31:02.000Z</time>
      </trkpt>
      <trkpt lat="50.70291" lon="5.33501">
        <ele>114.40000152588</ele>
        <time>2021-08-08T09:31:06.000Z</time>
      </trkpt>
      <trkpt lat="50.70259" lon="5.3351">
        <ele>116.80000305176</ele>
        <time>2021-08-08T09:31:13.000Z</time>
      </trkpt>
      <trkpt lat="50.70216" lon="5.33522">
        <ele>118.59999847412</ele>
        <time>2021-08-08T09:31:22.000Z</time>
      </trkpt>
      <trkpt lat="50.7017" lon="5.33534">
        <ele>118.59999847412</ele>
        <time>2021-08-08T09:31:30.000Z</time>
      </trkpt>
      <trkpt lat="50.70142" lon="5.33542">
        <ele>118</ele>
        <time>2021-08-08T09:31:34.000Z</time>
      </trkpt>
      <trkpt lat="50.70119" lon="5.33549">
        <ele>117.59999847412</ele>
        <time>2021-08-08T09:31:37.000Z</time>
      </trkpt>
      <trkpt lat="50.70112" lon="5.3355">
        <ele>117.40000152588</ele>
        <time>2021-08-08T09:31:38.000Z</time>
      </trkpt>
      <trkpt lat="50.70064" lon="5.33557">
        <ele>116.40000152588</ele>
        <time>2021-08-08T09:31:44.000Z</time>
      </trkpt>
      <trkpt lat="50.70056" lon="5.33557">
        <ele>115.40000152588</ele>
        <time>2021-08-08T09:31:45.000Z</time>
      </trkpt>
      <trkpt lat="50.7" lon="5.33562">
        <ele>110.19999694824</ele>
        <time>2021-08-08T09:31:53.000Z</time>
      </trkpt>
      <trkpt lat="50.69982" lon="5.33567">
        <ele>110</ele>
        <time>2021-08-08T09:31:56.000Z</time>
      </trkpt>
      <trkpt lat="50.6997" lon="5.33572">
        <ele>110</ele>
        <time>2021-08-08T09:31:58.000Z</time>
      </trkpt>
      <trkpt lat="50.69935" lon="5.33588">
        <ele>111.59999847412</ele>
        <time>2021-08-08T09:32:04.000Z</time>
      </trkpt>
      <trkpt lat="50.69924" lon="5.33595">
        <ele>112.40000152588</ele>
        <time>2021-08-08T09:32:06.000Z</time>
      </trkpt>
      <trkpt lat="50.69908" lon="5.33605">
        <ele>113.19999694824</ele>
        <time>2021-08-08T09:32:09.000Z</time>
      </trkpt>
      <trkpt lat="50.69885" lon="5.33618">
        <ele>114</ele>
        <time>2021-08-08T09:32:13.000Z</time>
      </trkpt>
      <trkpt lat="50.69872" lon="5.33617">
        <ele>114.19999694824</ele>
        <time>2021-08-08T09:32:15.000Z</time>
      </trkpt>
      <trkpt lat="50.69859" lon="5.33612">
        <ele>114</ele>
        <time>2021-08-08T09:32:17.000Z</time>
      </trkpt>
      <trkpt lat="50.69846" lon="5.33606">
        <ele>114.19999694824</ele>
        <time>2021-08-08T09:32:19.000Z</time>
      </trkpt>
      <trkpt lat="50.69826" lon="5.33598">
        <ele>113.80000305176</ele>
        <time>2021-08-08T09:32:22.000Z</time>
      </trkpt>
      <trkpt lat="50.69805" lon="5.33595">
        <ele>113.40000152588</ele>
        <time>2021-08-08T09:32:25.000Z</time>
      </trkpt>
      <trkpt lat="50.69785" lon="5.33596">
        <ele>112.40000152588</ele>
        <time>2021-08-08T09:32:28.000Z</time>
      </trkpt>
      <trkpt lat="50.69772" lon="5.33597">
        <ele>111.80000305176</ele>
        <time>2021-08-08T09:32:30.000Z</time>
      </trkpt>
      <trkpt lat="50.69733" lon="5.33598">
        <ele>111</ele>
        <time>2021-08-08T09:32:36.000Z</time>
      </trkpt>
      <trkpt lat="50.69723" lon="5.33598">
        <ele>110.80000305176</ele>
        <time>2021-08-08T09:32:38.000Z</time>
      </trkpt>
      <trkpt lat="50.69716" lon="5.33607">
        <ele>110.59999847412</ele>
        <time>2021-08-08T09:32:40.000Z</time>
      </trkpt>
      <trkpt lat="50.69714" lon="5.33614">
        <ele>110.40000152588</ele>
        <time>2021-08-08T09:32:41.000Z</time>
      </trkpt>
      <trkpt lat="50.69701" lon="5.33678">
        <ele>110.19999694824</ele>
        <time>2021-08-08T09:32:48.000Z</time>
      </trkpt>
      <trkpt lat="50.69693" lon="5.33708">
        <ele>110</ele>
        <time>2021-08-08T09:32:51.000Z</time>
      </trkpt>
      <trkpt lat="50.69684" lon="5.3375">
        <ele>109.19999694824</ele>
        <time>2021-08-08T09:32:55.000Z</time>
      </trkpt>
      <trkpt lat="50.69681" lon="5.33784">
        <ele>108.59999847412</ele>
        <time>2021-08-08T09:32:58.000Z</time>
      </trkpt>
      <trkpt lat="50.69677" lon="5.33818">
        <ele>107.80000305176</ele>
        <time>2021-08-08T09:33:01.000Z</time>
      </trkpt>
      <trkpt lat="50.69674" lon="5.33853">
        <ele>107</ele>
        <time>2021-08-08T09:33:04.000Z</time>
      </trkpt>
      <trkpt lat="50.69674" lon="5.33864">
        <ele>106.59999847412</ele>
        <time>2021-08-08T09:33:05.000Z</time>
      </trkpt>
      <trkpt lat="50.69672" lon="5.33887">
        <ele>105.80000305176</ele>
        <time>2021-08-08T09:33:07.000Z</time>
      </trkpt>
      <trkpt lat="50.69668" lon="5.33932">
        <ele>104.59999847412</ele>
        <time>2021-08-08T09:33:11.000Z</time>
      </trkpt>
      <trkpt lat="50.6967" lon="5.33967">
        <ele>104</ele>
        <time>2021-08-08T09:33:14.000Z</time>
      </trkpt>
      <trkpt lat="50.6967" lon="5.33978">
        <ele>103.80000305176</ele>
        <time>2021-08-08T09:33:15.000Z</time>
      </trkpt>
      <trkpt lat="50.69666" lon="5.34">
        <ele>103.59999847412</ele>
        <time>2021-08-08T09:33:17.000Z</time>
      </trkpt>
      <trkpt lat="50.69658" lon="5.34029">
        <ele>103.59999847412</ele>
        <time>2021-08-08T09:33:20.000Z</time>
      </trkpt>
      <trkpt lat="50.69637" lon="5.34089">
        <ele>103.80000305176</ele>
        <time>2021-08-08T09:33:27.000Z</time>
      </trkpt>
      <trkpt lat="50.69627" lon="5.3412">
        <ele>104.40000152588</ele>
        <time>2021-08-08T09:33:31.000Z</time>
      </trkpt>
      <trkpt lat="50.69613" lon="5.34156">
        <ele>105.19999694824</ele>
        <time>2021-08-08T09:33:36.000Z</time>
      </trkpt>
      <trkpt lat="50.69604" lon="5.34164">
        <ele>105.40000152588</ele>
        <time>2021-08-08T09:33:38.000Z</time>
      </trkpt>
      <trkpt lat="50.6959" lon="5.34168">
        <ele>106.80000305176</ele>
        <time>2021-08-08T09:33:41.000Z</time>
      </trkpt>
      <trkpt lat="50.69582" lon="5.34175">
        <ele>107.40000152588</ele>
        <time>2021-08-08T09:33:43.000Z</time>
      </trkpt>
      <trkpt lat="50.69568" lon="5.34197">
        <ele>108.19999694824</ele>
        <time>2021-08-08T09:33:47.000Z</time>
      </trkpt>
      <trkpt lat="50.69551" lon="5.34236">
        <ele>109.19999694824</ele>
        <time>2021-08-08T09:33:53.000Z</time>
      </trkpt>
      <trkpt lat="50.69548" lon="5.34243">
        <ele>109.19999694824</ele>
        <time>2021-08-08T09:33:54.000Z</time>
      </trkpt>
      <trkpt lat="50.69527" lon="5.34308">
        <ele>111.59999847412</ele>
        <time>2021-08-08T09:34:03.000Z</time>
      </trkpt>
      <trkpt lat="50.69511" lon="5.34353">
        <ele>113</ele>
        <time>2021-08-08T09:34:09.000Z</time>
      </trkpt>
      <trkpt lat="50.69502" lon="5.34383">
        <ele>113.59999847412</ele>
        <time>2021-08-08T09:34:13.000Z</time>
      </trkpt>
      <trkpt lat="50.69492" lon="5.34414">
        <ele>114</ele>
        <time>2021-08-08T09:34:17.000Z</time>
      </trkpt>
      <trkpt lat="50.69493" lon="5.3448">
        <ele>114.59999847412</ele>
        <time>2021-08-08T09:34:24.000Z</time>
      </trkpt>
      <trkpt lat="50.69494" lon="5.34502">
        <ele>114.59999847412</ele>
        <time>2021-08-08T09:34:26.000Z</time>
      </trkpt>
      <trkpt lat="50.69497" lon="5.34577">
        <ele>114.59999847412</ele>
        <time>2021-08-08T09:34:32.000Z</time>
      </trkpt>
      <trkpt lat="50.695" lon="5.34617">
        <ele>114</ele>
        <time>2021-08-08T09:34:35.000Z</time>
      </trkpt>
      <trkpt lat="50.69504" lon="5.34671">
        <ele>113</ele>
        <time>2021-08-08T09:34:39.000Z</time>
      </trkpt>
      <trkpt lat="50.69507" lon="5.34722">
        <ele>111.19999694824</ele>
        <time>2021-08-08T09:34:43.000Z</time>
      </trkpt>
      <trkpt lat="50.69507" lon="5.34735">
        <ele>110.80000305176</ele>
        <time>2021-08-08T09:34:44.000Z</time>
      </trkpt>
      <trkpt lat="50.69501" lon="5.34768">
        <ele>109.80000305176</ele>
        <time>2021-08-08T09:34:47.000Z</time>
      </trkpt>
      <trkpt lat="50.69491" lon="5.34807">
        <ele>109</ele>
        <time>2021-08-08T09:34:51.000Z</time>
      </trkpt>
      <trkpt lat="50.69486" lon="5.34826">
        <ele>108.80000305176</ele>
        <time>2021-08-08T09:34:53.000Z</time>
      </trkpt>
      <trkpt lat="50.69483" lon="5.34835">
        <ele>108.80000305176</ele>
        <time>2021-08-08T09:34:54.000Z</time>
      </trkpt>
      <trkpt lat="50.69474" lon="5.34874">
        <ele>108.80000305176</ele>
        <time>2021-08-08T09:34:58.000Z</time>
      </trkpt>
      <trkpt lat="50.69471" lon="5.34883">
        <ele>109</ele>
        <time>2021-08-08T09:34:59.000Z</time>
      </trkpt>
      <trkpt lat="50.6946" lon="5.3493">
        <ele>110</ele>
        <time>2021-08-08T09:35:04.000Z</time>
      </trkpt>
      <trkpt lat="50.69453" lon="5.34957">
        <ele>110.19999694824</ele>
        <time>2021-08-08T09:35:07.000Z</time>
      </trkpt>
      <trkpt lat="50.69448" lon="5.34984">
        <ele>110.59999847412</ele>
        <time>2021-08-08T09:35:10.000Z</time>
      </trkpt>
      <trkpt lat="50.69439" lon="5.35047">
        <ele>111.19999694824</ele>
        <time>2021-08-08T09:35:17.000Z</time>
      </trkpt>
      <trkpt lat="50.69432" lon="5.35101">
        <ele>113</ele>
        <time>2021-08-08T09:35:23.000Z</time>
      </trkpt>
      <trkpt lat="50.6943" lon="5.35119">
        <ele>113.40000152588</ele>
        <time>2021-08-08T09:35:25.000Z</time>
      </trkpt>
      <trkpt lat="50.69428" lon="5.35128">
        <ele>113.59999847412</ele>
        <time>2021-08-08T09:35:26.000Z</time>
      </trkpt>
      <trkpt lat="50.69418" lon="5.35223">
        <ele>115</ele>
        <time>2021-08-08T09:35:37.000Z</time>
      </trkpt>
      <trkpt lat="50.69417" lon="5.35232">
        <ele>115.19999694824</ele>
        <time>2021-08-08T09:35:38.000Z</time>
      </trkpt>
      <trkpt lat="50.6941" lon="5.35308">
        <ele>116.40000152588</ele>
        <time>2021-08-08T09:35:47.000Z</time>
      </trkpt>
      <trkpt lat="50.69408" lon="5.35325">
        <ele>116.80000305176</ele>
        <time>2021-08-08T09:35:49.000Z</time>
      </trkpt>
      <trkpt lat="50.69397" lon="5.35374">
        <ele>117.59999847412</ele>
        <time>2021-08-08T09:35:55.000Z</time>
      </trkpt>
      <trkpt lat="50.69387" lon="5.35415">
        <ele>118.19999694824</ele>
        <time>2021-08-08T09:36:00.000Z</time>
      </trkpt>
      <trkpt lat="50.69379" lon="5.35447">
        <ele>118.59999847412</ele>
        <time>2021-08-08T09:36:04.000Z</time>
      </trkpt>
      <trkpt lat="50.69353" lon="5.35525">
        <ele>122.19999694824</ele>
        <time>2021-08-08T09:36:14.000Z</time>
      </trkpt>
      <trkpt lat="50.69351" lon="5.35532">
        <ele>122.40000152588</ele>
        <time>2021-08-08T09:36:15.000Z</time>
      </trkpt>
      <trkpt lat="50.69318" lon="5.35603">
        <ele>123.80000305176</ele>
        <time>2021-08-08T09:36:25.000Z</time>
      </trkpt>
      <trkpt lat="50.6931" lon="5.35617">
        <ele>124</ele>
        <time>2021-08-08T09:36:27.000Z</time>
      </trkpt>
      <trkpt lat="50.69295" lon="5.35643">
        <ele>124.59999847412</ele>
        <time>2021-08-08T09:36:31.000Z</time>
      </trkpt>
      <trkpt lat="50.69287" lon="5.35656">
        <ele>124.40000152588</ele>
        <time>2021-08-08T09:36:33.000Z</time>
      </trkpt>
      <trkpt lat="50.69241" lon="5.35736">
        <ele>123.19999694824</ele>
        <time>2021-08-08T09:36:45.000Z</time>
      </trkpt>
      <trkpt lat="50.69208" lon="5.35801">
        <ele>123.40000152588</ele>
        <time>2021-08-08T09:36:53.000Z</time>
      </trkpt>
      <trkpt lat="50.6917" lon="5.35885">
        <ele>123</ele>
        <time>2021-08-08T09:37:02.000Z</time>
      </trkpt>
      <trkpt lat="50.69154" lon="5.35924">
        <ele>122.80000305176</ele>
        <time>2021-08-08T09:37:06.000Z</time>
      </trkpt>
      <trkpt lat="50.69125" lon="5.36022">
        <ele>120</ele>
        <time>2021-08-08T09:37:15.000Z</time>
      </trkpt>
      <trkpt lat="50.69112" lon="5.36063">
        <ele>119.59999847412</ele>
        <time>2021-08-08T09:37:19.000Z</time>
      </trkpt>
      <trkpt lat="50.69103" lon="5.36094">
        <ele>119.40000152588</ele>
        <time>2021-08-08T09:37:22.000Z</time>
      </trkpt>
      <trkpt lat="50.69067" lon="5.36201">
        <ele>119.59999847412</ele>
        <time>2021-08-08T09:37:33.000Z</time>
      </trkpt>
      <trkpt lat="50.69057" lon="5.36229">
        <ele>119.80000305176</ele>
        <time>2021-08-08T09:37:36.000Z</time>
      </trkpt>
      <trkpt lat="50.69035" lon="5.36288">
        <ele>119.80000305176</ele>
        <time>2021-08-08T09:37:42.000Z</time>
      </trkpt>
      <trkpt lat="50.69032" lon="5.36298">
        <ele>120</ele>
        <time>2021-08-08T09:37:43.000Z</time>
      </trkpt>
      <trkpt lat="50.69" lon="5.36381">
        <ele>119.40000152588</ele>
        <time>2021-08-08T09:37:51.000Z</time>
      </trkpt>
      <trkpt lat="50.68992" lon="5.36402">
        <ele>119</ele>
        <time>2021-08-08T09:37:53.000Z</time>
      </trkpt>
      <trkpt lat="50.68973" lon="5.36454">
        <ele>118.80000305176</ele>
        <time>2021-08-08T09:37:58.000Z</time>
      </trkpt>
      <trkpt lat="50.68969" lon="5.36465">
        <ele>118.40000152588</ele>
        <time>2021-08-08T09:37:59.000Z</time>
      </trkpt>
      <trkpt lat="50.68944" lon="5.3655">
        <ele>116.40000152588</ele>
        <time>2021-08-08T09:38:07.000Z</time>
      </trkpt>
      <trkpt lat="50.68918" lon="5.36643">
        <ele>115.19999694824</ele>
        <time>2021-08-08T09:38:16.000Z</time>
      </trkpt>
      <trkpt lat="50.68901" lon="5.36702">
        <ele>115.40000152588</ele>
        <time>2021-08-08T09:38:22.000Z</time>
      </trkpt>
      <trkpt lat="50.68882" lon="5.36769">
        <ele>115.80000305176</ele>
        <time>2021-08-08T09:38:29.000Z</time>
      </trkpt>
      <trkpt lat="50.68864" lon="5.3683">
        <ele>116.19999694824</ele>
        <time>2021-08-08T09:38:36.000Z</time>
      </trkpt>
      <trkpt lat="50.68863" lon="5.36848">
        <ele>116.40000152588</ele>
        <time>2021-08-08T09:38:38.000Z</time>
      </trkpt>
      <trkpt lat="50.68863" lon="5.36867">
        <ele>117</ele>
        <time>2021-08-08T09:38:40.000Z</time>
      </trkpt>
      <trkpt lat="50.6886" lon="5.36885">
        <ele>117.40000152588</ele>
        <time>2021-08-08T09:38:42.000Z</time>
      </trkpt>
      <trkpt lat="50.68856" lon="5.36902">
        <ele>117.59999847412</ele>
        <time>2021-08-08T09:38:44.000Z</time>
      </trkpt>
      <trkpt lat="50.6884" lon="5.36971">
        <ele>119.40000152588</ele>
        <time>2021-08-08T09:38:52.000Z</time>
      </trkpt>
      <trkpt lat="50.68829" lon="5.37015">
        <ele>120.59999847412</ele>
        <time>2021-08-08T09:38:57.000Z</time>
      </trkpt>
      <trkpt lat="50.68803" lon="5.3709">
        <ele>123</ele>
        <time>2021-08-08T09:39:06.000Z</time>
      </trkpt>
      <trkpt lat="50.6878" lon="5.37142">
        <ele>124.19999694824</ele>
        <time>2021-08-08T09:39:13.000Z</time>
      </trkpt>
      <trkpt lat="50.68765" lon="5.3717">
        <ele>125</ele>
        <time>2021-08-08T09:39:17.000Z</time>
      </trkpt>
      <trkpt lat="50.68743" lon="5.37226">
        <ele>127</ele>
        <time>2021-08-08T09:39:24.000Z</time>
      </trkpt>
      <trkpt lat="50.68738" lon="5.37254">
        <ele>127.19999694824</ele>
        <time>2021-08-08T09:39:27.000Z</time>
      </trkpt>
      <trkpt lat="50.68737" lon="5.37274">
        <ele>127.19999694824</ele>
        <time>2021-08-08T09:39:29.000Z</time>
      </trkpt>
      <trkpt lat="50.68737" lon="5.37283">
        <ele>127.40000152588</ele>
        <time>2021-08-08T09:39:30.000Z</time>
      </trkpt>
      <trkpt lat="50.6874" lon="5.37303">
        <ele>127.80000305176</ele>
        <time>2021-08-08T09:39:32.000Z</time>
      </trkpt>
      <trkpt lat="50.68745" lon="5.37334">
        <ele>128</ele>
        <time>2021-08-08T09:39:35.000Z</time>
      </trkpt>
      <trkpt lat="50.68747" lon="5.37379">
        <ele>128</ele>
        <time>2021-08-08T09:39:39.000Z</time>
      </trkpt>
      <trkpt lat="50.68746" lon="5.37391">
        <ele>127.80000305176</ele>
        <time>2021-08-08T09:39:40.000Z</time>
      </trkpt>
      <trkpt lat="50.68741" lon="5.37414">
        <ele>128</ele>
        <time>2021-08-08T09:39:42.000Z</time>
      </trkpt>
      <trkpt lat="50.68734" lon="5.37451">
        <ele>127.59999847412</ele>
        <time>2021-08-08T09:39:45.000Z</time>
      </trkpt>
      <trkpt lat="50.68725" lon="5.37487">
        <ele>126.80000305176</ele>
        <time>2021-08-08T09:39:48.000Z</time>
      </trkpt>
      <trkpt lat="50.68704" lon="5.37559">
        <ele>124.19999694824</ele>
        <time>2021-08-08T09:39:54.000Z</time>
      </trkpt>
      <trkpt lat="50.68681" lon="5.37614">
        <ele>121.80000305176</ele>
        <time>2021-08-08T09:40:00.000Z</time>
      </trkpt>
      <trkpt lat="50.68671" lon="5.37623">
        <ele>120.80000305176</ele>
        <time>2021-08-08T09:40:03.000Z</time>
      </trkpt>
      <trkpt lat="50.68663" lon="5.37622">
        <ele>120.59999847412</ele>
        <time>2021-08-08T09:40:05.000Z</time>
      </trkpt>
      <trkpt lat="50.68617" lon="5.37598">
        <ele>120</ele>
        <time>2021-08-08T09:40:14.000Z</time>
      </trkpt>
      <trkpt lat="50.68611" lon="5.37595">
        <ele>119.80000305176</ele>
        <time>2021-08-08T09:40:15.000Z</time>
      </trkpt>
      <trkpt lat="50.686" lon="5.37589">
        <ele>119.59999847412</ele>
        <time>2021-08-08T09:40:17.000Z</time>
      </trkpt>
      <trkpt lat="50.68577" lon="5.37576">
        <ele>119.40000152588</ele>
        <time>2021-08-08T09:40:21.000Z</time>
      </trkpt>
      <trkpt lat="50.6853" lon="5.37551">
        <ele>119.40000152588</ele>
        <time>2021-08-08T09:40:29.000Z</time>
      </trkpt>
      <trkpt lat="50.68478" lon="5.37525">
        <ele>119.80000305176</ele>
        <time>2021-08-08T09:40:38.000Z</time>
      </trkpt>
      <trkpt lat="50.68458" lon="5.37513">
        <ele>120</ele>
        <time>2021-08-08T09:40:42.000Z</time>
      </trkpt>
      <trkpt lat="50.6845" lon="5.37518">
        <ele>120</ele>
        <time>2021-08-08T09:40:44.000Z</time>
      </trkpt>
      <trkpt lat="50.68446" lon="5.37524">
        <ele>120</ele>
        <time>2021-08-08T09:40:45.000Z</time>
      </trkpt>
      <trkpt lat="50.68439" lon="5.37537">
        <ele>120</ele>
        <time>2021-08-08T09:40:47.000Z</time>
      </trkpt>
      <trkpt lat="50.68418" lon="5.3758">
        <ele>121</ele>
        <time>2021-08-08T09:40:53.000Z</time>
      </trkpt>
      <trkpt lat="50.68396" lon="5.37637">
        <ele>122.19999694824</ele>
        <time>2021-08-08T09:41:00.000Z</time>
      </trkpt>
      <trkpt lat="50.6839" lon="5.37654">
        <ele>122.59999847412</ele>
        <time>2021-08-08T09:41:02.000Z</time>
      </trkpt>
      <trkpt lat="50.68376" lon="5.37692">
        <ele>123.40000152588</ele>
        <time>2021-08-08T09:41:07.000Z</time>
      </trkpt>
      <trkpt lat="50.6837" lon="5.37707">
        <ele>124</ele>
        <time>2021-08-08T09:41:09.000Z</time>
      </trkpt>
      <trkpt lat="50.68343" lon="5.37785">
        <ele>127</ele>
        <time>2021-08-08T09:41:19.000Z</time>
      </trkpt>
      <trkpt lat="50.68329" lon="5.37824">
        <ele>127.59999847412</ele>
        <time>2021-08-08T09:41:24.000Z</time>
      </trkpt>
      <trkpt lat="50.68307" lon="5.37889">
        <ele>128.60000610352</ele>
        <time>2021-08-08T09:41:32.000Z</time>
      </trkpt>
      <trkpt lat="50.68278" lon="5.37987">
        <ele>129.60000610352</ele>
        <time>2021-08-08T09:41:43.000Z</time>
      </trkpt>
      <trkpt lat="50.68275" lon="5.37996">
        <ele>129.80000305176</ele>
        <time>2021-08-08T09:41:44.000Z</time>
      </trkpt>
      <trkpt lat="50.68254" lon="5.38058">
        <ele>130.80000305176</ele>
        <time>2021-08-08T09:41:52.000Z</time>
      </trkpt>
      <trkpt lat="50.68244" lon="5.38065">
        <ele>130.60000610352</ele>
        <time>2021-08-08T09:41:55.000Z</time>
      </trkpt>
      <trkpt lat="50.68236" lon="5.38066">
        <ele>130.60000610352</ele>
        <time>2021-08-08T09:41:57.000Z</time>
      </trkpt>
      <trkpt lat="50.68217" lon="5.38059">
        <ele>130.60000610352</ele>
        <time>2021-08-08T09:42:01.000Z</time>
      </trkpt>
      <trkpt lat="50.6818" lon="5.38069">
        <ele>130.80000305176</ele>
        <time>2021-08-08T09:42:08.000Z</time>
      </trkpt>
      <trkpt lat="50.68158" lon="5.38078">
        <ele>131</ele>
        <time>2021-08-08T09:42:12.000Z</time>
      </trkpt>
      <trkpt lat="50.6812" lon="5.38093">
        <ele>131.19999694824</ele>
        <time>2021-08-08T09:42:19.000Z</time>
      </trkpt>
      <trkpt lat="50.68097" lon="5.38102">
        <ele>131.19999694824</ele>
        <time>2021-08-08T09:42:23.000Z</time>
      </trkpt>
      <trkpt lat="50.68079" lon="5.38108">
        <ele>131.39999389648</ele>
        <time>2021-08-08T09:42:26.000Z</time>
      </trkpt>
      <trkpt lat="50.68043" lon="5.38122">
        <ele>131.60000610352</ele>
        <time>2021-08-08T09:42:32.000Z</time>
      </trkpt>
      <trkpt lat="50.68027" lon="5.38129">
        <ele>131.80000305176</ele>
        <time>2021-08-08T09:42:35.000Z</time>
      </trkpt>
      <trkpt lat="50.68016" lon="5.38134">
        <ele>132</ele>
        <time>2021-08-08T09:42:37.000Z</time>
      </trkpt>
      <trkpt lat="50.67988" lon="5.38144">
        <ele>132.39999389648</ele>
        <time>2021-08-08T09:42:42.000Z</time>
      </trkpt>
      <trkpt lat="50.67962" lon="5.38152">
        <ele>132.80000305176</ele>
        <time>2021-08-08T09:42:48.000Z</time>
      </trkpt>
      <trkpt lat="50.67952" lon="5.38157">
        <ele>132.80000305176</ele>
        <time>2021-08-08T09:42:51.000Z</time>
      </trkpt>
      <trkpt lat="50.67939" lon="5.38181">
        <ele>132.80000305176</ele>
        <time>2021-08-08T09:42:55.000Z</time>
      </trkpt>
      <trkpt lat="50.67936" lon="5.38188">
        <ele>132.80000305176</ele>
        <time>2021-08-08T09:42:56.000Z</time>
      </trkpt>
      <trkpt lat="50.67927" lon="5.38208">
        <ele>132.80000305176</ele>
        <time>2021-08-08T09:42:59.000Z</time>
      </trkpt>
      <trkpt lat="50.67921" lon="5.38222">
        <ele>133.19999694824</ele>
        <time>2021-08-08T09:43:01.000Z</time>
      </trkpt>
      <trkpt lat="50.67895" lon="5.3829">
        <ele>136.19999694824</ele>
        <time>2021-08-08T09:43:10.000Z</time>
      </trkpt>
      <trkpt lat="50.67878" lon="5.38345">
        <ele>137</ele>
        <time>2021-08-08T09:43:17.000Z</time>
      </trkpt>
      <trkpt lat="50.67857" lon="5.38408">
        <ele>138.60000610352</ele>
        <time>2021-08-08T09:43:25.000Z</time>
      </trkpt>
      <trkpt lat="50.67842" lon="5.3845">
        <ele>138.80000305176</ele>
        <time>2021-08-08T09:43:30.000Z</time>
      </trkpt>
      <trkpt lat="50.6783" lon="5.38483">
        <ele>138.80000305176</ele>
        <time>2021-08-08T09:43:34.000Z</time>
      </trkpt>
      <trkpt lat="50.67782" lon="5.38576">
        <ele>138.60000610352</ele>
        <time>2021-08-08T09:43:46.000Z</time>
      </trkpt>
      <trkpt lat="50.67777" lon="5.38584">
        <ele>138.60000610352</ele>
        <time>2021-08-08T09:43:47.000Z</time>
      </trkpt>
      <trkpt lat="50.67742" lon="5.38641">
        <ele>138.19999694824</ele>
        <time>2021-08-08T09:43:54.000Z</time>
      </trkpt>
      <trkpt lat="50.67721" lon="5.38675">
        <ele>137.19999694824</ele>
        <time>2021-08-08T09:43:58.000Z</time>
      </trkpt>
      <trkpt lat="50.67701" lon="5.38708">
        <ele>136</ele>
        <time>2021-08-08T09:44:02.000Z</time>
      </trkpt>
      <trkpt lat="50.67681" lon="5.38738">
        <ele>135.80000305176</ele>
        <time>2021-08-08T09:44:06.000Z</time>
      </trkpt>
      <trkpt lat="50.67666" lon="5.38761">
        <ele>135.80000305176</ele>
        <time>2021-08-08T09:44:10.000Z</time>
      </trkpt>
      <trkpt lat="50.67662" lon="5.38768">
        <ele>136</ele>
        <time>2021-08-08T09:44:12.000Z</time>
      </trkpt>
      <trkpt lat="50.67659" lon="5.38772">
        <ele>136.19999694824</ele>
        <time>2021-08-08T09:44:15.000Z</time>
      </trkpt>
      <trkpt lat="50.67649" lon="5.38787">
        <ele>141.19999694824</ele>
        <time>2021-08-08T09:44:31.000Z</time>
      </trkpt>
      <trkpt lat="50.67636" lon="5.3881">
        <ele>141</ele>
        <time>2021-08-08T09:44:36.000Z</time>
      </trkpt>
      <trkpt lat="50.67617" lon="5.38845">
        <ele>140.19999694824</ele>
        <time>2021-08-08T09:44:41.000Z</time>
      </trkpt>
      <trkpt lat="50.67608" lon="5.38861">
        <ele>139.80000305176</ele>
        <time>2021-08-08T09:44:43.000Z</time>
      </trkpt>
      <trkpt lat="50.67582" lon="5.38906">
        <ele>138</ele>
        <time>2021-08-08T09:44:49.000Z</time>
      </trkpt>
      <trkpt lat="50.67578" lon="5.38912">
        <ele>137.80000305176</ele>
        <time>2021-08-08T09:44:50.000Z</time>
      </trkpt>
      <trkpt lat="50.67558" lon="5.38944">
        <ele>136.60000610352</ele>
        <time>2021-08-08T09:44:55.000Z</time>
      </trkpt>
      <trkpt lat="50.67554" lon="5.3895">
        <ele>136.60000610352</ele>
        <time>2021-08-08T09:44:56.000Z</time>
      </trkpt>
      <trkpt lat="50.67515" lon="5.39014">
        <ele>137.60000610352</ele>
        <time>2021-08-08T09:45:06.000Z</time>
      </trkpt>
      <trkpt lat="50.67488" lon="5.39051">
        <ele>138.39999389648</ele>
        <time>2021-08-08T09:45:12.000Z</time>
      </trkpt>
      <trkpt lat="50.67447" lon="5.39083">
        <ele>138.39999389648</ele>
        <time>2021-08-08T09:45:19.000Z</time>
      </trkpt>
      <trkpt lat="50.6742" lon="5.39097">
        <ele>138</ele>
        <time>2021-08-08T09:45:23.000Z</time>
      </trkpt>
      <trkpt lat="50.67398" lon="5.39107">
        <ele>137.39999389648</ele>
        <time>2021-08-08T09:45:26.000Z</time>
      </trkpt>
      <trkpt lat="50.67383" lon="5.39114">
        <ele>137.19999694824</ele>
        <time>2021-08-08T09:45:28.000Z</time>
      </trkpt>
      <trkpt lat="50.67338" lon="5.39136">
        <ele>135.60000610352</ele>
        <time>2021-08-08T09:45:34.000Z</time>
      </trkpt>
      <trkpt lat="50.67308" lon="5.3915">
        <ele>131</ele>
        <time>2021-08-08T09:45:38.000Z</time>
      </trkpt>
      <trkpt lat="50.67301" lon="5.39153">
        <ele>130.19999694824</ele>
        <time>2021-08-08T09:45:39.000Z</time>
      </trkpt>
      <trkpt lat="50.67265" lon="5.3917">
        <ele>129</ele>
        <time>2021-08-08T09:45:44.000Z</time>
      </trkpt>
      <trkpt lat="50.67218" lon="5.39193">
        <ele>128.80000305176</ele>
        <time>2021-08-08T09:45:51.000Z</time>
      </trkpt>
      <trkpt lat="50.67204" lon="5.392">
        <ele>129</ele>
        <time>2021-08-08T09:45:53.000Z</time>
      </trkpt>
      <trkpt lat="50.6715" lon="5.39226">
        <ele>128.80000305176</ele>
        <time>2021-08-08T09:46:01.000Z</time>
      </trkpt>
      <trkpt lat="50.67114" lon="5.39244">
        <ele>129</ele>
        <time>2021-08-08T09:46:07.000Z</time>
      </trkpt>
      <trkpt lat="50.67089" lon="5.39255">
        <ele>128.80000305176</ele>
        <time>2021-08-08T09:46:11.000Z</time>
      </trkpt>
      <trkpt lat="50.67046" lon="5.39276">
        <ele>128.80000305176</ele>
        <time>2021-08-08T09:46:18.000Z</time>
      </trkpt>
      <trkpt lat="50.67003" lon="5.39297">
        <ele>128.39999389648</ele>
        <time>2021-08-08T09:46:25.000Z</time>
      </trkpt>
      <trkpt lat="50.66966" lon="5.39314">
        <ele>128.60000610352</ele>
        <time>2021-08-08T09:46:31.000Z</time>
      </trkpt>
      <trkpt lat="50.6693" lon="5.39332">
        <ele>129.19999694824</ele>
        <time>2021-08-08T09:46:37.000Z</time>
      </trkpt>
      <trkpt lat="50.66888" lon="5.39352">
        <ele>130.19999694824</ele>
        <time>2021-08-08T09:46:44.000Z</time>
      </trkpt>
      <trkpt lat="50.66849" lon="5.3937">
        <ele>131</ele>
        <time>2021-08-08T09:46:51.000Z</time>
      </trkpt>
      <trkpt lat="50.66844" lon="5.39373">
        <ele>131.19999694824</ele>
        <time>2021-08-08T09:46:52.000Z</time>
      </trkpt>
      <trkpt lat="50.66811" lon="5.39387">
        <ele>131.80000305176</ele>
        <time>2021-08-08T09:46:58.000Z</time>
      </trkpt>
      <trkpt lat="50.66797" lon="5.39402">
        <ele>132.19999694824</ele>
        <time>2021-08-08T09:47:01.000Z</time>
      </trkpt>
      <trkpt lat="50.66774" lon="5.39433">
        <ele>132.60000610352</ele>
        <time>2021-08-08T09:47:06.000Z</time>
      </trkpt>
      <trkpt lat="50.6676" lon="5.39448">
        <ele>133</ele>
        <time>2021-08-08T09:47:09.000Z</time>
      </trkpt>
      <trkpt lat="50.66716" lon="5.39502">
        <ele>135.60000610352</ele>
        <time>2021-08-08T09:47:19.000Z</time>
      </trkpt>
      <trkpt lat="50.66694" lon="5.39528">
        <ele>136.80000305176</ele>
        <time>2021-08-08T09:47:24.000Z</time>
      </trkpt>
      <trkpt lat="50.66677" lon="5.3955">
        <ele>138</ele>
        <time>2021-08-08T09:47:28.000Z</time>
      </trkpt>
      <trkpt lat="50.66658" lon="5.3958">
        <ele>138.80000305176</ele>
        <time>2021-08-08T09:47:33.000Z</time>
      </trkpt>
      <trkpt lat="50.66656" lon="5.39587">
        <ele>139.19999694824</ele>
        <time>2021-08-08T09:47:34.000Z</time>
      </trkpt>
      <trkpt lat="50.66646" lon="5.39619">
        <ele>139.60000610352</ele>
        <time>2021-08-08T09:47:38.000Z</time>
      </trkpt>
      <trkpt lat="50.66642" lon="5.39635">
        <ele>139.80000305176</ele>
        <time>2021-08-08T09:47:40.000Z</time>
      </trkpt>
      <trkpt lat="50.66624" lon="5.3972">
        <ele>141.39999389648</ele>
        <time>2021-08-08T09:47:50.000Z</time>
      </trkpt>
      <trkpt lat="50.66624" lon="5.39738">
        <ele>141.80000305176</ele>
        <time>2021-08-08T09:47:52.000Z</time>
      </trkpt>
      <trkpt lat="50.66639" lon="5.398">
        <ele>142.80000305176</ele>
        <time>2021-08-08T09:47:59.000Z</time>
      </trkpt>
      <trkpt lat="50.6664" lon="5.39809">
        <ele>142.80000305176</ele>
        <time>2021-08-08T09:48:00.000Z</time>
      </trkpt>
      <trkpt lat="50.66636" lon="5.39836">
        <ele>142.80000305176</ele>
        <time>2021-08-08T09:48:03.000Z</time>
      </trkpt>
      <trkpt lat="50.66625" lon="5.39855">
        <ele>142.80000305176</ele>
        <time>2021-08-08T09:48:06.000Z</time>
      </trkpt>
      <trkpt lat="50.66619" lon="5.39859">
        <ele>142.80000305176</ele>
        <time>2021-08-08T09:48:07.000Z</time>
      </trkpt>
      <trkpt lat="50.66577" lon="5.39868">
        <ele>142.60000610352</ele>
        <time>2021-08-08T09:48:14.000Z</time>
      </trkpt>
      <trkpt lat="50.66566" lon="5.39876">
        <ele>142.60000610352</ele>
        <time>2021-08-08T09:48:16.000Z</time>
      </trkpt>
      <trkpt lat="50.66529" lon="5.39936">
        <ele>143.39999389648</ele>
        <time>2021-08-08T09:48:25.000Z</time>
      </trkpt>
      <trkpt lat="50.66524" lon="5.3994">
        <ele>143.60000610352</ele>
        <time>2021-08-08T09:48:26.000Z</time>
      </trkpt>
      <trkpt lat="50.66511" lon="5.3994">
        <ele>143.60000610352</ele>
        <time>2021-08-08T09:48:28.000Z</time>
      </trkpt>
      <trkpt lat="50.66505" lon="5.39936">
        <ele>143.60000610352</ele>
        <time>2021-08-08T09:48:29.000Z</time>
      </trkpt>
      <trkpt lat="50.66465" lon="5.39903">
        <ele>143.19999694824</ele>
        <time>2021-08-08T09:48:36.000Z</time>
      </trkpt>
      <trkpt lat="50.66448" lon="5.39892">
        <ele>143.19999694824</ele>
        <time>2021-08-08T09:48:39.000Z</time>
      </trkpt>
      <trkpt lat="50.66405" lon="5.39868">
        <ele>143</ele>
        <time>2021-08-08T09:48:47.000Z</time>
      </trkpt>
      <trkpt lat="50.66337" lon="5.39854">
        <ele>143.60000610352</ele>
        <time>2021-08-08T09:48:59.000Z</time>
      </trkpt>
      <trkpt lat="50.66332" lon="5.39855">
        <ele>143.39999389648</ele>
        <time>2021-08-08T09:49:00.000Z</time>
      </trkpt>
      <trkpt lat="50.6632" lon="5.39858">
        <ele>143.60000610352</ele>
        <time>2021-08-08T09:49:02.000Z</time>
      </trkpt>
      <trkpt lat="50.66309" lon="5.39862">
        <ele>143.39999389648</ele>
        <time>2021-08-08T09:49:04.000Z</time>
      </trkpt>
      <trkpt lat="50.66292" lon="5.39868">
        <ele>143.60000610352</ele>
        <time>2021-08-08T09:49:07.000Z</time>
      </trkpt>
      <trkpt lat="50.66263" lon="5.39873">
        <ele>144</ele>
        <time>2021-08-08T09:49:12.000Z</time>
      </trkpt>
      <trkpt lat="50.66237" lon="5.39876">
        <ele>144</ele>
        <time>2021-08-08T09:49:17.000Z</time>
      </trkpt>
      <trkpt lat="50.66233" lon="5.3988">
        <ele>144</ele>
        <time>2021-08-08T09:49:18.000Z</time>
      </trkpt>
      <trkpt lat="50.66231" lon="5.39905">
        <ele>144.19999694824</ele>
        <time>2021-08-08T09:49:21.000Z</time>
      </trkpt>
      <trkpt lat="50.66236" lon="5.39969">
        <ele>144.39999389648</ele>
        <time>2021-08-08T09:49:27.000Z</time>
      </trkpt>
      <trkpt lat="50.66253" lon="5.40143">
        <ele>143.60000610352</ele>
        <time>2021-08-08T09:49:43.000Z</time>
      </trkpt>
      <trkpt lat="50.66254" lon="5.40154">
        <ele>143.60000610352</ele>
        <time>2021-08-08T09:49:44.000Z</time>
      </trkpt>
      <trkpt lat="50.66262" lon="5.40266">
        <ele>143.39999389648</ele>
        <time>2021-08-08T09:49:54.000Z</time>
      </trkpt>
      <trkpt lat="50.66259" lon="5.40299">
        <ele>143.39999389648</ele>
        <time>2021-08-08T09:49:57.000Z</time>
      </trkpt>
      <trkpt lat="50.66257" lon="5.40309">
        <ele>143.39999389648</ele>
        <time>2021-08-08T09:49:58.000Z</time>
      </trkpt>
      <trkpt lat="50.66246" lon="5.4035">
        <ele>143.39999389648</ele>
        <time>2021-08-08T09:50:02.000Z</time>
      </trkpt>
      <trkpt lat="50.66235" lon="5.40388">
        <ele>143.19999694824</ele>
        <time>2021-08-08T09:50:06.000Z</time>
      </trkpt>
      <trkpt lat="50.66204" lon="5.40482">
        <ele>144</ele>
        <time>2021-08-08T09:50:16.000Z</time>
      </trkpt>
      <trkpt lat="50.66175" lon="5.40556">
        <ele>144.60000610352</ele>
        <time>2021-08-08T09:50:24.000Z</time>
      </trkpt>
      <trkpt lat="50.66139" lon="5.40643">
        <ele>144.39999389648</ele>
        <time>2021-08-08T09:50:33.000Z</time>
      </trkpt>
      <trkpt lat="50.66131" lon="5.40661">
        <ele>144.39999389648</ele>
        <time>2021-08-08T09:50:35.000Z</time>
      </trkpt>
      <trkpt lat="50.66108" lon="5.40718">
        <ele>144.39999389648</ele>
        <time>2021-08-08T09:50:41.000Z</time>
      </trkpt>
      <trkpt lat="50.66104" lon="5.40727">
        <ele>144.39999389648</ele>
        <time>2021-08-08T09:50:42.000Z</time>
      </trkpt>
      <trkpt lat="50.66087" lon="5.40785">
        <ele>144.39999389648</ele>
        <time>2021-08-08T09:50:48.000Z</time>
      </trkpt>
      <trkpt lat="50.66073" lon="5.4085">
        <ele>144.60000610352</ele>
        <time>2021-08-08T09:50:55.000Z</time>
      </trkpt>
      <trkpt lat="50.66062" lon="5.40908">
        <ele>145</ele>
        <time>2021-08-08T09:51:01.000Z</time>
      </trkpt>
      <trkpt lat="50.66041" lon="5.40995">
        <ele>145.80000305176</ele>
        <time>2021-08-08T09:51:10.000Z</time>
      </trkpt>
      <trkpt lat="50.66022" lon="5.41057">
        <ele>146.80000305176</ele>
        <time>2021-08-08T09:51:17.000Z</time>
      </trkpt>
      <trkpt lat="50.66016" lon="5.41075">
        <ele>147</ele>
        <time>2021-08-08T09:51:19.000Z</time>
      </trkpt>
      <trkpt lat="50.65999" lon="5.41129">
        <ele>147.19999694824</ele>
        <time>2021-08-08T09:51:25.000Z</time>
      </trkpt>
      <trkpt lat="50.65969" lon="5.41222">
        <ele>148.39999389648</ele>
        <time>2021-08-08T09:51:35.000Z</time>
      </trkpt>
      <trkpt lat="50.6596" lon="5.4125">
        <ele>148.60000610352</ele>
        <time>2021-08-08T09:51:38.000Z</time>
      </trkpt>
      <trkpt lat="50.65944" lon="5.41296">
        <ele>149.60000610352</ele>
        <time>2021-08-08T09:51:43.000Z</time>
      </trkpt>
      <trkpt lat="50.65934" lon="5.41334">
        <ele>150</ele>
        <time>2021-08-08T09:51:47.000Z</time>
      </trkpt>
      <trkpt lat="50.65921" lon="5.41383">
        <ele>150.39999389648</ele>
        <time>2021-08-08T09:51:52.000Z</time>
      </trkpt>
      <trkpt lat="50.65893" lon="5.415">
        <ele>152</ele>
        <time>2021-08-08T09:52:04.000Z</time>
      </trkpt>
      <trkpt lat="50.65888" lon="5.41519">
        <ele>152.19999694824</ele>
        <time>2021-08-08T09:52:06.000Z</time>
      </trkpt>
      <trkpt lat="50.65863" lon="5.41617">
        <ele>153.19999694824</ele>
        <time>2021-08-08T09:52:16.000Z</time>
      </trkpt>
      <trkpt lat="50.65855" lon="5.41648">
        <ele>153.60000610352</ele>
        <time>2021-08-08T09:52:19.000Z</time>
      </trkpt>
      <trkpt lat="50.65842" lon="5.41699">
        <ele>153.60000610352</ele>
        <time>2021-08-08T09:52:24.000Z</time>
      </trkpt>
      <trkpt lat="50.65839" lon="5.4171">
        <ele>153.60000610352</ele>
        <time>2021-08-08T09:52:25.000Z</time>
      </trkpt>
      <trkpt lat="50.65818" lon="5.41795">
        <ele>153</ele>
        <time>2021-08-08T09:52:33.000Z</time>
      </trkpt>
      <trkpt lat="50.65805" lon="5.41871">
        <ele>151.39999389648</ele>
        <time>2021-08-08T09:52:40.000Z</time>
      </trkpt>
      <trkpt lat="50.65797" lon="5.41916">
        <ele>149.80000305176</ele>
        <time>2021-08-08T09:52:44.000Z</time>
      </trkpt>
      <trkpt lat="50.6579" lon="5.41961">
        <ele>149.39999389648</ele>
        <time>2021-08-08T09:52:48.000Z</time>
      </trkpt>
      <trkpt lat="50.65779" lon="5.42017">
        <ele>149.60000610352</ele>
        <time>2021-08-08T09:52:53.000Z</time>
      </trkpt>
      <trkpt lat="50.65775" lon="5.42039">
        <ele>149.39999389648</ele>
        <time>2021-08-08T09:52:55.000Z</time>
      </trkpt>
      <trkpt lat="50.65748" lon="5.42169">
        <ele>150.19999694824</ele>
        <time>2021-08-08T09:53:07.000Z</time>
      </trkpt>
      <trkpt lat="50.6573" lon="5.42246">
        <ele>150.60000610352</ele>
        <time>2021-08-08T09:53:14.000Z</time>
      </trkpt>
      <trkpt lat="50.65726" lon="5.42268">
        <ele>150.60000610352</ele>
        <time>2021-08-08T09:53:16.000Z</time>
      </trkpt>
      <trkpt lat="50.65721" lon="5.423">
        <ele>150.60000610352</ele>
        <time>2021-08-08T09:53:19.000Z</time>
      </trkpt>
      <trkpt lat="50.65715" lon="5.42332">
        <ele>150.60000610352</ele>
        <time>2021-08-08T09:53:22.000Z</time>
      </trkpt>
      <trkpt lat="50.65692" lon="5.42425">
        <ele>152.39999389648</ele>
        <time>2021-08-08T09:53:31.000Z</time>
      </trkpt>
      <trkpt lat="50.65688" lon="5.42434">
        <ele>152.39999389648</ele>
        <time>2021-08-08T09:53:32.000Z</time>
      </trkpt>
      <trkpt lat="50.65637" lon="5.42557">
        <ele>153.80000305176</ele>
        <time>2021-08-08T09:53:46.000Z</time>
      </trkpt>
      <trkpt lat="50.65633" lon="5.42566">
        <ele>153.80000305176</ele>
        <time>2021-08-08T09:53:47.000Z</time>
      </trkpt>
      <trkpt lat="50.65625" lon="5.42583">
        <ele>154</ele>
        <time>2021-08-08T09:53:49.000Z</time>
      </trkpt>
      <trkpt lat="50.65621" lon="5.42592">
        <ele>154</ele>
        <time>2021-08-08T09:53:50.000Z</time>
      </trkpt>
      <trkpt lat="50.65604" lon="5.42614">
        <ele>154.60000610352</ele>
        <time>2021-08-08T09:53:53.000Z</time>
      </trkpt>
      <trkpt lat="50.65586" lon="5.42637">
        <ele>154.60000610352</ele>
        <time>2021-08-08T09:53:56.000Z</time>
      </trkpt>
      <trkpt lat="50.65569" lon="5.42661">
        <ele>154</ele>
        <time>2021-08-08T09:53:59.000Z</time>
      </trkpt>
      <trkpt lat="50.65517" lon="5.42748">
        <ele>151</ele>
        <time>2021-08-08T09:54:09.000Z</time>
      </trkpt>
      <trkpt lat="50.65506" lon="5.42765">
        <ele>150.60000610352</ele>
        <time>2021-08-08T09:54:12.000Z</time>
      </trkpt>
      <trkpt lat="50.65495" lon="5.42773">
        <ele>150.60000610352</ele>
        <time>2021-08-08T09:54:16.000Z</time>
      </trkpt>
      <trkpt lat="50.65493" lon="5.42777">
        <ele>150.39999389648</ele>
        <time>2021-08-08T09:54:17.000Z</time>
      </trkpt>
      <trkpt lat="50.65491" lon="5.42787">
        <ele>150.39999389648</ele>
        <time>2021-08-08T09:54:19.000Z</time>
      </trkpt>
      <trkpt lat="50.65487" lon="5.42806">
        <ele>150.39999389648</ele>
        <time>2021-08-08T09:54:22.000Z</time>
      </trkpt>
      <trkpt lat="50.65475" lon="5.42828">
        <ele>150.39999389648</ele>
        <time>2021-08-08T09:54:26.000Z</time>
      </trkpt>
      <trkpt lat="50.65467" lon="5.42841">
        <ele>150.19999694824</ele>
        <time>2021-08-08T09:54:28.000Z</time>
      </trkpt>
      <trkpt lat="50.65441" lon="5.42889">
        <ele>148.80000305176</ele>
        <time>2021-08-08T09:54:37.000Z</time>
      </trkpt>
      <trkpt lat="50.65428" lon="5.42896">
        <ele>148.39999389648</ele>
        <time>2021-08-08T09:54:40.000Z</time>
      </trkpt>
      <trkpt lat="50.65404" lon="5.42899">
        <ele>148.19999694824</ele>
        <time>2021-08-08T09:54:44.000Z</time>
      </trkpt>
      <trkpt lat="50.65338" lon="5.429">
        <ele>148</ele>
        <time>2021-08-08T09:54:54.000Z</time>
      </trkpt>
      <trkpt lat="50.65291" lon="5.42888">
        <ele>148</ele>
        <time>2021-08-08T09:55:02.000Z</time>
      </trkpt>
      <trkpt lat="50.65212" lon="5.4289">
        <ele>148.60000610352</ele>
        <time>2021-08-08T09:55:15.000Z</time>
      </trkpt>
      <trkpt lat="50.652" lon="5.42887">
        <ele>148.39999389648</ele>
        <time>2021-08-08T09:55:17.000Z</time>
      </trkpt>
      <trkpt lat="50.65168" lon="5.42878">
        <ele>148.19999694824</ele>
        <time>2021-08-08T09:55:22.000Z</time>
      </trkpt>
      <trkpt lat="50.65112" lon="5.42863">
        <ele>148.19999694824</ele>
        <time>2021-08-08T09:55:31.000Z</time>
      </trkpt>
      <trkpt lat="50.65071" lon="5.42845">
        <ele>148.80000305176</ele>
        <time>2021-08-08T09:55:38.000Z</time>
      </trkpt>
      <trkpt lat="50.65026" lon="5.42816">
        <ele>149</ele>
        <time>2021-08-08T09:55:46.000Z</time>
      </trkpt>
      <trkpt lat="50.64978" lon="5.42795">
        <ele>149.19999694824</ele>
        <time>2021-08-08T09:55:54.000Z</time>
      </trkpt>
      <trkpt lat="50.64933" lon="5.42801">
        <ele>149</ele>
        <time>2021-08-08T09:56:01.000Z</time>
      </trkpt>
      <trkpt lat="50.64913" lon="5.42802">
        <ele>149</ele>
        <time>2021-08-08T09:56:04.000Z</time>
      </trkpt>
      <trkpt lat="50.64865" lon="5.42797">
        <ele>149.39999389648</ele>
        <time>2021-08-08T09:56:12.000Z</time>
      </trkpt>
      <trkpt lat="50.64811" lon="5.42788">
        <ele>150.60000610352</ele>
        <time>2021-08-08T09:56:21.000Z</time>
      </trkpt>
      <trkpt lat="50.64787" lon="5.4278">
        <ele>151</ele>
        <time>2021-08-08T09:56:25.000Z</time>
      </trkpt>
      <trkpt lat="50.64764" lon="5.42767">
        <ele>151.39999389648</ele>
        <time>2021-08-08T09:56:29.000Z</time>
      </trkpt>
      <trkpt lat="50.64706" lon="5.42709">
        <ele>152</ele>
        <time>2021-08-08T09:56:42.000Z</time>
      </trkpt>
      <trkpt lat="50.64701" lon="5.42707">
        <ele>152</ele>
        <time>2021-08-08T09:56:43.000Z</time>
      </trkpt>
      <trkpt lat="50.64691" lon="5.42713">
        <ele>152.19999694824</ele>
        <time>2021-08-08T09:56:45.000Z</time>
      </trkpt>
      <trkpt lat="50.64687" lon="5.42718">
        <ele>152.19999694824</ele>
        <time>2021-08-08T09:56:46.000Z</time>
      </trkpt>
      <trkpt lat="50.64654" lon="5.42754">
        <ele>152.80000305176</ele>
        <time>2021-08-08T09:56:53.000Z</time>
      </trkpt>
      <trkpt lat="50.64644" lon="5.4275">
        <ele>152.80000305176</ele>
        <time>2021-08-08T09:56:55.000Z</time>
      </trkpt>
      <trkpt lat="50.6461" lon="5.427">
        <ele>152.80000305176</ele>
        <time>2021-08-08T09:57:03.000Z</time>
      </trkpt>
      <trkpt lat="50.64564" lon="5.42645">
        <ele>153</ele>
        <time>2021-08-08T09:57:13.000Z</time>
      </trkpt>
      <trkpt lat="50.64533" lon="5.42617">
        <ele>153.39999389648</ele>
        <time>2021-08-08T09:57:19.000Z</time>
      </trkpt>
      <trkpt lat="50.64478" lon="5.42579">
        <ele>154.80000305176</ele>
        <time>2021-08-08T09:57:29.000Z</time>
      </trkpt>
      <trkpt lat="50.64439" lon="5.42556">
        <ele>155.19999694824</ele>
        <time>2021-08-08T09:57:36.000Z</time>
      </trkpt>
      <trkpt lat="50.64392" lon="5.42547">
        <ele>156.60000610352</ele>
        <time>2021-08-08T09:57:44.000Z</time>
      </trkpt>
      <trkpt lat="50.64368" lon="5.42545">
        <ele>156.80000305176</ele>
        <time>2021-08-08T09:57:48.000Z</time>
      </trkpt>
      <trkpt lat="50.64347" lon="5.42526">
        <ele>157</ele>
        <time>2021-08-08T09:57:52.000Z</time>
      </trkpt>
      <trkpt lat="50.64342" lon="5.4252">
        <ele>157.39999389648</ele>
        <time>2021-08-08T09:57:53.000Z</time>
      </trkpt>
      <trkpt lat="50.64298" lon="5.42457">
        <ele>158.80000305176</ele>
        <time>2021-08-08T09:58:03.000Z</time>
      </trkpt>
      <trkpt lat="50.64295" lon="5.4245">
        <ele>159</ele>
        <time>2021-08-08T09:58:04.000Z</time>
      </trkpt>
      <trkpt lat="50.64086" lon="5.42713">
        <ele>182.3</ele>
      </trkpt>
      <trkpt lat="50.63994" lon="5.42838">
        <ele>186.2</ele>
      </trkpt>
      <trkpt lat="50.63954" lon="5.42823">
        <ele>185.9</ele>
      </trkpt>
      <trkpt lat="50.63807" lon="5.42589">
        <ele>188</ele>
      </trkpt>
      <trkpt lat="50.63713" lon="5.42513">
        <ele>186.8</ele>
      </trkpt>
      <trkpt lat="50.63693" lon="5.4247">
        <ele>185.9</ele>
      </trkpt>
      <trkpt lat="50.63679" lon="5.4247">
        <ele>185.4</ele>
      </trkpt>
      <trkpt lat="50.63664" lon="5.42487">
        <ele>185</ele>
      </trkpt>
      <trkpt lat="50.63201" lon="5.42243">
        <ele>174.7</ele>
      </trkpt>
      <trkpt lat="50.62998" lon="5.42111">
        <ele>176.1</ele>
      </trkpt>
      <trkpt lat="50.62977" lon="5.421">
        <ele>176.4</ele>
      </trkpt>
      <trkpt lat="50.62884" lon="5.42068">
        <ele>178.6</ele>
      </trkpt>
      <trkpt lat="50.62843" lon="5.42049">
        <ele>178.6</ele>
      </trkpt>
      <trkpt lat="50.62784" lon="5.42">
        <ele>178</ele>
      </trkpt>
      <trkpt lat="50.62745" lon="5.41944">
        <ele>177</ele>
      </trkpt>
      <trkpt lat="50.62743" lon="5.41913">
        <ele>175.9</ele>
      </trkpt>
      <trkpt lat="50.62725" lon="5.41899">
        <ele>175.8</ele>
      </trkpt>
      <trkpt lat="50.62694" lon="5.41803">
        <ele>175.9</ele>
      </trkpt>
      <trkpt lat="50.62547" lon="5.41571">
        <ele>171.3</ele>
      </trkpt>
      <trkpt lat="50.62481" lon="5.41456">
        <ele>173</ele>
      </trkpt>
      <trkpt lat="50.62417" lon="5.41258">
        <ele>174</ele>
      </trkpt>
      <trkpt lat="50.62298" lon="5.41181">
        <ele>177.1</ele>
      </trkpt>
      <trkpt lat="50.62221" lon="5.41085">
        <ele>178</ele>
      </trkpt>
      <trkpt lat="50.62085" lon="5.41125">
        <ele>181</ele>
      </trkpt>
      <trkpt lat="50.61921" lon="5.41223">
        <ele>183</ele>
      </trkpt>
      <trkpt lat="50.61923" lon="5.41272">
        <ele>183</ele>
      </trkpt>
      <trkpt lat="50.62024" lon="5.41551">
        <ele>186</ele>
      </trkpt>
      <trkpt lat="50.61917" lon="5.41689">
        <ele>187</ele>
      </trkpt>
      <trkpt lat="50.61887" lon="5.41906">
        <ele>188</ele>
      </trkpt>
      <trkpt lat="50.61905" lon="5.42251">
        <ele>189.6</ele>
      </trkpt>
      <trkpt lat="50.61822" lon="5.42451">
        <ele>193.1</ele>
      </trkpt>
      <trkpt lat="50.61812" lon="5.42595">
        <ele>190.3</ele>
      </trkpt>
      <trkpt lat="50.61818" lon="5.42653">
        <ele>187.8</ele>
      </trkpt>
      <trkpt lat="50.61799" lon="5.42756">
        <ele>185.3</ele>
      </trkpt>
      <trkpt lat="50.61775" lon="5.42827">
        <ele>188.3</ele>
      </trkpt>
      <trkpt lat="50.61766" lon="5.42877">
        <ele>189.7</ele>
      </trkpt>
      <trkpt lat="50.61811" lon="5.42936">
        <ele>192</ele>
      </trkpt>
      <trkpt lat="50.61915" lon="5.4307">
        <ele>191.3</ele>
      </trkpt>
      <trkpt lat="50.61985" lon="5.43156">
        <ele>193.2</ele>
      </trkpt>
      <trkpt lat="50.62025" lon="5.43182">
        <ele>192.4</ele>
      </trkpt>
      <trkpt lat="50.62065" lon="5.43214">
        <ele>192.3</ele>
      </trkpt>
      <trkpt lat="50.62116" lon="5.4327">
        <ele>193.8</ele>
      </trkpt>
      <trkpt lat="50.62151" lon="5.4331">
        <ele>194.2</ele>
      </trkpt>
      <trkpt lat="50.62212" lon="5.43472">
        <ele>191.6</ele>
      </trkpt>
      <trkpt lat="50.62204" lon="5.43493">
        <ele>190.1</ele>
      </trkpt>
      <trkpt lat="50.62212" lon="5.43516">
        <ele>189.9</ele>
      </trkpt>
      <trkpt lat="50.62228" lon="5.43512">
        <ele>190.6</ele>
      </trkpt>
      <trkpt lat="50.62245" lon="5.43563">
        <ele>189.5</ele>
      </trkpt>
      <trkpt lat="50.62332" lon="5.43793">
        <ele>182.9</ele>
      </trkpt>
      <trkpt lat="50.6237" lon="5.4398">
        <ele>186.1</ele>
      </trkpt>
      <trkpt lat="50.62369" lon="5.4401">
        <ele>186.3</ele>
      </trkpt>
      <trkpt lat="50.62337" lon="5.44071">
        <ele>186.1</ele>
      </trkpt>
      <trkpt lat="50.62309" lon="5.44121">
        <ele>186.4</ele>
      </trkpt>
      <trkpt lat="50.62303" lon="5.44153">
        <ele>186.9</ele>
      </trkpt>
      <trkpt lat="50.62302" lon="5.44189">
        <ele>187</ele>
      </trkpt>
      <trkpt lat="50.62327" lon="5.44295">
        <ele>189.3</ele>
      </trkpt>
      <trkpt lat="50.62346" lon="5.44415">
        <ele>190.4</ele>
      </trkpt>
      <trkpt lat="50.62353" lon="5.44524">
        <ele>191.7</ele>
      </trkpt>
      <trkpt lat="50.62351" lon="5.44608">
        <ele>192.4</ele>
      </trkpt>
      <trkpt lat="50.62332" lon="5.44786">
        <ele>191</ele>
      </trkpt>
    </trkseg>
  </trk>
</gpx>